<?xml version="1.0" encoding="UTF-8" standalone="no" ?>
<gpx xmlns="http://www.topografix.com/GPX/1/1" xmlns:xsi="http://www.w3.org/2001/XMLSchema-instance" xsi:schemaLocation="http://www.topografix.com/GPX/1/1 http://www.topografix.com/GPX/1/1/gpx.xsd" version="1.1" creator="VisuGPX - https://www.visugpx.com">
  <metadata>
    <name>MontChardon</name>
    <desc><![CDATA[MontChardon]]></desc>
  </metadata>
  <trk>
    <name><![CDATA[MontChardon]]></name>
    <cmt><![CDATA[Brigitte, Martine, Edmond, Laurent, Philippe1 & 2, Thierry, Claude, Bruno, Edouard, Jacques, Pascal, Fabien, Alain, JeanPierre, JeanMichel, JeanMarie]]></cmt>
    <trkseg>
      <trkpt lat="45.12031" lon="4.9869">
        <ele>203</ele>
        <time>2010-05-28T22:15:18Z</time>
      </trkpt>
      <trkpt lat="45.12058" lon="4.98797">
        <ele>204</ele>
        <time>2010-05-28T22:15:50Z</time>
      </trkpt>
      <trkpt lat="45.12103" lon="4.98886">
        <ele>203</ele>
        <time>2010-05-28T22:16:21Z</time>
      </trkpt>
      <trkpt lat="45.12161" lon="4.98968">
        <ele>207</ele>
        <time>2010-05-28T22:16:54Z</time>
      </trkpt>
      <trkpt lat="45.12215" lon="4.99027">
        <ele>220</ele>
        <time>2010-05-28T22:17:21Z</time>
      </trkpt>
      <trkpt lat="45.12214" lon="4.99046">
        <ele>216</ele>
        <time>2010-05-28T22:17:26Z</time>
      </trkpt>
      <trkpt lat="45.12221" lon="4.99061">
        <ele>216</ele>
        <time>2010-05-28T22:17:32Z</time>
      </trkpt>
      <trkpt lat="45.12233" lon="4.99065">
        <ele>216</ele>
        <time>2010-05-28T22:17:36Z</time>
      </trkpt>
      <trkpt lat="45.12242" lon="4.99055">
        <ele>216</ele>
        <time>2010-05-28T22:17:41Z</time>
      </trkpt>
      <trkpt lat="45.12269" lon="4.99067">
        <ele>216</ele>
        <time>2010-05-28T22:17:52Z</time>
      </trkpt>
      <trkpt lat="45.12278" lon="4.9908">
        <ele>216</ele>
        <time>2010-05-28T22:17:58Z</time>
      </trkpt>
      <trkpt lat="45.12352" lon="4.99269">
        <ele>225</ele>
        <time>2010-05-28T22:18:59Z</time>
      </trkpt>
      <trkpt lat="45.12384" lon="4.99441">
        <ele>239</ele>
        <time>2010-05-28T22:19:49Z</time>
      </trkpt>
      <trkpt lat="45.12395" lon="4.99491">
        <ele>235</ele>
        <time>2010-05-28T22:20:04Z</time>
      </trkpt>
      <trkpt lat="45.12405" lon="4.99517">
        <ele>235</ele>
        <time>2010-05-28T22:20:12Z</time>
      </trkpt>
      <trkpt lat="45.1247" lon="4.99623">
        <ele>246</ele>
        <time>2010-05-28T22:20:52Z</time>
      </trkpt>
      <trkpt lat="45.12518" lon="4.9969">
        <ele>226</ele>
        <time>2010-05-28T22:21:19Z</time>
      </trkpt>
      <trkpt lat="45.12559" lon="4.99734">
        <ele>226</ele>
        <time>2010-05-28T22:21:39Z</time>
      </trkpt>
      <trkpt lat="45.12596" lon="4.99804">
        <ele>217</ele>
        <time>2010-05-28T22:22:04Z</time>
      </trkpt>
      <trkpt lat="45.12639" lon="4.99857">
        <ele>225</ele>
        <time>2010-05-28T22:22:27Z</time>
      </trkpt>
      <trkpt lat="45.12648" lon="4.99875">
        <ele>219</ele>
        <time>2010-05-28T22:22:33Z</time>
      </trkpt>
      <trkpt lat="45.12666" lon="4.9995">
        <ele>219</ele>
        <time>2010-05-28T22:22:55Z</time>
      </trkpt>
      <trkpt lat="45.12683" lon="4.99981">
        <ele>220</ele>
        <time>2010-05-28T22:23:06Z</time>
      </trkpt>
      <trkpt lat="45.12708" lon="5.00013">
        <ele>220</ele>
        <time>2010-05-28T22:23:20Z</time>
      </trkpt>
      <trkpt lat="45.12743" lon="5.00041">
        <ele>235</ele>
        <time>2010-05-28T22:23:36Z</time>
      </trkpt>
      <trkpt lat="45.12792" lon="5.00051">
        <ele>234</ele>
        <time>2010-05-28T22:23:56Z</time>
      </trkpt>
      <trkpt lat="45.12824" lon="5.00063">
        <ele>234</ele>
        <time>2010-05-28T22:24:09Z</time>
      </trkpt>
      <trkpt lat="45.12848" lon="5.00087">
        <ele>234</ele>
        <time>2010-05-28T22:24:21Z</time>
      </trkpt>
      <trkpt lat="45.1292" lon="5.00201">
        <ele>245</ele>
        <time>2010-05-28T22:25:04Z</time>
      </trkpt>
      <trkpt lat="45.12971" lon="5.00245">
        <ele>246</ele>
        <time>2010-05-28T22:25:28Z</time>
      </trkpt>
      <trkpt lat="45.13195" lon="5.00332">
        <ele>239</ele>
        <time>2010-05-28T22:27:01Z</time>
      </trkpt>
      <trkpt lat="45.13334" lon="5.00329">
        <ele>247</ele>
        <time>2010-05-28T22:27:57Z</time>
      </trkpt>
      <trkpt lat="45.13361" lon="5.00334">
        <ele>247</ele>
        <time>2010-05-28T22:28:07Z</time>
      </trkpt>
      <trkpt lat="45.13476" lon="5.00412">
        <ele>248</ele>
        <time>2010-05-28T22:28:58Z</time>
      </trkpt>
      <trkpt lat="45.13491" lon="5.0042">
        <ele>248</ele>
        <time>2010-05-28T22:29:05Z</time>
      </trkpt>
      <trkpt lat="45.13504" lon="5.00436">
        <ele>248</ele>
        <time>2010-05-28T22:29:12Z</time>
      </trkpt>
      <trkpt lat="45.13622" lon="5.00471">
        <ele>234</ele>
        <time>2010-05-28T22:30:00Z</time>
      </trkpt>
      <trkpt lat="45.13678" lon="5.00503">
        <ele>238</ele>
        <time>2010-05-28T22:30:24Z</time>
      </trkpt>
      <trkpt lat="45.13797" lon="5.00637">
        <ele>257</ele>
        <time>2010-05-28T22:31:25Z</time>
      </trkpt>
      <trkpt lat="45.13846" lon="5.00674">
        <ele>257</ele>
        <time>2010-05-28T22:31:47Z</time>
      </trkpt>
      <trkpt lat="45.13869" lon="5.00681">
        <ele>257</ele>
        <time>2010-05-28T22:31:57Z</time>
      </trkpt>
      <trkpt lat="45.13991" lon="5.00742">
        <ele>252</ele>
        <time>2010-05-28T22:32:48Z</time>
      </trkpt>
      <trkpt lat="45.14152" lon="5.00827">
        <ele>255</ele>
        <time>2010-05-28T22:33:57Z</time>
      </trkpt>
      <trkpt lat="45.14207" lon="5.00861">
        <ele>255</ele>
        <time>2010-05-28T22:34:21Z</time>
      </trkpt>
      <trkpt lat="45.14269" lon="5.0089">
        <ele>244</ele>
        <time>2010-05-28T22:34:47Z</time>
      </trkpt>
      <trkpt lat="45.14315" lon="5.00921">
        <ele>255</ele>
        <time>2010-05-28T22:35:08Z</time>
      </trkpt>
      <trkpt lat="45.14484" lon="5.01105">
        <ele>254</ele>
        <time>2010-05-28T22:36:33Z</time>
      </trkpt>
      <trkpt lat="45.14601" lon="5.01188">
        <ele>252</ele>
        <time>2010-05-28T22:37:25Z</time>
      </trkpt>
      <trkpt lat="45.14625" lon="5.01212">
        <ele>244</ele>
        <time>2010-05-28T22:37:37Z</time>
      </trkpt>
      <trkpt lat="45.14652" lon="5.01248">
        <ele>244</ele>
        <time>2010-05-28T22:37:52Z</time>
      </trkpt>
      <trkpt lat="45.14669" lon="5.01279">
        <ele>244</ele>
        <time>2010-05-28T22:38:03Z</time>
      </trkpt>
      <trkpt lat="45.14736" lon="5.01474">
        <ele>251</ele>
        <time>2010-05-28T22:39:04Z</time>
      </trkpt>
      <trkpt lat="45.14759" lon="5.01507">
        <ele>251</ele>
        <time>2010-05-28T22:39:17Z</time>
      </trkpt>
      <trkpt lat="45.14867" lon="5.01622">
        <ele>254</ele>
        <time>2010-05-28T22:40:12Z</time>
      </trkpt>
      <trkpt lat="45.14908" lon="5.01677">
        <ele>252</ele>
        <time>2010-05-28T22:40:34Z</time>
      </trkpt>
      <trkpt lat="45.14706" lon="5.01953">
        <ele>238</ele>
        <time>2010-05-28T22:42:26Z</time>
      </trkpt>
      <trkpt lat="45.14666" lon="5.02031">
        <ele>238</ele>
        <time>2010-05-28T22:42:54Z</time>
      </trkpt>
      <trkpt lat="45.14615" lon="5.02149">
        <ele>240</ele>
        <time>2010-05-28T22:43:33Z</time>
      </trkpt>
      <trkpt lat="45.14594" lon="5.02175">
        <ele>240</ele>
        <time>2010-05-28T22:43:44Z</time>
      </trkpt>
      <trkpt lat="45.14515" lon="5.02237">
        <ele>241</ele>
        <time>2010-05-28T22:44:20Z</time>
      </trkpt>
      <trkpt lat="45.14503" lon="5.0226">
        <ele>241</ele>
        <time>2010-05-28T22:44:28Z</time>
      </trkpt>
      <trkpt lat="45.14442" lon="5.02438">
        <ele>239</ele>
        <time>2010-05-28T22:45:24Z</time>
      </trkpt>
      <trkpt lat="45.14412" lon="5.02524">
        <ele>243</ele>
        <time>2010-05-28T22:45:51Z</time>
      </trkpt>
      <trkpt lat="45.14409" lon="5.02557">
        <ele>251</ele>
        <time>2010-05-28T22:46:00Z</time>
      </trkpt>
      <trkpt lat="45.14416" lon="5.0259">
        <ele>251</ele>
        <time>2010-05-28T22:46:10Z</time>
      </trkpt>
      <trkpt lat="45.14438" lon="5.02623">
        <ele>251</ele>
        <time>2010-05-28T22:46:23Z</time>
      </trkpt>
      <trkpt lat="45.14595" lon="5.02809">
        <ele>265</ele>
        <time>2010-05-28T22:47:45Z</time>
      </trkpt>
      <trkpt lat="45.14671" lon="5.02906">
        <ele>267</ele>
        <time>2010-05-28T22:48:26Z</time>
      </trkpt>
      <trkpt lat="45.14664" lon="5.02975">
        <ele>270</ele>
        <time>2010-05-28T22:48:46Z</time>
      </trkpt>
      <trkpt lat="45.14605" lon="5.03276">
        <ele>272</ele>
        <time>2010-05-28T22:50:14Z</time>
      </trkpt>
      <trkpt lat="45.14615" lon="5.03281">
        <ele>272</ele>
        <time>2010-05-28T22:50:18Z</time>
      </trkpt>
      <trkpt lat="45.14636" lon="5.03341">
        <ele>274</ele>
        <time>2010-05-28T22:50:37Z</time>
      </trkpt>
      <trkpt lat="45.14679" lon="5.03428">
        <ele>276</ele>
        <time>2010-05-28T22:51:07Z</time>
      </trkpt>
      <trkpt lat="45.14735" lon="5.03555">
        <ele>285</ele>
        <time>2010-05-28T22:51:49Z</time>
      </trkpt>
      <trkpt lat="45.14793" lon="5.03607">
        <ele>279</ele>
        <time>2010-05-28T22:52:17Z</time>
      </trkpt>
      <trkpt lat="45.14826" lon="5.03652">
        <ele>284</ele>
        <time>2010-05-28T22:52:35Z</time>
      </trkpt>
      <trkpt lat="45.1483" lon="5.03673">
        <ele>284</ele>
        <time>2010-05-28T22:52:41Z</time>
      </trkpt>
      <trkpt lat="45.14824" lon="5.03678">
        <ele>284</ele>
        <time>2010-05-28T22:52:44Z</time>
      </trkpt>
      <trkpt lat="45.14824" lon="5.03686">
        <ele>284</ele>
        <time>2010-05-28T22:52:46Z</time>
      </trkpt>
      <trkpt lat="45.14829" lon="5.03693">
        <ele>284</ele>
        <time>2010-05-28T22:52:49Z</time>
      </trkpt>
      <trkpt lat="45.14816" lon="5.03732">
        <ele>287</ele>
        <time>2010-05-28T22:53:01Z</time>
      </trkpt>
      <trkpt lat="45.14771" lon="5.04005">
        <ele>292</ele>
        <time>2010-05-28T22:54:20Z</time>
      </trkpt>
      <trkpt lat="45.14759" lon="5.04138">
        <ele>296</ele>
        <time>2010-05-28T22:54:58Z</time>
      </trkpt>
      <trkpt lat="45.14757" lon="5.04255">
        <ele>300</ele>
        <time>2010-05-28T22:55:31Z</time>
      </trkpt>
      <trkpt lat="45.14756" lon="5.0429">
        <ele>300</ele>
        <time>2010-05-28T22:55:41Z</time>
      </trkpt>
      <trkpt lat="45.14765" lon="5.04369">
        <ele>305</ele>
        <time>2010-05-28T22:56:04Z</time>
      </trkpt>
      <trkpt lat="45.14765" lon="5.04401">
        <ele>311</ele>
        <time>2010-05-28T22:56:13Z</time>
      </trkpt>
      <trkpt lat="45.14754" lon="5.04445">
        <ele>311</ele>
        <time>2010-05-28T22:56:26Z</time>
      </trkpt>
      <trkpt lat="45.14728" lon="5.04512">
        <ele>313</ele>
        <time>2010-05-28T22:56:47Z</time>
      </trkpt>
      <trkpt lat="45.14706" lon="5.04559">
        <ele>317</ele>
        <time>2010-05-28T22:57:03Z</time>
      </trkpt>
      <trkpt lat="45.14632" lon="5.04685">
        <ele>322</ele>
        <time>2010-05-28T22:57:50Z</time>
      </trkpt>
      <trkpt lat="45.14565" lon="5.04828">
        <ele>330</ele>
        <time>2010-05-28T22:58:38Z</time>
      </trkpt>
      <trkpt lat="45.14536" lon="5.04863">
        <ele>324</ele>
        <time>2010-05-28T22:58:53Z</time>
      </trkpt>
      <trkpt lat="45.14488" lon="5.04897">
        <ele>330</ele>
        <time>2010-05-28T22:59:15Z</time>
      </trkpt>
      <trkpt lat="45.14478" lon="5.0492">
        <ele>330</ele>
        <time>2010-05-28T22:59:23Z</time>
      </trkpt>
      <trkpt lat="45.14481" lon="5.0494">
        <ele>330</ele>
        <time>2010-05-28T22:59:28Z</time>
      </trkpt>
      <trkpt lat="45.14507" lon="5.04977">
        <ele>329</ele>
        <time>2010-05-28T22:59:43Z</time>
      </trkpt>
      <trkpt lat="45.14514" lon="5.04997">
        <ele>329</ele>
        <time>2010-05-28T22:59:49Z</time>
      </trkpt>
      <trkpt lat="45.1452" lon="5.05048">
        <ele>326</ele>
        <time>2010-05-28T23:00:04Z</time>
      </trkpt>
      <trkpt lat="45.1452" lon="5.05085">
        <ele>326</ele>
        <time>2010-05-28T23:00:14Z</time>
      </trkpt>
      <trkpt lat="45.14515" lon="5.05119">
        <ele>326</ele>
        <time>2010-05-28T23:00:24Z</time>
      </trkpt>
      <trkpt lat="45.14509" lon="5.05133">
        <ele>334</ele>
        <time>2010-05-28T23:00:29Z</time>
      </trkpt>
      <trkpt lat="45.14497" lon="5.05148">
        <ele>334</ele>
        <time>2010-05-28T23:00:35Z</time>
      </trkpt>
      <trkpt lat="45.14465" lon="5.05169">
        <ele>334</ele>
        <time>2010-05-28T23:00:49Z</time>
      </trkpt>
      <trkpt lat="45.14463" lon="5.05195">
        <ele>334</ele>
        <time>2010-05-28T23:00:57Z</time>
      </trkpt>
      <trkpt lat="45.14473" lon="5.05223">
        <ele>329</ele>
        <time>2010-05-28T23:01:06Z</time>
      </trkpt>
      <trkpt lat="45.14531" lon="5.05326">
        <ele>319</ele>
        <time>2010-05-28T23:01:43Z</time>
      </trkpt>
      <trkpt lat="45.14539" lon="5.05361">
        <ele>319</ele>
        <time>2010-05-28T23:01:53Z</time>
      </trkpt>
      <trkpt lat="45.14525" lon="5.0538">
        <ele>322</ele>
        <time>2010-05-28T23:02:01Z</time>
      </trkpt>
      <trkpt lat="45.14513" lon="5.05386">
        <ele>322</ele>
        <time>2010-05-28T23:02:06Z</time>
      </trkpt>
      <trkpt lat="45.14498" lon="5.05383">
        <ele>322</ele>
        <time>2010-05-28T23:02:12Z</time>
      </trkpt>
      <trkpt lat="45.14469" lon="5.05367">
        <ele>319</ele>
        <time>2010-05-28T23:02:25Z</time>
      </trkpt>
      <trkpt lat="45.14438" lon="5.05368">
        <ele>317</ele>
        <time>2010-05-28T23:02:37Z</time>
      </trkpt>
      <trkpt lat="45.14419" lon="5.05396">
        <ele>326</ele>
        <time>2010-05-28T23:02:48Z</time>
      </trkpt>
      <trkpt lat="45.14389" lon="5.05472">
        <ele>332</ele>
        <time>2010-05-28T23:03:13Z</time>
      </trkpt>
      <trkpt lat="45.14378" lon="5.05488">
        <ele>332</ele>
        <time>2010-05-28T23:03:19Z</time>
      </trkpt>
      <trkpt lat="45.14364" lon="5.05495">
        <ele>335</ele>
        <time>2010-05-28T23:03:25Z</time>
      </trkpt>
      <trkpt lat="45.14278" lon="5.05492">
        <ele>337</ele>
        <time>2010-05-28T23:03:59Z</time>
      </trkpt>
      <trkpt lat="45.14223" lon="5.055">
        <ele>337</ele>
        <time>2010-05-28T23:04:21Z</time>
      </trkpt>
      <trkpt lat="45.14149" lon="5.05495">
        <ele>339</ele>
        <time>2010-05-28T23:04:51Z</time>
      </trkpt>
      <trkpt lat="45.14132" lon="5.05501">
        <ele>339</ele>
        <time>2010-05-28T23:04:58Z</time>
      </trkpt>
      <trkpt lat="45.14113" lon="5.05533">
        <ele>331</ele>
        <time>2010-05-28T23:05:10Z</time>
      </trkpt>
      <trkpt lat="45.14103" lon="5.05589">
        <ele>335</ele>
        <time>2010-05-28T23:05:26Z</time>
      </trkpt>
      <trkpt lat="45.14093" lon="5.05612">
        <ele>335</ele>
        <time>2010-05-28T23:05:34Z</time>
      </trkpt>
      <trkpt lat="45.14072" lon="5.05644">
        <ele>342</ele>
        <time>2010-05-28T23:05:46Z</time>
      </trkpt>
      <trkpt lat="45.14063" lon="5.0565">
        <ele>342</ele>
        <time>2010-05-28T23:05:50Z</time>
      </trkpt>
      <trkpt lat="45.14039" lon="5.05655">
        <ele>343</ele>
        <time>2010-05-28T23:06:00Z</time>
      </trkpt>
      <trkpt lat="45.1394" lon="5.05636">
        <ele>346</ele>
        <time>2010-05-28T23:06:40Z</time>
      </trkpt>
      <trkpt lat="45.13844" lon="5.05624">
        <ele>331</ele>
        <time>2010-05-28T23:07:18Z</time>
      </trkpt>
      <trkpt lat="45.13715" lon="5.0565">
        <ele>341</ele>
        <time>2010-05-28T23:08:11Z</time>
      </trkpt>
      <trkpt lat="45.137" lon="5.05662">
        <ele>342</ele>
        <time>2010-05-28T23:08:17Z</time>
      </trkpt>
      <trkpt lat="45.13667" lon="5.05704">
        <ele>342</ele>
        <time>2010-05-28T23:08:35Z</time>
      </trkpt>
      <trkpt lat="45.13652" lon="5.05735">
        <ele>345</ele>
        <time>2010-05-28T23:08:46Z</time>
      </trkpt>
      <trkpt lat="45.13653" lon="5.05778">
        <ele>345</ele>
        <time>2010-05-28T23:08:58Z</time>
      </trkpt>
      <trkpt lat="45.13661" lon="5.05827">
        <ele>339</ele>
        <time>2010-05-28T23:09:12Z</time>
      </trkpt>
      <trkpt lat="45.1366" lon="5.05864">
        <ele>339</ele>
        <time>2010-05-28T23:09:23Z</time>
      </trkpt>
      <trkpt lat="45.13648" lon="5.05901">
        <ele>335</ele>
        <time>2010-05-28T23:09:34Z</time>
      </trkpt>
      <trkpt lat="45.13625" lon="5.05952">
        <ele>330</ele>
        <time>2010-05-28T23:09:51Z</time>
      </trkpt>
      <trkpt lat="45.1357" lon="5.06062">
        <ele>328</ele>
        <time>2010-05-28T23:10:29Z</time>
      </trkpt>
      <trkpt lat="45.13513" lon="5.06131">
        <ele>329</ele>
        <time>2010-05-28T23:10:59Z</time>
      </trkpt>
      <trkpt lat="45.13493" lon="5.06141">
        <ele>329</ele>
        <time>2010-05-28T23:11:08Z</time>
      </trkpt>
      <trkpt lat="45.13463" lon="5.06138">
        <ele>329</ele>
        <time>2010-05-28T23:11:20Z</time>
      </trkpt>
      <trkpt lat="45.13332" lon="5.06085">
        <ele>325</ele>
        <time>2010-05-28T23:12:14Z</time>
      </trkpt>
      <trkpt lat="45.13314" lon="5.06083">
        <ele>325</ele>
        <time>2010-05-28T23:12:22Z</time>
      </trkpt>
      <trkpt lat="45.13285" lon="5.06097">
        <ele>321</ele>
        <time>2010-05-28T23:12:34Z</time>
      </trkpt>
      <trkpt lat="45.13226" lon="5.0631">
        <ele>320</ele>
        <time>2010-05-28T23:13:38Z</time>
      </trkpt>
      <trkpt lat="45.13203" lon="5.06352">
        <ele>312</ele>
        <time>2010-05-28T23:13:53Z</time>
      </trkpt>
      <trkpt lat="45.13147" lon="5.06434">
        <ele>311</ele>
        <time>2010-05-28T23:14:26Z</time>
      </trkpt>
      <trkpt lat="45.13058" lon="5.06563">
        <ele>308</ele>
        <time>2010-05-28T23:15:17Z</time>
      </trkpt>
      <trkpt lat="45.12984" lon="5.06674">
        <ele>314</ele>
        <time>2010-05-28T23:16:00Z</time>
      </trkpt>
      <trkpt lat="45.12954" lon="5.06731">
        <ele>325</ele>
        <time>2010-05-28T23:16:20Z</time>
      </trkpt>
      <trkpt lat="45.12919" lon="5.06806">
        <ele>322</ele>
        <time>2010-05-28T23:16:45Z</time>
      </trkpt>
      <trkpt lat="45.12913" lon="5.06829">
        <ele>322</ele>
        <time>2010-05-28T23:16:52Z</time>
      </trkpt>
      <trkpt lat="45.12913" lon="5.06844">
        <ele>322</ele>
        <time>2010-05-28T23:16:56Z</time>
      </trkpt>
      <trkpt lat="45.12928" lon="5.06925">
        <ele>326</ele>
        <time>2010-05-28T23:17:20Z</time>
      </trkpt>
      <trkpt lat="45.12963" lon="5.07071">
        <ele>333</ele>
        <time>2010-05-28T23:18:04Z</time>
      </trkpt>
      <trkpt lat="45.12977" lon="5.07116">
        <ele>333</ele>
        <time>2010-05-28T23:18:17Z</time>
      </trkpt>
      <trkpt lat="45.1299" lon="5.0713">
        <ele>333</ele>
        <time>2010-05-28T23:18:24Z</time>
      </trkpt>
      <trkpt lat="45.13083" lon="5.07188">
        <ele>336</ele>
        <time>2010-05-28T23:19:05Z</time>
      </trkpt>
      <trkpt lat="45.1317" lon="5.07309">
        <ele>343</ele>
        <time>2010-05-28T23:19:53Z</time>
      </trkpt>
      <trkpt lat="45.1318" lon="5.0741">
        <ele>351</ele>
        <time>2010-05-28T23:20:22Z</time>
      </trkpt>
      <trkpt lat="45.13193" lon="5.07483">
        <ele>357</ele>
        <time>2010-05-28T23:20:44Z</time>
      </trkpt>
      <trkpt lat="45.13194" lon="5.07506">
        <ele>357</ele>
        <time>2010-05-28T23:20:50Z</time>
      </trkpt>
      <trkpt lat="45.13183" lon="5.07697">
        <ele>366</ele>
        <time>2010-05-28T23:21:44Z</time>
      </trkpt>
      <trkpt lat="45.13192" lon="5.08031">
        <ele>386</ele>
        <time>2010-05-28T23:23:19Z</time>
      </trkpt>
      <trkpt lat="45.13183" lon="5.08034">
        <ele>386</ele>
        <time>2010-05-28T23:23:22Z</time>
      </trkpt>
      <trkpt lat="45.1314" lon="5.07971">
        <ele>386</ele>
        <time>2010-05-28T23:23:47Z</time>
      </trkpt>
      <trkpt lat="45.13041" lon="5.07856">
        <ele>394</ele>
        <time>2010-05-28T23:24:38Z</time>
      </trkpt>
      <trkpt lat="45.13028" lon="5.07849">
        <ele>394</ele>
        <time>2010-05-28T23:24:44Z</time>
      </trkpt>
      <trkpt lat="45.13016" lon="5.07853">
        <ele>394</ele>
        <time>2010-05-28T23:24:49Z</time>
      </trkpt>
      <trkpt lat="45.13016" lon="5.07971">
        <ele>399</ele>
        <time>2010-05-28T23:25:22Z</time>
      </trkpt>
      <trkpt lat="45.1301" lon="5.08026">
        <ele>399</ele>
        <time>2010-05-28T23:25:38Z</time>
      </trkpt>
      <trkpt lat="45.12988" lon="5.08106">
        <ele>408</ele>
        <time>2010-05-28T23:26:02Z</time>
      </trkpt>
      <trkpt lat="45.12955" lon="5.08204">
        <ele>423</ele>
        <time>2010-05-28T23:26:33Z</time>
      </trkpt>
      <trkpt lat="45.1291" lon="5.08375">
        <ele>421</ele>
        <time>2010-05-28T23:27:24Z</time>
      </trkpt>
      <trkpt lat="45.12896" lon="5.08506">
        <ele>420</ele>
        <time>2010-05-28T23:28:02Z</time>
      </trkpt>
      <trkpt lat="45.12863" lon="5.08591">
        <ele>402</ele>
        <time>2010-05-28T23:28:29Z</time>
      </trkpt>
      <trkpt lat="45.1283" lon="5.08713">
        <ele>407</ele>
        <time>2010-05-28T23:29:06Z</time>
      </trkpt>
      <trkpt lat="45.12789" lon="5.08804">
        <ele>392</ele>
        <time>2010-05-28T23:29:36Z</time>
      </trkpt>
      <trkpt lat="45.12784" lon="5.08823">
        <ele>392</ele>
        <time>2010-05-28T23:29:42Z</time>
      </trkpt>
      <trkpt lat="45.12778" lon="5.08919">
        <ele>391</ele>
        <time>2010-05-28T23:30:09Z</time>
      </trkpt>
      <trkpt lat="45.12764" lon="5.08953">
        <ele>391</ele>
        <time>2010-05-28T23:30:21Z</time>
      </trkpt>
      <trkpt lat="45.12746" lon="5.08976">
        <ele>396</ele>
        <time>2010-05-28T23:30:30Z</time>
      </trkpt>
      <trkpt lat="45.12704" lon="5.08995">
        <ele>386</ele>
        <time>2010-05-28T23:30:48Z</time>
      </trkpt>
      <trkpt lat="45.12594" lon="5.09004">
        <ele>379</ele>
        <time>2010-05-28T23:31:32Z</time>
      </trkpt>
      <trkpt lat="45.1254" lon="5.09016">
        <ele>374</ele>
        <time>2010-05-28T23:31:54Z</time>
      </trkpt>
      <trkpt lat="45.12449" lon="5.09026">
        <ele>364</ele>
        <time>2010-05-28T23:32:30Z</time>
      </trkpt>
      <trkpt lat="45.12375" lon="5.09081">
        <ele>375</ele>
        <time>2010-05-28T23:33:04Z</time>
      </trkpt>
      <trkpt lat="45.12316" lon="5.09152">
        <ele>367</ele>
        <time>2010-05-28T23:33:35Z</time>
      </trkpt>
      <trkpt lat="45.12279" lon="5.09198">
        <ele>345</ele>
        <time>2010-05-28T23:33:55Z</time>
      </trkpt>
      <trkpt lat="45.12248" lon="5.09228">
        <ele>359</ele>
        <time>2010-05-28T23:34:10Z</time>
      </trkpt>
      <trkpt lat="45.12207" lon="5.09288">
        <ele>337</ele>
        <time>2010-05-28T23:34:33Z</time>
      </trkpt>
      <trkpt lat="45.12164" lon="5.09341">
        <ele>348</ele>
        <time>2010-05-28T23:34:56Z</time>
      </trkpt>
      <trkpt lat="45.12155" lon="5.09343">
        <ele>348</ele>
        <time>2010-05-28T23:35:00Z</time>
      </trkpt>
      <trkpt lat="45.12116" lon="5.0933">
        <ele>339</ele>
        <time>2010-05-28T23:35:16Z</time>
      </trkpt>
      <trkpt lat="45.12101" lon="5.09365">
        <ele>339</ele>
        <time>2010-05-28T23:35:27Z</time>
      </trkpt>
      <trkpt lat="45.121" lon="5.09396">
        <ele>341</ele>
        <time>2010-05-28T23:35:36Z</time>
      </trkpt>
      <trkpt lat="45.1211" lon="5.09423">
        <ele>341</ele>
        <time>2010-05-28T23:35:45Z</time>
      </trkpt>
      <trkpt lat="45.12105" lon="5.09461">
        <ele>345</ele>
        <time>2010-05-28T23:35:56Z</time>
      </trkpt>
      <trkpt lat="45.12058" lon="5.09555">
        <ele>355</ele>
        <time>2010-05-28T23:36:28Z</time>
      </trkpt>
      <trkpt lat="45.12025" lon="5.09641">
        <ele>346</ele>
        <time>2010-05-28T23:36:56Z</time>
      </trkpt>
      <trkpt lat="45.12012" lon="5.09697">
        <ele>346</ele>
        <time>2010-05-28T23:37:12Z</time>
      </trkpt>
      <trkpt lat="45.12015" lon="5.09727">
        <ele>348</ele>
        <time>2010-05-28T23:37:21Z</time>
      </trkpt>
      <trkpt lat="45.12028" lon="5.09747">
        <ele>348</ele>
        <time>2010-05-28T23:37:29Z</time>
      </trkpt>
      <trkpt lat="45.12052" lon="5.09737">
        <ele>360</ele>
        <time>2010-05-28T23:37:39Z</time>
      </trkpt>
      <trkpt lat="45.12072" lon="5.09719">
        <ele>360</ele>
        <time>2010-05-28T23:37:48Z</time>
      </trkpt>
      <trkpt lat="45.12101" lon="5.09681">
        <ele>362</ele>
        <time>2010-05-28T23:38:04Z</time>
      </trkpt>
      <trkpt lat="45.12116" lon="5.09653">
        <ele>362</ele>
        <time>2010-05-28T23:38:14Z</time>
      </trkpt>
      <trkpt lat="45.12126" lon="5.09646">
        <ele>375</ele>
        <time>2010-05-28T23:38:18Z</time>
      </trkpt>
      <trkpt lat="45.12132" lon="5.09662">
        <ele>375</ele>
        <time>2010-05-28T23:38:23Z</time>
      </trkpt>
      <trkpt lat="45.12148" lon="5.09679">
        <ele>375</ele>
        <time>2010-05-28T23:38:31Z</time>
      </trkpt>
      <trkpt lat="45.12241" lon="5.09766">
        <ele>378</ele>
        <time>2010-05-28T23:39:16Z</time>
      </trkpt>
      <trkpt lat="45.12263" lon="5.09785">
        <ele>378</ele>
        <time>2010-05-28T23:39:26Z</time>
      </trkpt>
      <trkpt lat="45.12281" lon="5.09787">
        <ele>378</ele>
        <time>2010-05-28T23:39:34Z</time>
      </trkpt>
      <trkpt lat="45.12303" lon="5.09768">
        <ele>382</ele>
        <time>2010-05-28T23:39:44Z</time>
      </trkpt>
      <trkpt lat="45.12335" lon="5.09724">
        <ele>382</ele>
        <time>2010-05-28T23:40:02Z</time>
      </trkpt>
      <trkpt lat="45.12349" lon="5.09743">
        <ele>382</ele>
        <time>2010-05-28T23:40:10Z</time>
      </trkpt>
      <trkpt lat="45.12386" lon="5.09812">
        <ele>383</ele>
        <time>2010-05-28T23:40:34Z</time>
      </trkpt>
      <trkpt lat="45.12433" lon="5.09879">
        <ele>381</ele>
        <time>2010-05-28T23:41:01Z</time>
      </trkpt>
      <trkpt lat="45.12481" lon="5.09805">
        <ele>387</ele>
        <time>2010-05-28T23:41:29Z</time>
      </trkpt>
      <trkpt lat="45.12518" lon="5.09783">
        <ele>398</ele>
        <time>2010-05-28T23:41:45Z</time>
      </trkpt>
      <trkpt lat="45.12576" lon="5.09758">
        <ele>393</ele>
        <time>2010-05-28T23:42:09Z</time>
      </trkpt>
      <trkpt lat="45.12596" lon="5.09738">
        <ele>393</ele>
        <time>2010-05-28T23:42:19Z</time>
      </trkpt>
      <trkpt lat="45.12638" lon="5.09667">
        <ele>397</ele>
        <time>2010-05-28T23:42:45Z</time>
      </trkpt>
      <trkpt lat="45.12673" lon="5.09654">
        <ele>397</ele>
        <time>2010-05-28T23:43:00Z</time>
      </trkpt>
      <trkpt lat="45.12717" lon="5.09625">
        <ele>400</ele>
        <time>2010-05-28T23:43:19Z</time>
      </trkpt>
      <trkpt lat="45.1273" lon="5.09626">
        <ele>400</ele>
        <time>2010-05-28T23:43:24Z</time>
      </trkpt>
      <trkpt lat="45.12787" lon="5.09699">
        <ele>400</ele>
        <time>2010-05-28T23:43:55Z</time>
      </trkpt>
      <trkpt lat="45.12833" lon="5.09737">
        <ele>396</ele>
        <time>2010-05-28T23:44:17Z</time>
      </trkpt>
      <trkpt lat="45.12852" lon="5.09739">
        <ele>396</ele>
        <time>2010-05-28T23:44:24Z</time>
      </trkpt>
      <trkpt lat="45.12879" lon="5.09731">
        <ele>392</ele>
        <time>2010-05-28T23:44:35Z</time>
      </trkpt>
      <trkpt lat="45.12921" lon="5.097">
        <ele>401</ele>
        <time>2010-05-28T23:44:54Z</time>
      </trkpt>
      <trkpt lat="45.12957" lon="5.09681">
        <ele>401</ele>
        <time>2010-05-28T23:45:10Z</time>
      </trkpt>
      <trkpt lat="45.1298" lon="5.09659">
        <ele>398</ele>
        <time>2010-05-28T23:45:21Z</time>
      </trkpt>
      <trkpt lat="45.12998" lon="5.09657">
        <ele>398</ele>
        <time>2010-05-28T23:45:28Z</time>
      </trkpt>
      <trkpt lat="45.1298" lon="5.09659">
        <ele>398</ele>
        <time>2010-05-28T23:45:35Z</time>
      </trkpt>
      <trkpt lat="45.12957" lon="5.09681">
        <ele>401</ele>
        <time>2010-05-28T23:45:46Z</time>
      </trkpt>
      <trkpt lat="45.12921" lon="5.097">
        <ele>401</ele>
        <time>2010-05-28T23:46:02Z</time>
      </trkpt>
      <trkpt lat="45.12879" lon="5.09731">
        <ele>392</ele>
        <time>2010-05-28T23:46:21Z</time>
      </trkpt>
      <trkpt lat="45.12852" lon="5.09739">
        <ele>396</ele>
        <time>2010-05-28T23:46:32Z</time>
      </trkpt>
      <trkpt lat="45.12833" lon="5.09737">
        <ele>396</ele>
        <time>2010-05-28T23:46:39Z</time>
      </trkpt>
      <trkpt lat="45.12787" lon="5.09699">
        <ele>400</ele>
        <time>2010-05-28T23:47:01Z</time>
      </trkpt>
      <trkpt lat="45.1273" lon="5.09626">
        <ele>400</ele>
        <time>2010-05-28T23:47:31Z</time>
      </trkpt>
      <trkpt lat="45.12717" lon="5.09625">
        <ele>400</ele>
        <time>2010-05-28T23:47:37Z</time>
      </trkpt>
      <trkpt lat="45.12673" lon="5.09654">
        <ele>397</ele>
        <time>2010-05-28T23:47:56Z</time>
      </trkpt>
      <trkpt lat="45.12638" lon="5.09667">
        <ele>397</ele>
        <time>2010-05-28T23:48:10Z</time>
      </trkpt>
      <trkpt lat="45.12596" lon="5.09738">
        <ele>393</ele>
        <time>2010-05-28T23:48:37Z</time>
      </trkpt>
      <trkpt lat="45.12576" lon="5.09758">
        <ele>393</ele>
        <time>2010-05-28T23:48:46Z</time>
      </trkpt>
      <trkpt lat="45.12488" lon="5.09798">
        <ele>387</ele>
        <time>2010-05-28T23:49:23Z</time>
      </trkpt>
      <trkpt lat="45.12433" lon="5.09879">
        <ele>381</ele>
        <time>2010-05-28T23:49:55Z</time>
      </trkpt>
      <trkpt lat="45.12386" lon="5.09812">
        <ele>383</ele>
        <time>2010-05-28T23:50:22Z</time>
      </trkpt>
      <trkpt lat="45.12349" lon="5.09743">
        <ele>382</ele>
        <time>2010-05-28T23:50:46Z</time>
      </trkpt>
      <trkpt lat="45.12335" lon="5.09724">
        <ele>382</ele>
        <time>2010-05-28T23:50:54Z</time>
      </trkpt>
      <trkpt lat="45.12287" lon="5.09784">
        <ele>378</ele>
        <time>2010-05-28T23:51:20Z</time>
      </trkpt>
      <trkpt lat="45.12263" lon="5.09785">
        <ele>378</ele>
        <time>2010-05-28T23:51:29Z</time>
      </trkpt>
      <trkpt lat="45.12148" lon="5.09679">
        <ele>375</ele>
        <time>2010-05-28T23:52:24Z</time>
      </trkpt>
      <trkpt lat="45.12132" lon="5.09662">
        <ele>375</ele>
        <time>2010-05-28T23:52:32Z</time>
      </trkpt>
      <trkpt lat="45.12126" lon="5.09646">
        <ele>375</ele>
        <time>2010-05-28T23:52:37Z</time>
      </trkpt>
      <trkpt lat="45.12116" lon="5.09653">
        <ele>362</ele>
        <time>2010-05-28T23:52:42Z</time>
      </trkpt>
      <trkpt lat="45.12101" lon="5.09681">
        <ele>362</ele>
        <time>2010-05-28T23:52:52Z</time>
      </trkpt>
      <trkpt lat="45.12072" lon="5.09719">
        <ele>360</ele>
        <time>2010-05-28T23:53:08Z</time>
      </trkpt>
      <trkpt lat="45.12052" lon="5.09737">
        <ele>360</ele>
        <time>2010-05-28T23:53:17Z</time>
      </trkpt>
      <trkpt lat="45.12028" lon="5.09747">
        <ele>348</ele>
        <time>2010-05-28T23:53:27Z</time>
      </trkpt>
      <trkpt lat="45.12012" lon="5.09788">
        <ele>348</ele>
        <time>2010-05-28T23:53:40Z</time>
      </trkpt>
      <trkpt lat="45.11999" lon="5.09808">
        <ele>341</ele>
        <time>2010-05-28T23:53:48Z</time>
      </trkpt>
      <trkpt lat="45.11994" lon="5.09827">
        <ele>341</ele>
        <time>2010-05-28T23:53:54Z</time>
      </trkpt>
      <trkpt lat="45.12002" lon="5.09862">
        <ele>341</ele>
        <time>2010-05-28T23:54:04Z</time>
      </trkpt>
      <trkpt lat="45.12038" lon="5.09952">
        <ele>329</ele>
        <time>2010-05-28T23:54:33Z</time>
      </trkpt>
      <trkpt lat="45.12039" lon="5.0997">
        <ele>320</ele>
        <time>2010-05-28T23:54:38Z</time>
      </trkpt>
      <trkpt lat="45.12026" lon="5.10008">
        <ele>320</ele>
        <time>2010-05-28T23:54:50Z</time>
      </trkpt>
      <trkpt lat="45.11981" lon="5.10008">
        <ele>320</ele>
        <time>2010-05-28T23:55:08Z</time>
      </trkpt>
      <trkpt lat="45.1195" lon="5.09999">
        <ele>309</ele>
        <time>2010-05-28T23:55:21Z</time>
      </trkpt>
      <trkpt lat="45.11934" lon="5.09987">
        <ele>309</ele>
        <time>2010-05-28T23:55:28Z</time>
      </trkpt>
      <trkpt lat="45.11915" lon="5.09984">
        <ele>309</ele>
        <time>2010-05-28T23:55:36Z</time>
      </trkpt>
      <trkpt lat="45.11844" lon="5.10012">
        <ele>299</ele>
        <time>2010-05-28T23:56:05Z</time>
      </trkpt>
      <trkpt lat="45.11797" lon="5.10018">
        <ele>299</ele>
        <time>2010-05-28T23:56:24Z</time>
      </trkpt>
      <trkpt lat="45.11772" lon="5.10027">
        <ele>288</ele>
        <time>2010-05-28T23:56:35Z</time>
      </trkpt>
      <trkpt lat="45.1171" lon="5.10065">
        <ele>282</ele>
        <time>2010-05-28T23:57:02Z</time>
      </trkpt>
      <trkpt lat="45.11772" lon="5.10218">
        <ele>281</ele>
        <time>2010-05-28T23:57:51Z</time>
      </trkpt>
      <trkpt lat="45.11807" lon="5.1028">
        <ele>284</ele>
        <time>2010-05-28T23:58:14Z</time>
      </trkpt>
      <trkpt lat="45.11921" lon="5.10455">
        <ele>285</ele>
        <time>2010-05-28T23:59:21Z</time>
      </trkpt>
      <trkpt lat="45.1195" lon="5.10512">
        <ele>283</ele>
        <time>2010-05-28T23:59:41Z</time>
      </trkpt>
      <trkpt lat="45.11976" lon="5.10575">
        <ele>287</ele>
        <time>2010-05-29T00:00:02Z</time>
      </trkpt>
      <trkpt lat="45.1199" lon="5.10598">
        <ele>287</ele>
        <time>2010-05-29T00:00:10Z</time>
      </trkpt>
      <trkpt lat="45.12141" lon="5.10718">
        <ele>291</ele>
        <time>2010-05-29T00:01:20Z</time>
      </trkpt>
      <trkpt lat="45.122" lon="5.10759">
        <ele>291</ele>
        <time>2010-05-29T00:01:46Z</time>
      </trkpt>
      <trkpt lat="45.12225" lon="5.10769">
        <ele>302</ele>
        <time>2010-05-29T00:01:56Z</time>
      </trkpt>
      <trkpt lat="45.12235" lon="5.10768">
        <ele>302</ele>
        <time>2010-05-29T00:02:00Z</time>
      </trkpt>
      <trkpt lat="45.12324" lon="5.10732">
        <ele>298</ele>
        <time>2010-05-29T00:02:37Z</time>
      </trkpt>
      <trkpt lat="45.12548" lon="5.10698">
        <ele>296</ele>
        <time>2010-05-29T00:04:07Z</time>
      </trkpt>
      <trkpt lat="45.12622" lon="5.10694">
        <ele>296</ele>
        <time>2010-05-29T00:04:37Z</time>
      </trkpt>
      <trkpt lat="45.12832" lon="5.10704">
        <ele>299</ele>
        <time>2010-05-29T00:06:01Z</time>
      </trkpt>
      <trkpt lat="45.12844" lon="5.10707">
        <ele>299</ele>
        <time>2010-05-29T00:06:06Z</time>
      </trkpt>
      <trkpt lat="45.12875" lon="5.10729">
        <ele>293</ele>
        <time>2010-05-29T00:06:20Z</time>
      </trkpt>
      <trkpt lat="45.12927" lon="5.10774">
        <ele>297</ele>
        <time>2010-05-29T00:06:44Z</time>
      </trkpt>
      <trkpt lat="45.13213" lon="5.11062">
        <ele>311</ele>
        <time>2010-05-29T00:09:05Z</time>
      </trkpt>
      <trkpt lat="45.13395" lon="5.11226">
        <ele>315</ele>
        <time>2010-05-29T00:10:31Z</time>
      </trkpt>
      <trkpt lat="45.13552" lon="5.11348">
        <ele>318</ele>
        <time>2010-05-29T00:11:43Z</time>
      </trkpt>
      <trkpt lat="45.13966" lon="5.11687">
        <ele>332</ele>
        <time>2010-05-29T00:14:54Z</time>
      </trkpt>
      <trkpt lat="45.14234" lon="5.119">
        <ele>335</ele>
        <time>2010-05-29T00:16:57Z</time>
      </trkpt>
      <trkpt lat="45.14237" lon="5.11907">
        <ele>335</ele>
        <time>2010-05-29T00:16:59Z</time>
      </trkpt>
      <trkpt lat="45.14359" lon="5.11996">
        <ele>336</ele>
        <time>2010-05-29T00:17:54Z</time>
      </trkpt>
      <trkpt lat="45.144" lon="5.12047">
        <ele>337</ele>
        <time>2010-05-29T00:18:16Z</time>
      </trkpt>
      <trkpt lat="45.14495" lon="5.12186">
        <ele>338</ele>
        <time>2010-05-29T00:19:11Z</time>
      </trkpt>
      <trkpt lat="45.14531" lon="5.1223">
        <ele>335</ele>
        <time>2010-05-29T00:19:30Z</time>
      </trkpt>
      <trkpt lat="45.14641" lon="5.1232">
        <ele>336</ele>
        <time>2010-05-29T00:20:21Z</time>
      </trkpt>
      <trkpt lat="45.14797" lon="5.12499">
        <ele>341</ele>
        <time>2010-05-29T00:21:41Z</time>
      </trkpt>
      <trkpt lat="45.14824" lon="5.12542">
        <ele>341</ele>
        <time>2010-05-29T00:21:57Z</time>
      </trkpt>
      <trkpt lat="45.1497" lon="5.12827">
        <ele>350</ele>
        <time>2010-05-29T00:23:37Z</time>
      </trkpt>
      <trkpt lat="45.15279" lon="5.13432">
        <ele>363</ele>
        <time>2010-05-29T00:27:08Z</time>
      </trkpt>
      <trkpt lat="45.15315" lon="5.13517">
        <ele>372</ele>
        <time>2010-05-29T00:27:36Z</time>
      </trkpt>
      <trkpt lat="45.15334" lon="5.13585">
        <ele>370</ele>
        <time>2010-05-29T00:27:56Z</time>
      </trkpt>
      <trkpt lat="45.15348" lon="5.13672">
        <ele>369</ele>
        <time>2010-05-29T00:28:22Z</time>
      </trkpt>
      <trkpt lat="45.15396" lon="5.14074">
        <ele>377</ele>
        <time>2010-05-29T00:30:17Z</time>
      </trkpt>
      <trkpt lat="45.15393" lon="5.14098">
        <ele>377</ele>
        <time>2010-05-29T00:30:23Z</time>
      </trkpt>
      <trkpt lat="45.15369" lon="5.14172">
        <ele>382</ele>
        <time>2010-05-29T00:30:46Z</time>
      </trkpt>
      <trkpt lat="45.15347" lon="5.14272">
        <ele>381</ele>
        <time>2010-05-29T00:31:16Z</time>
      </trkpt>
      <trkpt lat="45.1533" lon="5.14381">
        <ele>381</ele>
        <time>2010-05-29T00:31:48Z</time>
      </trkpt>
      <trkpt lat="45.15333" lon="5.1446">
        <ele>387</ele>
        <time>2010-05-29T00:32:10Z</time>
      </trkpt>
      <trkpt lat="45.15353" lon="5.14534">
        <ele>387</ele>
        <time>2010-05-29T00:32:32Z</time>
      </trkpt>
      <trkpt lat="45.15531" lon="5.14826">
        <ele>396</ele>
        <time>2010-05-29T00:34:21Z</time>
      </trkpt>
      <trkpt lat="45.15571" lon="5.149">
        <ele>403</ele>
        <time>2010-05-29T00:34:48Z</time>
      </trkpt>
      <trkpt lat="45.15592" lon="5.1496">
        <ele>405</ele>
        <time>2010-05-29T00:35:06Z</time>
      </trkpt>
      <trkpt lat="45.15609" lon="5.15034">
        <ele>405</ele>
        <time>2010-05-29T00:35:28Z</time>
      </trkpt>
      <trkpt lat="45.15623" lon="5.1526">
        <ele>404</ele>
        <time>2010-05-29T00:36:32Z</time>
      </trkpt>
      <trkpt lat="45.15658" lon="5.15424">
        <ele>414</ele>
        <time>2010-05-29T00:37:21Z</time>
      </trkpt>
      <trkpt lat="45.15664" lon="5.15584">
        <ele>420</ele>
        <time>2010-05-29T00:38:06Z</time>
      </trkpt>
      <trkpt lat="45.15681" lon="5.15701">
        <ele>424</ele>
        <time>2010-05-29T00:38:40Z</time>
      </trkpt>
      <trkpt lat="45.15714" lon="5.15809">
        <ele>422</ele>
        <time>2010-05-29T00:39:13Z</time>
      </trkpt>
      <trkpt lat="45.15733" lon="5.15845">
        <ele>422</ele>
        <time>2010-05-29T00:39:26Z</time>
      </trkpt>
      <trkpt lat="45.15756" lon="5.15873">
        <ele>422</ele>
        <time>2010-05-29T00:39:38Z</time>
      </trkpt>
      <trkpt lat="45.15771" lon="5.15909">
        <ele>431</ele>
        <time>2010-05-29T00:39:50Z</time>
      </trkpt>
      <trkpt lat="45.158" lon="5.16049">
        <ele>431</ele>
        <time>2010-05-29T00:40:31Z</time>
      </trkpt>
      <trkpt lat="45.15806" lon="5.16137">
        <ele>429</ele>
        <time>2010-05-29T00:40:56Z</time>
      </trkpt>
      <trkpt lat="45.15798" lon="5.16288">
        <ele>431</ele>
        <time>2010-05-29T00:41:39Z</time>
      </trkpt>
      <trkpt lat="45.15799" lon="5.16338">
        <ele>433</ele>
        <time>2010-05-29T00:41:53Z</time>
      </trkpt>
      <trkpt lat="45.15821" lon="5.1647">
        <ele>438</ele>
        <time>2010-05-29T00:42:31Z</time>
      </trkpt>
      <trkpt lat="45.15826" lon="5.16526">
        <ele>438</ele>
        <time>2010-05-29T00:42:47Z</time>
      </trkpt>
      <trkpt lat="45.15806" lon="5.16672">
        <ele>441</ele>
        <time>2010-05-29T00:43:29Z</time>
      </trkpt>
      <trkpt lat="45.15836" lon="5.16764">
        <ele>449</ele>
        <time>2010-05-29T00:43:57Z</time>
      </trkpt>
      <trkpt lat="45.15852" lon="5.16867">
        <ele>455</ele>
        <time>2010-05-29T00:44:27Z</time>
      </trkpt>
      <trkpt lat="45.15885" lon="5.1702">
        <ele>447</ele>
        <time>2010-05-29T00:45:12Z</time>
      </trkpt>
      <trkpt lat="45.15897" lon="5.17167">
        <ele>452</ele>
        <time>2010-05-29T00:45:54Z</time>
      </trkpt>
      <trkpt lat="45.15897" lon="5.17284">
        <ele>455</ele>
        <time>2010-05-29T00:46:27Z</time>
      </trkpt>
      <trkpt lat="45.1593" lon="5.17484">
        <ele>455</ele>
        <time>2010-05-29T00:47:25Z</time>
      </trkpt>
      <trkpt lat="45.15961" lon="5.17604">
        <ele>465</ele>
        <time>2010-05-29T00:48:01Z</time>
      </trkpt>
      <trkpt lat="45.15993" lon="5.17687">
        <ele>467</ele>
        <time>2010-05-29T00:48:28Z</time>
      </trkpt>
      <trkpt lat="45.15998" lon="5.17711">
        <ele>467</ele>
        <time>2010-05-29T00:48:35Z</time>
      </trkpt>
      <trkpt lat="45.15999" lon="5.17741">
        <ele>467</ele>
        <time>2010-05-29T00:48:43Z</time>
      </trkpt>
      <trkpt lat="45.1599" lon="5.17805">
        <ele>470</ele>
        <time>2010-05-29T00:49:02Z</time>
      </trkpt>
      <trkpt lat="45.15964" lon="5.179">
        <ele>476</ele>
        <time>2010-05-29T00:49:31Z</time>
      </trkpt>
      <trkpt lat="45.15958" lon="5.17994">
        <ele>457</ele>
        <time>2010-05-29T00:49:57Z</time>
      </trkpt>
      <trkpt lat="45.15932" lon="5.1809">
        <ele>468</ele>
        <time>2010-05-29T00:50:26Z</time>
      </trkpt>
      <trkpt lat="45.15871" lon="5.18199">
        <ele>457</ele>
        <time>2010-05-29T00:51:06Z</time>
      </trkpt>
      <trkpt lat="45.15866" lon="5.18216">
        <ele>467</ele>
        <time>2010-05-29T00:51:11Z</time>
      </trkpt>
      <trkpt lat="45.15863" lon="5.1825">
        <ele>467</ele>
        <time>2010-05-29T00:51:20Z</time>
      </trkpt>
      <trkpt lat="45.15833" lon="5.18289">
        <ele>467</ele>
        <time>2010-05-29T00:51:37Z</time>
      </trkpt>
      <trkpt lat="45.15808" lon="5.18341">
        <ele>476</ele>
        <time>2010-05-29T00:51:55Z</time>
      </trkpt>
      <trkpt lat="45.15799" lon="5.18377">
        <ele>477</ele>
        <time>2010-05-29T00:52:05Z</time>
      </trkpt>
      <trkpt lat="45.15808" lon="5.18396">
        <ele>477</ele>
        <time>2010-05-29T00:52:12Z</time>
      </trkpt>
      <trkpt lat="45.15872" lon="5.18449">
        <ele>477</ele>
        <time>2010-05-29T00:52:41Z</time>
      </trkpt>
      <trkpt lat="45.15908" lon="5.18504">
        <ele>478</ele>
        <time>2010-05-29T00:53:03Z</time>
      </trkpt>
      <trkpt lat="45.15952" lon="5.18523">
        <ele>478</ele>
        <time>2010-05-29T00:53:21Z</time>
      </trkpt>
      <trkpt lat="45.15971" lon="5.18537">
        <ele>493</ele>
        <time>2010-05-29T00:53:30Z</time>
      </trkpt>
      <trkpt lat="45.15994" lon="5.18575">
        <ele>482</ele>
        <time>2010-05-29T00:53:44Z</time>
      </trkpt>
      <trkpt lat="45.1601" lon="5.18612">
        <ele>482</ele>
        <time>2010-05-29T00:53:56Z</time>
      </trkpt>
      <trkpt lat="45.16041" lon="5.18688">
        <ele>474</ele>
        <time>2010-05-29T00:54:21Z</time>
      </trkpt>
      <trkpt lat="45.16052" lon="5.18725">
        <ele>492</ele>
        <time>2010-05-29T00:54:32Z</time>
      </trkpt>
      <trkpt lat="45.16056" lon="5.18753">
        <ele>492</ele>
        <time>2010-05-29T00:54:40Z</time>
      </trkpt>
      <trkpt lat="45.16053" lon="5.18798">
        <ele>491</ele>
        <time>2010-05-29T00:54:53Z</time>
      </trkpt>
      <trkpt lat="45.16034" lon="5.18903">
        <ele>470</ele>
        <time>2010-05-29T00:55:24Z</time>
      </trkpt>
      <trkpt lat="45.16022" lon="5.18945">
        <ele>470</ele>
        <time>2010-05-29T00:55:36Z</time>
      </trkpt>
      <trkpt lat="45.1598" lon="5.19047">
        <ele>477</ele>
        <time>2010-05-29T00:56:10Z</time>
      </trkpt>
      <trkpt lat="45.1598" lon="5.1907">
        <ele>477</ele>
        <time>2010-05-29T00:56:16Z</time>
      </trkpt>
      <trkpt lat="45.16008" lon="5.19132">
        <ele>470</ele>
        <time>2010-05-29T00:56:37Z</time>
      </trkpt>
      <trkpt lat="45.16033" lon="5.19175">
        <ele>470</ele>
        <time>2010-05-29T00:56:53Z</time>
      </trkpt>
      <trkpt lat="45.1606" lon="5.1921">
        <ele>478</ele>
        <time>2010-05-29T00:57:07Z</time>
      </trkpt>
      <trkpt lat="45.16104" lon="5.19268">
        <ele>478</ele>
        <time>2010-05-29T00:57:31Z</time>
      </trkpt>
      <trkpt lat="45.1615" lon="5.19338">
        <ele>491</ele>
        <time>2010-05-29T00:57:58Z</time>
      </trkpt>
      <trkpt lat="45.16182" lon="5.19396">
        <ele>478</ele>
        <time>2010-05-29T00:58:19Z</time>
      </trkpt>
      <trkpt lat="45.1621" lon="5.19477">
        <ele>490</ele>
        <time>2010-05-29T00:58:45Z</time>
      </trkpt>
      <trkpt lat="45.16249" lon="5.19527">
        <ele>490</ele>
        <time>2010-05-29T00:59:06Z</time>
      </trkpt>
      <trkpt lat="45.16263" lon="5.19556">
        <ele>479</ele>
        <time>2010-05-29T00:59:16Z</time>
      </trkpt>
      <trkpt lat="45.16312" lon="5.20036">
        <ele>484</ele>
        <time>2010-05-29T01:01:32Z</time>
      </trkpt>
      <trkpt lat="45.16297" lon="5.20155">
        <ele>482</ele>
        <time>2010-05-29T01:02:07Z</time>
      </trkpt>
      <trkpt lat="45.16297" lon="5.20196">
        <ele>482</ele>
        <time>2010-05-29T01:02:18Z</time>
      </trkpt>
      <trkpt lat="45.1634" lon="5.20203">
        <ele>482</ele>
        <time>2010-05-29T01:02:36Z</time>
      </trkpt>
      <trkpt lat="45.16628" lon="5.20206">
        <ele>482</ele>
        <time>2010-05-29T01:04:31Z</time>
      </trkpt>
      <trkpt lat="45.16641" lon="5.2018">
        <ele>482</ele>
        <time>2010-05-29T01:04:40Z</time>
      </trkpt>
      <trkpt lat="45.1666" lon="5.20078">
        <ele>492</ele>
        <time>2010-05-29T01:05:10Z</time>
      </trkpt>
      <trkpt lat="45.16669" lon="5.20051">
        <ele>492</ele>
        <time>2010-05-29T01:05:18Z</time>
      </trkpt>
      <trkpt lat="45.16697" lon="5.20013">
        <ele>500</ele>
        <time>2010-05-29T01:05:34Z</time>
      </trkpt>
      <trkpt lat="45.1672" lon="5.20003">
        <ele>492</ele>
        <time>2010-05-29T01:05:43Z</time>
      </trkpt>
      <trkpt lat="45.16757" lon="5.2">
        <ele>492</ele>
        <time>2010-05-29T01:05:58Z</time>
      </trkpt>
      <trkpt lat="45.16884" lon="5.20006">
        <ele>497</ele>
        <time>2010-05-29T01:06:49Z</time>
      </trkpt>
      <trkpt lat="45.16961" lon="5.20113">
        <ele>499</ele>
        <time>2010-05-29T01:07:32Z</time>
      </trkpt>
      <trkpt lat="45.16989" lon="5.20139">
        <ele>487</ele>
        <time>2010-05-29T01:07:45Z</time>
      </trkpt>
      <trkpt lat="45.17007" lon="5.20147">
        <ele>487</ele>
        <time>2010-05-29T01:07:53Z</time>
      </trkpt>
      <trkpt lat="45.17049" lon="5.20145">
        <ele>488</ele>
        <time>2010-05-29T01:08:10Z</time>
      </trkpt>
      <trkpt lat="45.17063" lon="5.20137">
        <ele>488</ele>
        <time>2010-05-29T01:08:16Z</time>
      </trkpt>
      <trkpt lat="45.17146" lon="5.2005">
        <ele>491</ele>
        <time>2010-05-29T01:08:57Z</time>
      </trkpt>
      <trkpt lat="45.17164" lon="5.20047">
        <ele>491</ele>
        <time>2010-05-29T01:09:04Z</time>
      </trkpt>
      <trkpt lat="45.17215" lon="5.20051">
        <ele>483</ele>
        <time>2010-05-29T01:09:25Z</time>
      </trkpt>
      <trkpt lat="45.17236" lon="5.20046">
        <ele>483</ele>
        <time>2010-05-29T01:09:33Z</time>
      </trkpt>
      <trkpt lat="45.17257" lon="5.20043">
        <ele>483</ele>
        <time>2010-05-29T01:09:42Z</time>
      </trkpt>
      <trkpt lat="45.17313" lon="5.20009">
        <ele>487</ele>
        <time>2010-05-29T01:10:06Z</time>
      </trkpt>
      <trkpt lat="45.17376" lon="5.19961">
        <ele>477</ele>
        <time>2010-05-29T01:10:35Z</time>
      </trkpt>
      <trkpt lat="45.17399" lon="5.19961">
        <ele>477</ele>
        <time>2010-05-29T01:10:44Z</time>
      </trkpt>
      <trkpt lat="45.17409" lon="5.19966">
        <ele>477</ele>
        <time>2010-05-29T01:10:48Z</time>
      </trkpt>
      <trkpt lat="45.17486" lon="5.20053">
        <ele>468</ele>
        <time>2010-05-29T01:11:28Z</time>
      </trkpt>
      <trkpt lat="45.17512" lon="5.20092">
        <ele>468</ele>
        <time>2010-05-29T01:11:43Z</time>
      </trkpt>
      <trkpt lat="45.17529" lon="5.20133">
        <ele>460</ele>
        <time>2010-05-29T01:11:56Z</time>
      </trkpt>
      <trkpt lat="45.1757" lon="5.20257">
        <ele>462</ele>
        <time>2010-05-29T01:12:35Z</time>
      </trkpt>
      <trkpt lat="45.17574" lon="5.20328">
        <ele>457</ele>
        <time>2010-05-29T01:12:55Z</time>
      </trkpt>
      <trkpt lat="45.17584" lon="5.20369">
        <ele>457</ele>
        <time>2010-05-29T01:13:07Z</time>
      </trkpt>
      <trkpt lat="45.17605" lon="5.20401">
        <ele>450</ele>
        <time>2010-05-29T01:13:20Z</time>
      </trkpt>
      <trkpt lat="45.17673" lon="5.20473">
        <ele>442</ele>
        <time>2010-05-29T01:13:54Z</time>
      </trkpt>
      <trkpt lat="45.17749" lon="5.20564">
        <ele>439</ele>
        <time>2010-05-29T01:14:33Z</time>
      </trkpt>
      <trkpt lat="45.17763" lon="5.20585">
        <ele>439</ele>
        <time>2010-05-29T01:14:41Z</time>
      </trkpt>
      <trkpt lat="45.17771" lon="5.20606">
        <ele>439</ele>
        <time>2010-05-29T01:14:48Z</time>
      </trkpt>
      <trkpt lat="45.17772" lon="5.20632">
        <ele>434</ele>
        <time>2010-05-29T01:14:56Z</time>
      </trkpt>
      <trkpt lat="45.17759" lon="5.20702">
        <ele>434</ele>
        <time>2010-05-29T01:15:16Z</time>
      </trkpt>
      <trkpt lat="45.17757" lon="5.20838">
        <ele>428</ele>
        <time>2010-05-29T01:15:54Z</time>
      </trkpt>
      <trkpt lat="45.17775" lon="5.2087">
        <ele>428</ele>
        <time>2010-05-29T01:16:06Z</time>
      </trkpt>
      <trkpt lat="45.17812" lon="5.20904">
        <ele>423</ele>
        <time>2010-05-29T01:16:24Z</time>
      </trkpt>
      <trkpt lat="45.17849" lon="5.20964">
        <ele>422</ele>
        <time>2010-05-29T01:16:46Z</time>
      </trkpt>
      <trkpt lat="45.17877" lon="5.21036">
        <ele>414</ele>
        <time>2010-05-29T01:17:09Z</time>
      </trkpt>
      <trkpt lat="45.17886" lon="5.21087">
        <ele>404</ele>
        <time>2010-05-29T01:17:24Z</time>
      </trkpt>
      <trkpt lat="45.17886" lon="5.21109">
        <ele>404</ele>
        <time>2010-05-29T01:17:30Z</time>
      </trkpt>
      <trkpt lat="45.1788" lon="5.21142">
        <ele>397</ele>
        <time>2010-05-29T01:17:40Z</time>
      </trkpt>
      <trkpt lat="45.17866" lon="5.21169">
        <ele>400</ele>
        <time>2010-05-29T01:17:49Z</time>
      </trkpt>
      <trkpt lat="45.17712" lon="5.21246">
        <ele>387</ele>
        <time>2010-05-29T01:18:55Z</time>
      </trkpt>
      <trkpt lat="45.17617" lon="5.21317">
        <ele>381</ele>
        <time>2010-05-29T01:19:38Z</time>
      </trkpt>
      <trkpt lat="45.1754" lon="5.21375">
        <ele>374</ele>
        <time>2010-05-29T01:20:13Z</time>
      </trkpt>
      <trkpt lat="45.17497" lon="5.21398">
        <ele>374</ele>
        <time>2010-05-29T01:20:31Z</time>
      </trkpt>
      <trkpt lat="45.17433" lon="5.21462">
        <ele>369</ele>
        <time>2010-05-29T01:21:02Z</time>
      </trkpt>
      <trkpt lat="45.17414" lon="5.21484">
        <ele>369</ele>
        <time>2010-05-29T01:21:12Z</time>
      </trkpt>
      <trkpt lat="45.17409" lon="5.21497">
        <ele>369</ele>
        <time>2010-05-29T01:21:16Z</time>
      </trkpt>
      <trkpt lat="45.1741" lon="5.21514">
        <ele>369</ele>
        <time>2010-05-29T01:21:21Z</time>
      </trkpt>
      <trkpt lat="45.17419" lon="5.21526">
        <ele>369</ele>
        <time>2010-05-29T01:21:26Z</time>
      </trkpt>
      <trkpt lat="45.17433" lon="5.21535">
        <ele>369</ele>
        <time>2010-05-29T01:21:32Z</time>
      </trkpt>
      <trkpt lat="45.1748" lon="5.21543">
        <ele>363</ele>
        <time>2010-05-29T01:21:51Z</time>
      </trkpt>
      <trkpt lat="45.17472" lon="5.21573">
        <ele>363</ele>
        <time>2010-05-29T01:22:00Z</time>
      </trkpt>
      <trkpt lat="45.17425" lon="5.21661">
        <ele>357</ele>
        <time>2010-05-29T01:22:31Z</time>
      </trkpt>
      <trkpt lat="45.17344" lon="5.21829">
        <ele>353</ele>
        <time>2010-05-29T01:23:29Z</time>
      </trkpt>
      <trkpt lat="45.1733" lon="5.21872">
        <ele>353</ele>
        <time>2010-05-29T01:23:42Z</time>
      </trkpt>
      <trkpt lat="45.17335" lon="5.22236">
        <ele>353</ele>
        <time>2010-05-29T01:25:25Z</time>
      </trkpt>
      <trkpt lat="45.17331" lon="5.22272">
        <ele>353</ele>
        <time>2010-05-29T01:25:35Z</time>
      </trkpt>
      <trkpt lat="45.17307" lon="5.22313">
        <ele>355</ele>
        <time>2010-05-29T01:25:50Z</time>
      </trkpt>
      <trkpt lat="45.17208" lon="5.22454">
        <ele>345</ele>
        <time>2010-05-29T01:26:46Z</time>
      </trkpt>
      <trkpt lat="45.17174" lon="5.22494">
        <ele>353</ele>
        <time>2010-05-29T01:27:04Z</time>
      </trkpt>
      <trkpt lat="45.17168" lon="5.22528">
        <ele>353</ele>
        <time>2010-05-29T01:27:14Z</time>
      </trkpt>
      <trkpt lat="45.17169" lon="5.22603">
        <ele>356</ele>
        <time>2010-05-29T01:27:35Z</time>
      </trkpt>
      <trkpt lat="45.17162" lon="5.22637">
        <ele>361</ele>
        <time>2010-05-29T01:27:45Z</time>
      </trkpt>
      <trkpt lat="45.17099" lon="5.22772">
        <ele>366</ele>
        <time>2010-05-29T01:28:31Z</time>
      </trkpt>
      <trkpt lat="45.17071" lon="5.22848">
        <ele>371</ele>
        <time>2010-05-29T01:28:55Z</time>
      </trkpt>
      <trkpt lat="45.17016" lon="5.22923">
        <ele>369</ele>
        <time>2010-05-29T01:29:26Z</time>
      </trkpt>
      <trkpt lat="45.16916" lon="5.23036">
        <ele>370</ele>
        <time>2010-05-29T01:30:17Z</time>
      </trkpt>
      <trkpt lat="45.16922" lon="5.23065">
        <ele>371</ele>
        <time>2010-05-29T01:30:25Z</time>
      </trkpt>
      <trkpt lat="45.16924" lon="5.23109">
        <ele>371</ele>
        <time>2010-05-29T01:30:38Z</time>
      </trkpt>
      <trkpt lat="45.16922" lon="5.23156">
        <ele>373</ele>
        <time>2010-05-29T01:30:51Z</time>
      </trkpt>
      <trkpt lat="45.16912" lon="5.23202">
        <ele>373</ele>
        <time>2010-05-29T01:31:05Z</time>
      </trkpt>
      <trkpt lat="45.16895" lon="5.23238">
        <ele>375</ele>
        <time>2010-05-29T01:31:17Z</time>
      </trkpt>
      <trkpt lat="45.16835" lon="5.2334">
        <ele>369</ele>
        <time>2010-05-29T01:31:54Z</time>
      </trkpt>
      <trkpt lat="45.16826" lon="5.23369">
        <ele>369</ele>
        <time>2010-05-29T01:32:03Z</time>
      </trkpt>
      <trkpt lat="45.16825" lon="5.23388">
        <ele>367</ele>
        <time>2010-05-29T01:32:09Z</time>
      </trkpt>
      <trkpt lat="45.16831" lon="5.23413">
        <ele>367</ele>
        <time>2010-05-29T01:32:16Z</time>
      </trkpt>
      <trkpt lat="45.1686" lon="5.23446">
        <ele>367</ele>
        <time>2010-05-29T01:32:31Z</time>
      </trkpt>
      <trkpt lat="45.16938" lon="5.23473">
        <ele>357</ele>
        <time>2010-05-29T01:33:03Z</time>
      </trkpt>
      <trkpt lat="45.16966" lon="5.23495">
        <ele>360</ele>
        <time>2010-05-29T01:33:16Z</time>
      </trkpt>
      <trkpt lat="45.16978" lon="5.23533">
        <ele>360</ele>
        <time>2010-05-29T01:33:28Z</time>
      </trkpt>
      <trkpt lat="45.1699" lon="5.23606">
        <ele>352</ele>
        <time>2010-05-29T01:33:49Z</time>
      </trkpt>
      <trkpt lat="45.1699" lon="5.2362">
        <ele>352</ele>
        <time>2010-05-29T01:33:53Z</time>
      </trkpt>
      <trkpt lat="45.16976" lon="5.23648">
        <ele>352</ele>
        <time>2010-05-29T01:34:03Z</time>
      </trkpt>
      <trkpt lat="45.16946" lon="5.23678">
        <ele>351</ele>
        <time>2010-05-29T01:34:17Z</time>
      </trkpt>
      <trkpt lat="45.16915" lon="5.2369">
        <ele>351</ele>
        <time>2010-05-29T01:34:30Z</time>
      </trkpt>
      <trkpt lat="45.168" lon="5.23653">
        <ele>358</ele>
        <time>2010-05-29T01:35:17Z</time>
      </trkpt>
      <trkpt lat="45.16766" lon="5.23651">
        <ele>361</ele>
        <time>2010-05-29T01:35:31Z</time>
      </trkpt>
      <trkpt lat="45.16538" lon="5.23718">
        <ele>357</ele>
        <time>2010-05-29T01:37:04Z</time>
      </trkpt>
      <trkpt lat="45.1651" lon="5.23736">
        <ele>357</ele>
        <time>2010-05-29T01:37:16Z</time>
      </trkpt>
      <trkpt lat="45.16485" lon="5.23795">
        <ele>357</ele>
        <time>2010-05-29T01:37:36Z</time>
      </trkpt>
      <trkpt lat="45.16483" lon="5.23809">
        <ele>357</ele>
        <time>2010-05-29T01:37:40Z</time>
      </trkpt>
      <trkpt lat="45.16487" lon="5.2386">
        <ele>357</ele>
        <time>2010-05-29T01:37:54Z</time>
      </trkpt>
      <trkpt lat="45.16519" lon="5.24038">
        <ele>358</ele>
        <time>2010-05-29T01:38:46Z</time>
      </trkpt>
      <trkpt lat="45.16543" lon="5.24145">
        <ele>368</ele>
        <time>2010-05-29T01:39:18Z</time>
      </trkpt>
      <trkpt lat="45.16562" lon="5.24196">
        <ele>368</ele>
        <time>2010-05-29T01:39:34Z</time>
      </trkpt>
      <trkpt lat="45.16583" lon="5.24221">
        <ele>368</ele>
        <time>2010-05-29T01:39:45Z</time>
      </trkpt>
      <trkpt lat="45.16613" lon="5.24235">
        <ele>368</ele>
        <time>2010-05-29T01:39:58Z</time>
      </trkpt>
      <trkpt lat="45.16684" lon="5.24261">
        <ele>368</ele>
        <time>2010-05-29T01:40:27Z</time>
      </trkpt>
      <trkpt lat="45.16907" lon="5.24325">
        <ele>370</ele>
        <time>2010-05-29T01:41:58Z</time>
      </trkpt>
      <trkpt lat="45.16942" lon="5.24378">
        <ele>371</ele>
        <time>2010-05-29T01:42:19Z</time>
      </trkpt>
      <trkpt lat="45.16952" lon="5.2442">
        <ele>371</ele>
        <time>2010-05-29T01:42:31Z</time>
      </trkpt>
      <trkpt lat="45.16953" lon="5.2444">
        <ele>371</ele>
        <time>2010-05-29T01:42:37Z</time>
      </trkpt>
      <trkpt lat="45.16945" lon="5.24478">
        <ele>373</ele>
        <time>2010-05-29T01:42:48Z</time>
      </trkpt>
      <trkpt lat="45.16877" lon="5.24567">
        <ele>377</ele>
        <time>2010-05-29T01:43:25Z</time>
      </trkpt>
      <trkpt lat="45.1673" lon="5.24746">
        <ele>369</ele>
        <time>2010-05-29T01:44:43Z</time>
      </trkpt>
      <trkpt lat="45.16592" lon="5.24891">
        <ele>369</ele>
        <time>2010-05-29T01:45:51Z</time>
      </trkpt>
      <trkpt lat="45.16566" lon="5.24925">
        <ele>369</ele>
        <time>2010-05-29T01:46:06Z</time>
      </trkpt>
      <trkpt lat="45.1649" lon="5.2506">
        <ele>366</ele>
        <time>2010-05-29T01:46:54Z</time>
      </trkpt>
      <trkpt lat="45.1645" lon="5.25105">
        <ele>363</ele>
        <time>2010-05-29T01:47:15Z</time>
      </trkpt>
      <trkpt lat="45.16381" lon="5.25171">
        <ele>364</ele>
        <time>2010-05-29T01:47:48Z</time>
      </trkpt>
      <trkpt lat="45.16314" lon="5.25215">
        <ele>368</ele>
        <time>2010-05-29T01:48:18Z</time>
      </trkpt>
      <trkpt lat="45.16257" lon="5.25245">
        <ele>364</ele>
        <time>2010-05-29T01:48:42Z</time>
      </trkpt>
      <trkpt lat="45.16153" lon="5.25296">
        <ele>364</ele>
        <time>2010-05-29T01:49:26Z</time>
      </trkpt>
      <trkpt lat="45.16104" lon="5.2531">
        <ele>358</ele>
        <time>2010-05-29T01:49:46Z</time>
      </trkpt>
      <trkpt lat="45.16084" lon="5.25311">
        <ele>358</ele>
        <time>2010-05-29T01:49:54Z</time>
      </trkpt>
      <trkpt lat="45.16041" lon="5.25325">
        <ele>353</ele>
        <time>2010-05-29T01:50:12Z</time>
      </trkpt>
      <trkpt lat="45.1595" lon="5.25413">
        <ele>348</ele>
        <time>2010-05-29T01:50:56Z</time>
      </trkpt>
      <trkpt lat="45.15905" lon="5.2544">
        <ele>348</ele>
        <time>2010-05-29T01:51:15Z</time>
      </trkpt>
      <trkpt lat="45.15872" lon="5.25447">
        <ele>347</ele>
        <time>2010-05-29T01:51:29Z</time>
      </trkpt>
      <trkpt lat="45.15772" lon="5.25423">
        <ele>353</ele>
        <time>2010-05-29T01:52:09Z</time>
      </trkpt>
      <trkpt lat="45.15712" lon="5.25416">
        <ele>353</ele>
        <time>2010-05-29T01:52:33Z</time>
      </trkpt>
      <trkpt lat="45.15646" lon="5.25421">
        <ele>351</ele>
        <time>2010-05-29T01:53:00Z</time>
      </trkpt>
      <trkpt lat="45.15543" lon="5.25445">
        <ele>350</ele>
        <time>2010-05-29T01:53:42Z</time>
      </trkpt>
      <trkpt lat="45.15478" lon="5.2548">
        <ele>359</ele>
        <time>2010-05-29T01:54:10Z</time>
      </trkpt>
      <trkpt lat="45.1545" lon="5.25487">
        <ele>350</ele>
        <time>2010-05-29T01:54:21Z</time>
      </trkpt>
      <trkpt lat="45.15437" lon="5.25511">
        <ele>350</ele>
        <time>2010-05-29T01:54:29Z</time>
      </trkpt>
      <trkpt lat="45.15447" lon="5.25575">
        <ele>350</ele>
        <time>2010-05-29T01:54:48Z</time>
      </trkpt>
      <trkpt lat="45.15458" lon="5.2561">
        <ele>350</ele>
        <time>2010-05-29T01:54:59Z</time>
      </trkpt>
      <trkpt lat="45.15543" lon="5.25747">
        <ele>369</ele>
        <time>2010-05-29T01:55:50Z</time>
      </trkpt>
      <trkpt lat="45.15602" lon="5.25817">
        <ele>362</ele>
        <time>2010-05-29T01:56:21Z</time>
      </trkpt>
      <trkpt lat="45.15655" lon="5.25924">
        <ele>360</ele>
        <time>2010-05-29T01:56:58Z</time>
      </trkpt>
      <trkpt lat="45.1566" lon="5.25941">
        <ele>360</ele>
        <time>2010-05-29T01:57:03Z</time>
      </trkpt>
      <trkpt lat="45.15653" lon="5.25987">
        <ele>351</ele>
        <time>2010-05-29T01:57:16Z</time>
      </trkpt>
      <trkpt lat="45.15631" lon="5.26046">
        <ele>357</ele>
        <time>2010-05-29T01:57:35Z</time>
      </trkpt>
      <trkpt lat="45.15616" lon="5.26109">
        <ele>345</ele>
        <time>2010-05-29T01:57:54Z</time>
      </trkpt>
      <trkpt lat="45.15606" lon="5.26272">
        <ele>339</ele>
        <time>2010-05-29T01:58:40Z</time>
      </trkpt>
      <trkpt lat="45.15537" lon="5.26438">
        <ele>326</ele>
        <time>2010-05-29T01:59:35Z</time>
      </trkpt>
      <trkpt lat="45.15522" lon="5.26497">
        <ele>318</ele>
        <time>2010-05-29T01:59:52Z</time>
      </trkpt>
      <trkpt lat="45.15507" lon="5.26585">
        <ele>316</ele>
        <time>2010-05-29T02:00:18Z</time>
      </trkpt>
      <trkpt lat="45.15439" lon="5.26757">
        <ele>312</ele>
        <time>2010-05-29T02:01:14Z</time>
      </trkpt>
      <trkpt lat="45.15404" lon="5.26823">
        <ele>316</ele>
        <time>2010-05-29T02:01:37Z</time>
      </trkpt>
      <trkpt lat="45.15331" lon="5.26905">
        <ele>308</ele>
        <time>2010-05-29T02:02:14Z</time>
      </trkpt>
      <trkpt lat="45.15259" lon="5.26971">
        <ele>308</ele>
        <time>2010-05-29T02:02:48Z</time>
      </trkpt>
      <trkpt lat="45.15127" lon="5.27117">
        <ele>305</ele>
        <time>2010-05-29T02:03:55Z</time>
      </trkpt>
      <trkpt lat="45.15063" lon="5.27176">
        <ele>306</ele>
        <time>2010-05-29T02:04:26Z</time>
      </trkpt>
      <trkpt lat="45.14839" lon="5.27434">
        <ele>301</ele>
        <time>2010-05-29T02:06:22Z</time>
      </trkpt>
      <trkpt lat="45.14771" lon="5.27482">
        <ele>303</ele>
        <time>2010-05-29T02:06:52Z</time>
      </trkpt>
      <trkpt lat="45.14693" lon="5.27519">
        <ele>293</ele>
        <time>2010-05-29T02:07:25Z</time>
      </trkpt>
      <trkpt lat="45.14598" lon="5.27574">
        <ele>293</ele>
        <time>2010-05-29T02:08:06Z</time>
      </trkpt>
      <trkpt lat="45.14579" lon="5.27595">
        <ele>293</ele>
        <time>2010-05-29T02:08:16Z</time>
      </trkpt>
      <trkpt lat="45.14563" lon="5.27627">
        <ele>295</ele>
        <time>2010-05-29T02:08:27Z</time>
      </trkpt>
      <trkpt lat="45.14551" lon="5.27658">
        <ele>295</ele>
        <time>2010-05-29T02:08:37Z</time>
      </trkpt>
      <trkpt lat="45.14525" lon="5.27763">
        <ele>289</ele>
        <time>2010-05-29T02:09:08Z</time>
      </trkpt>
      <trkpt lat="45.14506" lon="5.27821">
        <ele>289</ele>
        <time>2010-05-29T02:09:26Z</time>
      </trkpt>
      <trkpt lat="45.14364" lon="5.28122">
        <ele>283</ele>
        <time>2010-05-29T02:11:08Z</time>
      </trkpt>
      <trkpt lat="45.14357" lon="5.28159">
        <ele>285</ele>
        <time>2010-05-29T02:11:19Z</time>
      </trkpt>
      <trkpt lat="45.14345" lon="5.28286">
        <ele>285</ele>
        <time>2010-05-29T02:11:55Z</time>
      </trkpt>
      <trkpt lat="45.14269" lon="5.28468">
        <ele>285</ele>
        <time>2010-05-29T02:12:55Z</time>
      </trkpt>
      <trkpt lat="45.14207" lon="5.28651">
        <ele>281</ele>
        <time>2010-05-29T02:13:52Z</time>
      </trkpt>
      <trkpt lat="45.1425" lon="5.28691">
        <ele>284</ele>
        <time>2010-05-29T02:14:13Z</time>
      </trkpt>
      <trkpt lat="45.14274" lon="5.28725">
        <ele>282</ele>
        <time>2010-05-29T02:14:27Z</time>
      </trkpt>
      <trkpt lat="45.14283" lon="5.28729">
        <ele>282</ele>
        <time>2010-05-29T02:14:30Z</time>
      </trkpt>
      <trkpt lat="45.14303" lon="5.2872">
        <ele>291</ele>
        <time>2010-05-29T02:14:39Z</time>
      </trkpt>
      <trkpt lat="45.14312" lon="5.28724">
        <ele>291</ele>
        <time>2010-05-29T02:14:43Z</time>
      </trkpt>
      <trkpt lat="45.14334" lon="5.28764">
        <ele>291</ele>
        <time>2010-05-29T02:14:57Z</time>
      </trkpt>
      <trkpt lat="45.14367" lon="5.28804">
        <ele>283</ele>
        <time>2010-05-29T02:15:14Z</time>
      </trkpt>
      <trkpt lat="45.14399" lon="5.28895">
        <ele>288</ele>
        <time>2010-05-29T02:15:43Z</time>
      </trkpt>
      <trkpt lat="45.14394" lon="5.28936">
        <ele>288</ele>
        <time>2010-05-29T02:15:55Z</time>
      </trkpt>
      <trkpt lat="45.14397" lon="5.28958">
        <ele>288</ele>
        <time>2010-05-29T02:16:01Z</time>
      </trkpt>
      <trkpt lat="45.14434" lon="5.29034">
        <ele>282</ele>
        <time>2010-05-29T02:16:27Z</time>
      </trkpt>
      <trkpt lat="45.14464" lon="5.29123">
        <ele>285</ele>
        <time>2010-05-29T02:16:55Z</time>
      </trkpt>
      <trkpt lat="45.14481" lon="5.29196">
        <ele>282</ele>
        <time>2010-05-29T02:17:17Z</time>
      </trkpt>
      <trkpt lat="45.14524" lon="5.29296">
        <ele>277</ele>
        <time>2010-05-29T02:17:50Z</time>
      </trkpt>
      <trkpt lat="45.146" lon="5.29493">
        <ele>276</ele>
        <time>2010-05-29T02:18:53Z</time>
      </trkpt>
      <trkpt lat="45.14649" lon="5.29558">
        <ele>278</ele>
        <time>2010-05-29T02:19:20Z</time>
      </trkpt>
      <trkpt lat="45.14677" lon="5.29605">
        <ele>278</ele>
        <time>2010-05-29T02:19:37Z</time>
      </trkpt>
      <trkpt lat="45.14715" lon="5.29689">
        <ele>281</ele>
        <time>2010-05-29T02:20:06Z</time>
      </trkpt>
      <trkpt lat="45.1477" lon="5.29779">
        <ele>279</ele>
        <time>2010-05-29T02:20:39Z</time>
      </trkpt>
      <trkpt lat="45.14805" lon="5.29856">
        <ele>288</ele>
        <time>2010-05-29T02:21:05Z</time>
      </trkpt>
      <trkpt lat="45.14808" lon="5.29875">
        <ele>286</ele>
        <time>2010-05-29T02:21:11Z</time>
      </trkpt>
      <trkpt lat="45.14802" lon="5.29901">
        <ele>286</ele>
        <time>2010-05-29T02:21:18Z</time>
      </trkpt>
      <trkpt lat="45.14802" lon="5.29924">
        <ele>286</ele>
        <time>2010-05-29T02:21:25Z</time>
      </trkpt>
      <trkpt lat="45.14838" lon="5.30146">
        <ele>281</ele>
        <time>2010-05-29T02:22:29Z</time>
      </trkpt>
      <trkpt lat="45.14854" lon="5.30192">
        <ele>281</ele>
        <time>2010-05-29T02:22:44Z</time>
      </trkpt>
      <trkpt lat="45.14876" lon="5.30239">
        <ele>282</ele>
        <time>2010-05-29T02:22:59Z</time>
      </trkpt>
      <trkpt lat="45.14955" lon="5.30386">
        <ele>279</ele>
        <time>2010-05-29T02:23:52Z</time>
      </trkpt>
      <trkpt lat="45.14986" lon="5.30431">
        <ele>282</ele>
        <time>2010-05-29T02:24:09Z</time>
      </trkpt>
      <trkpt lat="45.15054" lon="5.30581">
        <ele>284</ele>
        <time>2010-05-29T02:25:00Z</time>
      </trkpt>
      <trkpt lat="45.15074" lon="5.30635">
        <ele>279</ele>
        <time>2010-05-29T02:25:17Z</time>
      </trkpt>
      <trkpt lat="45.1509" lon="5.30788">
        <ele>279</ele>
        <time>2010-05-29T02:26:01Z</time>
      </trkpt>
      <trkpt lat="45.15102" lon="5.30853">
        <ele>277</ele>
        <time>2010-05-29T02:26:20Z</time>
      </trkpt>
      <trkpt lat="45.1511" lon="5.30877">
        <ele>277</ele>
        <time>2010-05-29T02:26:27Z</time>
      </trkpt>
      <trkpt lat="45.15132" lon="5.30921">
        <ele>280</ele>
        <time>2010-05-29T02:26:42Z</time>
      </trkpt>
      <trkpt lat="45.15212" lon="5.3102">
        <ele>284</ele>
        <time>2010-05-29T02:27:25Z</time>
      </trkpt>
      <trkpt lat="45.15115" lon="5.31112">
        <ele>276</ele>
        <time>2010-05-29T02:28:12Z</time>
      </trkpt>
      <trkpt lat="45.15092" lon="5.31075">
        <ele>276</ele>
        <time>2010-05-29T02:28:25Z</time>
      </trkpt>
      <trkpt lat="45.15087" lon="5.31063">
        <ele>276</ele>
        <time>2010-05-29T02:28:29Z</time>
      </trkpt>
      <trkpt lat="45.15086" lon="5.31046">
        <ele>276</ele>
        <time>2010-05-29T02:28:34Z</time>
      </trkpt>
      <trkpt lat="45.15094" lon="5.31033">
        <ele>277</ele>
        <time>2010-05-29T02:28:39Z</time>
      </trkpt>
      <trkpt lat="45.15118" lon="5.31011">
        <ele>277</ele>
        <time>2010-05-29T02:28:51Z</time>
      </trkpt>
      <trkpt lat="45.15139" lon="5.31">
        <ele>278</ele>
        <time>2010-05-29T02:28:59Z</time>
      </trkpt>
      <trkpt lat="45.1513" lon="5.30979">
        <ele>278</ele>
        <time>2010-05-29T02:29:06Z</time>
      </trkpt>
      <trkpt lat="45.15133" lon="5.30968">
        <ele>278</ele>
        <time>2010-05-29T02:29:10Z</time>
      </trkpt>
      <trkpt lat="45.1513" lon="5.30979">
        <ele>278</ele>
        <time>2010-05-29T02:29:13Z</time>
      </trkpt>
      <trkpt lat="45.15139" lon="5.31">
        <ele>278</ele>
        <time>2010-05-29T02:29:20Z</time>
      </trkpt>
      <trkpt lat="45.15118" lon="5.31011">
        <ele>277</ele>
        <time>2010-05-29T02:29:29Z</time>
      </trkpt>
      <trkpt lat="45.15094" lon="5.31033">
        <ele>277</ele>
        <time>2010-05-29T02:29:40Z</time>
      </trkpt>
      <trkpt lat="45.15086" lon="5.31046">
        <ele>276</ele>
        <time>2010-05-29T02:29:45Z</time>
      </trkpt>
      <trkpt lat="45.15087" lon="5.31063">
        <ele>276</ele>
        <time>2010-05-29T02:29:50Z</time>
      </trkpt>
      <trkpt lat="45.15092" lon="5.31075">
        <ele>276</ele>
        <time>2010-05-29T02:29:54Z</time>
      </trkpt>
      <trkpt lat="45.15115" lon="5.31112">
        <ele>276</ele>
        <time>2010-05-29T02:30:08Z</time>
      </trkpt>
      <trkpt lat="45.15006" lon="5.31212">
        <ele>277</ele>
        <time>2010-05-29T02:31:00Z</time>
      </trkpt>
      <trkpt lat="45.14961" lon="5.31263">
        <ele>277</ele>
        <time>2010-05-29T02:31:23Z</time>
      </trkpt>
      <trkpt lat="45.14959" lon="5.31259">
        <ele>277</ele>
        <time>2010-05-29T02:31:24Z</time>
      </trkpt>
      <trkpt lat="45.14961" lon="5.31263">
        <ele>277</ele>
        <time>2010-05-29T02:31:26Z</time>
      </trkpt>
      <trkpt lat="45.1486" lon="5.31359">
        <ele>277</ele>
        <time>2010-05-29T02:32:14Z</time>
      </trkpt>
      <trkpt lat="45.14872" lon="5.31362">
        <ele>277</ele>
        <time>2010-05-29T02:32:19Z</time>
      </trkpt>
      <trkpt lat="45.15047" lon="5.31598">
        <ele>279</ele>
        <time>2010-05-29T02:33:56Z</time>
      </trkpt>
      <trkpt lat="45.15133" lon="5.31717">
        <ele>282</ele>
        <time>2010-05-29T02:34:44Z</time>
      </trkpt>
      <trkpt lat="45.15125" lon="5.3172">
        <ele>282</ele>
        <time>2010-05-29T02:34:47Z</time>
      </trkpt>
      <trkpt lat="45.1512" lon="5.31728">
        <ele>282</ele>
        <time>2010-05-29T02:34:50Z</time>
      </trkpt>
      <trkpt lat="45.1512" lon="5.31744">
        <ele>282</ele>
        <time>2010-05-29T02:34:55Z</time>
      </trkpt>
      <trkpt lat="45.15125" lon="5.31755">
        <ele>282</ele>
        <time>2010-05-29T02:34:59Z</time>
      </trkpt>
      <trkpt lat="45.15132" lon="5.31758">
        <ele>282</ele>
        <time>2010-05-29T02:35:02Z</time>
      </trkpt>
      <trkpt lat="45.15167" lon="5.3188">
        <ele>280</ele>
        <time>2010-05-29T02:35:39Z</time>
      </trkpt>
      <trkpt lat="45.15187" lon="5.31934">
        <ele>280</ele>
        <time>2010-05-29T02:35:56Z</time>
      </trkpt>
      <trkpt lat="45.15362" lon="5.32287">
        <ele>285</ele>
        <time>2010-05-29T02:37:58Z</time>
      </trkpt>
      <trkpt lat="45.15379" lon="5.32313">
        <ele>281</ele>
        <time>2010-05-29T02:38:08Z</time>
      </trkpt>
      <trkpt lat="45.15414" lon="5.32349">
        <ele>281</ele>
        <time>2010-05-29T02:38:25Z</time>
      </trkpt>
      <trkpt lat="45.15444" lon="5.32372">
        <ele>281</ele>
        <time>2010-05-29T02:38:39Z</time>
      </trkpt>
      <trkpt lat="45.1552" lon="5.32413">
        <ele>281</ele>
        <time>2010-05-29T02:39:11Z</time>
      </trkpt>
      <trkpt lat="45.15529" lon="5.32423">
        <ele>281</ele>
        <time>2010-05-29T02:39:16Z</time>
      </trkpt>
      <trkpt lat="45.15654" lon="5.32704">
        <ele>276</ele>
        <time>2010-05-29T02:40:50Z</time>
      </trkpt>
      <trkpt lat="45.15681" lon="5.32769">
        <ele>281</ele>
        <time>2010-05-29T02:41:11Z</time>
      </trkpt>
      <trkpt lat="45.1555" lon="5.32978">
        <ele>284</ele>
        <time>2010-05-29T02:42:30Z</time>
      </trkpt>
      <trkpt lat="45.15517" lon="5.33043">
        <ele>286</ele>
        <time>2010-05-29T02:42:52Z</time>
      </trkpt>
      <trkpt lat="45.15424" lon="5.33259">
        <ele>284</ele>
        <time>2010-05-29T02:44:04Z</time>
      </trkpt>
      <trkpt lat="45.15395" lon="5.33396">
        <ele>283</ele>
        <time>2010-05-29T02:44:44Z</time>
      </trkpt>
      <trkpt lat="45.15375" lon="5.33458">
        <ele>283</ele>
        <time>2010-05-29T02:45:04Z</time>
      </trkpt>
      <trkpt lat="45.15293" lon="5.33716">
        <ele>284</ele>
        <time>2010-05-29T02:46:23Z</time>
      </trkpt>
      <trkpt lat="45.15281" lon="5.33769">
        <ele>283</ele>
        <time>2010-05-29T02:46:39Z</time>
      </trkpt>
      <trkpt lat="45.15276" lon="5.33811">
        <ele>278</ele>
        <time>2010-05-29T02:46:51Z</time>
      </trkpt>
      <trkpt lat="45.1528" lon="5.33854">
        <ele>278</ele>
        <time>2010-05-29T02:47:03Z</time>
      </trkpt>
      <trkpt lat="45.15285" lon="5.3387">
        <ele>278</ele>
        <time>2010-05-29T02:47:08Z</time>
      </trkpt>
      <trkpt lat="45.15307" lon="5.33924">
        <ele>282</ele>
        <time>2010-05-29T02:47:26Z</time>
      </trkpt>
      <trkpt lat="45.154" lon="5.34113">
        <ele>280</ele>
        <time>2010-05-29T02:48:31Z</time>
      </trkpt>
      <trkpt lat="45.15406" lon="5.34146">
        <ele>274</ele>
        <time>2010-05-29T02:48:41Z</time>
      </trkpt>
      <trkpt lat="45.15404" lon="5.34226">
        <ele>270</ele>
        <time>2010-05-29T02:49:03Z</time>
      </trkpt>
      <trkpt lat="45.15382" lon="5.34503">
        <ele>265</ele>
        <time>2010-05-29T02:50:22Z</time>
      </trkpt>
      <trkpt lat="45.15377" lon="5.34504">
        <ele>265</ele>
        <time>2010-05-29T02:50:24Z</time>
      </trkpt>
      <trkpt lat="45.15372" lon="5.34513">
        <ele>262</ele>
        <time>2010-05-29T02:50:27Z</time>
      </trkpt>
      <trkpt lat="45.15372" lon="5.34522">
        <ele>262</ele>
        <time>2010-05-29T02:50:30Z</time>
      </trkpt>
      <trkpt lat="45.1538" lon="5.3453">
        <ele>265</ele>
        <time>2010-05-29T02:50:34Z</time>
      </trkpt>
      <trkpt lat="45.15344" lon="5.35026">
        <ele>262</ele>
        <time>2010-05-29T02:52:54Z</time>
      </trkpt>
      <trkpt lat="45.15325" lon="5.35276">
        <ele>255</ele>
        <time>2010-05-29T02:54:05Z</time>
      </trkpt>
      <trkpt lat="45.15281" lon="5.35396">
        <ele>252</ele>
        <time>2010-05-29T02:54:44Z</time>
      </trkpt>
      <trkpt lat="45.15228" lon="5.35579">
        <ele>253</ele>
        <time>2010-05-29T02:55:39Z</time>
      </trkpt>
      <trkpt lat="45.15172" lon="5.35726">
        <ele>248</ele>
        <time>2010-05-29T02:56:27Z</time>
      </trkpt>
      <trkpt lat="45.15154" lon="5.35795">
        <ele>237</ele>
        <time>2010-05-29T02:56:47Z</time>
      </trkpt>
      <trkpt lat="45.15155" lon="5.35827">
        <ele>237</ele>
        <time>2010-05-29T02:56:56Z</time>
      </trkpt>
      <trkpt lat="45.15167" lon="5.35852">
        <ele>237</ele>
        <time>2010-05-29T02:57:05Z</time>
      </trkpt>
      <trkpt lat="45.15175" lon="5.35859">
        <ele>237</ele>
        <time>2010-05-29T02:57:09Z</time>
      </trkpt>
      <trkpt lat="45.15279" lon="5.35916">
        <ele>228</ele>
        <time>2010-05-29T02:57:53Z</time>
      </trkpt>
      <trkpt lat="45.15304" lon="5.35933">
        <ele>239</ele>
        <time>2010-05-29T02:58:04Z</time>
      </trkpt>
      <trkpt lat="45.15333" lon="5.35962">
        <ele>221</ele>
        <time>2010-05-29T02:58:19Z</time>
      </trkpt>
      <trkpt lat="45.15426" lon="5.36073">
        <ele>221</ele>
        <time>2010-05-29T02:59:07Z</time>
      </trkpt>
      <trkpt lat="45.15526" lon="5.36215">
        <ele>211</ele>
        <time>2010-05-29T03:00:04Z</time>
      </trkpt>
      <trkpt lat="45.15534" lon="5.36241">
        <ele>211</ele>
        <time>2010-05-29T03:00:12Z</time>
      </trkpt>
      <trkpt lat="45.15497" lon="5.3633">
        <ele>195</ele>
        <time>2010-05-29T03:00:41Z</time>
      </trkpt>
      <trkpt lat="45.15434" lon="5.36475">
        <ele>207</ele>
        <time>2010-05-29T03:01:29Z</time>
      </trkpt>
      <trkpt lat="45.1536" lon="5.36682">
        <ele>220</ele>
        <time>2010-05-29T03:02:35Z</time>
      </trkpt>
      <trkpt lat="45.15397" lon="5.36971">
        <ele>224</ele>
        <time>2010-05-29T03:03:58Z</time>
      </trkpt>
      <trkpt lat="45.15504" lon="5.377">
        <ele>233</ele>
        <time>2010-05-29T03:07:28Z</time>
      </trkpt>
      <trkpt lat="45.15506" lon="5.37745">
        <ele>232</ele>
        <time>2010-05-29T03:07:41Z</time>
      </trkpt>
      <trkpt lat="45.15502" lon="5.37773">
        <ele>232</ele>
        <time>2010-05-29T03:07:49Z</time>
      </trkpt>
      <trkpt lat="45.15507" lon="5.37777">
        <ele>232</ele>
        <time>2010-05-29T03:07:51Z</time>
      </trkpt>
      <trkpt lat="45.15526" lon="5.37877">
        <ele>231</ele>
        <time>2010-05-29T03:08:20Z</time>
      </trkpt>
      <trkpt lat="45.1556" lon="5.38092">
        <ele>230</ele>
        <time>2010-05-29T03:09:22Z</time>
      </trkpt>
      <trkpt lat="45.15748" lon="5.38189">
        <ele>231</ele>
        <time>2010-05-29T03:10:42Z</time>
      </trkpt>
      <trkpt lat="45.16674" lon="5.38692">
        <ele>229</ele>
        <time>2010-05-29T03:17:19Z</time>
      </trkpt>
      <trkpt lat="45.1686" lon="5.38794">
        <ele>228</ele>
        <time>2010-05-29T03:18:39Z</time>
      </trkpt>
      <trkpt lat="45.1688" lon="5.38809">
        <ele>213</ele>
        <time>2010-05-29T03:18:48Z</time>
      </trkpt>
      <trkpt lat="45.16901" lon="5.38833">
        <ele>213</ele>
        <time>2010-05-29T03:18:59Z</time>
      </trkpt>
      <trkpt lat="45.1701" lon="5.39037">
        <ele>219</ele>
        <time>2010-05-29T03:20:11Z</time>
      </trkpt>
      <trkpt lat="45.17041" lon="5.39088">
        <ele>222</ele>
        <time>2010-05-29T03:20:30Z</time>
      </trkpt>
      <trkpt lat="45.17109" lon="5.3913">
        <ele>219</ele>
        <time>2010-05-29T03:21:00Z</time>
      </trkpt>
      <trkpt lat="45.17125" lon="5.39144">
        <ele>202</ele>
        <time>2010-05-29T03:21:08Z</time>
      </trkpt>
      <trkpt lat="45.17152" lon="5.39181">
        <ele>202</ele>
        <time>2010-05-29T03:21:23Z</time>
      </trkpt>
      <trkpt lat="45.17188" lon="5.39245">
        <ele>218</ele>
        <time>2010-05-29T03:21:46Z</time>
      </trkpt>
      <trkpt lat="45.17242" lon="5.3938">
        <ele>217</ele>
        <time>2010-05-29T03:22:29Z</time>
      </trkpt>
      <trkpt lat="45.17328" lon="5.39475">
        <ele>213</ele>
        <time>2010-05-29T03:23:13Z</time>
      </trkpt>
      <trkpt lat="45.17366" lon="5.39507">
        <ele>213</ele>
        <time>2010-05-29T03:23:31Z</time>
      </trkpt>
      <trkpt lat="45.1744" lon="5.39557">
        <ele>203</ele>
        <time>2010-05-29T03:24:04Z</time>
      </trkpt>
      <trkpt lat="45.17463" lon="5.39582">
        <ele>189</ele>
        <time>2010-05-29T03:24:15Z</time>
      </trkpt>
      <trkpt lat="45.17479" lon="5.39619">
        <ele>189</ele>
        <time>2010-05-29T03:24:27Z</time>
      </trkpt>
      <trkpt lat="45.17492" lon="5.39685">
        <ele>192</ele>
        <time>2010-05-29T03:24:47Z</time>
      </trkpt>
      <trkpt lat="45.17496" lon="5.39711">
        <ele>191</ele>
        <time>2010-05-29T03:24:54Z</time>
      </trkpt>
      <trkpt lat="45.17495" lon="5.39754">
        <ele>191</ele>
        <time>2010-05-29T03:25:06Z</time>
      </trkpt>
      <trkpt lat="45.17476" lon="5.39807">
        <ele>189</ele>
        <time>2010-05-29T03:25:23Z</time>
      </trkpt>
      <trkpt lat="45.17475" lon="5.39833">
        <ele>189</ele>
        <time>2010-05-29T03:25:31Z</time>
      </trkpt>
      <trkpt lat="45.17435" lon="5.39853">
        <ele>200</ele>
        <time>2010-05-29T03:25:48Z</time>
      </trkpt>
      <trkpt lat="45.17417" lon="5.39875">
        <ele>200</ele>
        <time>2010-05-29T03:25:57Z</time>
      </trkpt>
      <trkpt lat="45.17383" lon="5.39924">
        <ele>196</ele>
        <time>2010-05-29T03:26:16Z</time>
      </trkpt>
      <trkpt lat="45.17378" lon="5.39951">
        <ele>196</ele>
        <time>2010-05-29T03:26:24Z</time>
      </trkpt>
      <trkpt lat="45.17391" lon="5.39973">
        <ele>198</ele>
        <time>2010-05-29T03:26:32Z</time>
      </trkpt>
      <trkpt lat="45.17414" lon="5.39957">
        <ele>196</ele>
        <time>2010-05-29T03:26:43Z</time>
      </trkpt>
      <trkpt lat="45.17429" lon="5.39955">
        <ele>196</ele>
        <time>2010-05-29T03:26:49Z</time>
      </trkpt>
      <trkpt lat="45.17446" lon="5.39991">
        <ele>198</ele>
        <time>2010-05-29T03:27:01Z</time>
      </trkpt>
      <trkpt lat="45.17419" lon="5.40005">
        <ele>198</ele>
        <time>2010-05-29T03:27:12Z</time>
      </trkpt>
      <trkpt lat="45.17412" lon="5.40012">
        <ele>198</ele>
        <time>2010-05-29T03:27:16Z</time>
      </trkpt>
      <trkpt lat="45.17411" lon="5.4002">
        <ele>198</ele>
        <time>2010-05-29T03:27:18Z</time>
      </trkpt>
      <trkpt lat="45.17414" lon="5.40042">
        <ele>208</ele>
        <time>2010-05-29T03:27:24Z</time>
      </trkpt>
      <trkpt lat="45.17434" lon="5.40087">
        <ele>208</ele>
        <time>2010-05-29T03:27:39Z</time>
      </trkpt>
      <trkpt lat="45.17443" lon="5.40131">
        <ele>218</ele>
        <time>2010-05-29T03:27:52Z</time>
      </trkpt>
      <trkpt lat="45.17443" lon="5.40152">
        <ele>218</ele>
        <time>2010-05-29T03:27:58Z</time>
      </trkpt>
      <trkpt lat="45.17451" lon="5.40176">
        <ele>218</ele>
        <time>2010-05-29T03:28:06Z</time>
      </trkpt>
      <trkpt lat="45.17472" lon="5.40211">
        <ele>216</ele>
        <time>2010-05-29T03:28:19Z</time>
      </trkpt>
      <trkpt lat="45.17512" lon="5.40263">
        <ele>216</ele>
        <time>2010-05-29T03:28:41Z</time>
      </trkpt>
      <trkpt lat="45.17581" lon="5.40383">
        <ele>215</ele>
        <time>2010-05-29T03:29:24Z</time>
      </trkpt>
      <trkpt lat="45.1761" lon="5.40541">
        <ele>216</ele>
        <time>2010-05-29T03:30:10Z</time>
      </trkpt>
      <trkpt lat="45.17647" lon="5.40826">
        <ele>213</ele>
        <time>2010-05-29T03:31:32Z</time>
      </trkpt>
      <trkpt lat="45.17553" lon="5.40858">
        <ele>229</ele>
        <time>2010-05-29T03:32:11Z</time>
      </trkpt>
      <trkpt lat="45.17534" lon="5.40856">
        <ele>247</ele>
        <time>2010-05-29T03:32:18Z</time>
      </trkpt>
      <trkpt lat="45.1745" lon="5.40805">
        <ele>260</ele>
        <time>2010-05-29T03:32:55Z</time>
      </trkpt>
      <trkpt lat="45.1742" lon="5.40787">
        <ele>256</ele>
        <time>2010-05-29T03:33:08Z</time>
      </trkpt>
      <trkpt lat="45.17386" lon="5.40784">
        <ele>256</ele>
        <time>2010-05-29T03:33:22Z</time>
      </trkpt>
      <trkpt lat="45.17367" lon="5.40789">
        <ele>260</ele>
        <time>2010-05-29T03:33:29Z</time>
      </trkpt>
      <trkpt lat="45.17337" lon="5.40806">
        <ele>266</ele>
        <time>2010-05-29T03:33:42Z</time>
      </trkpt>
      <trkpt lat="45.17323" lon="5.40821">
        <ele>266</ele>
        <time>2010-05-29T03:33:49Z</time>
      </trkpt>
      <trkpt lat="45.17316" lon="5.40836">
        <ele>266</ele>
        <time>2010-05-29T03:33:54Z</time>
      </trkpt>
      <trkpt lat="45.17307" lon="5.40922">
        <ele>270</ele>
        <time>2010-05-29T03:34:19Z</time>
      </trkpt>
      <trkpt lat="45.17295" lon="5.40949">
        <ele>270</ele>
        <time>2010-05-29T03:34:28Z</time>
      </trkpt>
      <trkpt lat="45.1722" lon="5.41061">
        <ele>274</ele>
        <time>2010-05-29T03:35:12Z</time>
      </trkpt>
      <trkpt lat="45.17189" lon="5.41086">
        <ele>273</ele>
        <time>2010-05-29T03:35:26Z</time>
      </trkpt>
      <trkpt lat="45.17139" lon="5.41114">
        <ele>273</ele>
        <time>2010-05-29T03:35:47Z</time>
      </trkpt>
      <trkpt lat="45.17069" lon="5.41153">
        <ele>276</ele>
        <time>2010-05-29T03:36:17Z</time>
      </trkpt>
      <trkpt lat="45.17036" lon="5.41179">
        <ele>276</ele>
        <time>2010-05-29T03:36:33Z</time>
      </trkpt>
      <trkpt lat="45.16888" lon="5.40983">
        <ele>264</ele>
        <time>2010-05-29T03:37:54Z</time>
      </trkpt>
      <trkpt lat="45.16867" lon="5.40932">
        <ele>268</ele>
        <time>2010-05-29T03:38:10Z</time>
      </trkpt>
      <trkpt lat="45.16855" lon="5.40852">
        <ele>267</ele>
        <time>2010-05-29T03:38:33Z</time>
      </trkpt>
      <trkpt lat="45.16852" lon="5.40792">
        <ele>267</ele>
        <time>2010-05-29T03:38:50Z</time>
      </trkpt>
      <trkpt lat="45.16845" lon="5.40682">
        <ele>266</ele>
        <time>2010-05-29T03:39:22Z</time>
      </trkpt>
      <trkpt lat="45.16814" lon="5.40709">
        <ele>267</ele>
        <time>2010-05-29T03:39:36Z</time>
      </trkpt>
      <trkpt lat="45.16801" lon="5.40708">
        <ele>266</ele>
        <time>2010-05-29T03:39:41Z</time>
      </trkpt>
      <trkpt lat="45.16788" lon="5.40667">
        <ele>279</ele>
        <time>2010-05-29T03:39:54Z</time>
      </trkpt>
      <trkpt lat="45.16769" lon="5.40624">
        <ele>271</ele>
        <time>2010-05-29T03:40:08Z</time>
      </trkpt>
      <trkpt lat="45.16717" lon="5.40587">
        <ele>271</ele>
        <time>2010-05-29T03:40:32Z</time>
      </trkpt>
      <trkpt lat="45.16688" lon="5.40584">
        <ele>272</ele>
        <time>2010-05-29T03:40:43Z</time>
      </trkpt>
      <trkpt lat="45.16646" lon="5.4059">
        <ele>272</ele>
        <time>2010-05-29T03:41:00Z</time>
      </trkpt>
      <trkpt lat="45.16635" lon="5.40597">
        <ele>272</ele>
        <time>2010-05-29T03:41:05Z</time>
      </trkpt>
      <trkpt lat="45.16592" lon="5.40651">
        <ele>281</ele>
        <time>2010-05-29T03:41:28Z</time>
      </trkpt>
      <trkpt lat="45.16553" lon="5.40667">
        <ele>281</ele>
        <time>2010-05-29T03:41:44Z</time>
      </trkpt>
      <trkpt lat="45.16542" lon="5.40768">
        <ele>285</ele>
        <time>2010-05-29T03:42:13Z</time>
      </trkpt>
      <trkpt lat="45.16541" lon="5.40791">
        <ele>321</ele>
        <time>2010-05-29T03:42:20Z</time>
      </trkpt>
      <trkpt lat="45.16548" lon="5.40825">
        <ele>295</ele>
        <time>2010-05-29T03:42:30Z</time>
      </trkpt>
      <trkpt lat="45.16593" lon="5.40883">
        <ele>310</ele>
        <time>2010-05-29T03:42:54Z</time>
      </trkpt>
      <trkpt lat="45.16598" lon="5.40897">
        <ele>310</ele>
        <time>2010-05-29T03:42:58Z</time>
      </trkpt>
      <trkpt lat="45.16642" lon="5.41144">
        <ele>318</ele>
        <time>2010-05-29T03:44:10Z</time>
      </trkpt>
      <trkpt lat="45.16638" lon="5.41161">
        <ele>318</ele>
        <time>2010-05-29T03:44:15Z</time>
      </trkpt>
      <trkpt lat="45.16628" lon="5.41157">
        <ele>318</ele>
        <time>2010-05-29T03:44:19Z</time>
      </trkpt>
      <trkpt lat="45.16603" lon="5.4109">
        <ele>359</ele>
        <time>2010-05-29T03:44:41Z</time>
      </trkpt>
      <trkpt lat="45.16556" lon="5.40997">
        <ele>332</ele>
        <time>2010-05-29T03:45:13Z</time>
      </trkpt>
      <trkpt lat="45.16526" lon="5.40963">
        <ele>385</ele>
        <time>2010-05-29T03:45:28Z</time>
      </trkpt>
      <trkpt lat="45.16505" lon="5.40906">
        <ele>361</ele>
        <time>2010-05-29T03:45:47Z</time>
      </trkpt>
      <trkpt lat="45.1646" lon="5.40828">
        <ele>337</ele>
        <time>2010-05-29T03:46:15Z</time>
      </trkpt>
      <trkpt lat="45.16445" lon="5.40788">
        <ele>351</ele>
        <time>2010-05-29T03:46:28Z</time>
      </trkpt>
      <trkpt lat="45.16433" lon="5.40786">
        <ele>351</ele>
        <time>2010-05-29T03:46:33Z</time>
      </trkpt>
      <trkpt lat="45.1643" lon="5.40792">
        <ele>378</ele>
        <time>2010-05-29T03:46:35Z</time>
      </trkpt>
      <trkpt lat="45.1644" lon="5.40828">
        <ele>378</ele>
        <time>2010-05-29T03:46:46Z</time>
      </trkpt>
      <trkpt lat="45.16488" lon="5.40925">
        <ele>361</ele>
        <time>2010-05-29T03:47:19Z</time>
      </trkpt>
      <trkpt lat="45.16494" lon="5.40944">
        <ele>361</ele>
        <time>2010-05-29T03:47:25Z</time>
      </trkpt>
      <trkpt lat="45.165" lon="5.41011">
        <ele>385</ele>
        <time>2010-05-29T03:47:44Z</time>
      </trkpt>
      <trkpt lat="45.16529" lon="5.4105">
        <ele>415</ele>
        <time>2010-05-29T03:48:00Z</time>
      </trkpt>
      <trkpt lat="45.16549" lon="5.41095">
        <ele>359</ele>
        <time>2010-05-29T03:48:15Z</time>
      </trkpt>
      <trkpt lat="45.16559" lon="5.4114">
        <ele>380</ele>
        <time>2010-05-29T03:48:28Z</time>
      </trkpt>
      <trkpt lat="45.16574" lon="5.41281">
        <ele>396</ele>
        <time>2010-05-29T03:49:09Z</time>
      </trkpt>
      <trkpt lat="45.16608" lon="5.4134">
        <ele>418</ele>
        <time>2010-05-29T03:49:30Z</time>
      </trkpt>
      <trkpt lat="45.16619" lon="5.41381">
        <ele>443</ele>
        <time>2010-05-29T03:49:43Z</time>
      </trkpt>
      <trkpt lat="45.16647" lon="5.41454">
        <ele>399</ele>
        <time>2010-05-29T03:50:06Z</time>
      </trkpt>
      <trkpt lat="45.16645" lon="5.41465">
        <ele>438</ele>
        <time>2010-05-29T03:50:09Z</time>
      </trkpt>
      <trkpt lat="45.1664" lon="5.41464">
        <ele>438</ele>
        <time>2010-05-29T03:50:11Z</time>
      </trkpt>
      <trkpt lat="45.1662" lon="5.41432">
        <ele>443</ele>
        <time>2010-05-29T03:50:23Z</time>
      </trkpt>
      <trkpt lat="45.16594" lon="5.41402">
        <ele>443</ele>
        <time>2010-05-29T03:50:37Z</time>
      </trkpt>
      <trkpt lat="45.16556" lon="5.41382">
        <ele>443</ele>
        <time>2010-05-29T03:50:53Z</time>
      </trkpt>
      <trkpt lat="45.16542" lon="5.41379">
        <ele>443</ele>
        <time>2010-05-29T03:50:59Z</time>
      </trkpt>
      <trkpt lat="45.16496" lon="5.41389">
        <ele>467</ele>
        <time>2010-05-29T03:51:17Z</time>
      </trkpt>
      <trkpt lat="45.16492" lon="5.41314">
        <ele>453</ele>
        <time>2010-05-29T03:51:38Z</time>
      </trkpt>
      <trkpt lat="45.16482" lon="5.41284">
        <ele>453</ele>
        <time>2010-05-29T03:51:48Z</time>
      </trkpt>
      <trkpt lat="45.1647" lon="5.4129">
        <ele>453</ele>
        <time>2010-05-29T03:51:53Z</time>
      </trkpt>
      <trkpt lat="45.16448" lon="5.41339">
        <ele>495</ele>
        <time>2010-05-29T03:52:09Z</time>
      </trkpt>
      <trkpt lat="45.16442" lon="5.41362">
        <ele>495</ele>
        <time>2010-05-29T03:52:16Z</time>
      </trkpt>
      <trkpt lat="45.16439" lon="5.41409">
        <ele>501</ele>
        <time>2010-05-29T03:52:30Z</time>
      </trkpt>
      <trkpt lat="45.16422" lon="5.41458">
        <ele>501</ele>
        <time>2010-05-29T03:52:45Z</time>
      </trkpt>
      <trkpt lat="45.16426" lon="5.41484">
        <ele>513</ele>
        <time>2010-05-29T03:52:52Z</time>
      </trkpt>
      <trkpt lat="45.16493" lon="5.41541">
        <ele>491</ele>
        <time>2010-05-29T03:53:24Z</time>
      </trkpt>
      <trkpt lat="45.16541" lon="5.41615">
        <ele>517</ele>
        <time>2010-05-29T03:53:52Z</time>
      </trkpt>
      <trkpt lat="45.16557" lon="5.41653">
        <ele>507</ele>
        <time>2010-05-29T03:54:05Z</time>
      </trkpt>
      <trkpt lat="45.16571" lon="5.41701">
        <ele>507</ele>
        <time>2010-05-29T03:54:19Z</time>
      </trkpt>
      <trkpt lat="45.16577" lon="5.41741">
        <ele>518</ele>
        <time>2010-05-29T03:54:31Z</time>
      </trkpt>
      <trkpt lat="45.16574" lon="5.41755">
        <ele>518</ele>
        <time>2010-05-29T03:54:35Z</time>
      </trkpt>
      <trkpt lat="45.16566" lon="5.41754">
        <ele>518</ele>
        <time>2010-05-29T03:54:38Z</time>
      </trkpt>
      <trkpt lat="45.1652" lon="5.41671">
        <ele>542</ele>
        <time>2010-05-29T03:55:08Z</time>
      </trkpt>
      <trkpt lat="45.16488" lon="5.41657">
        <ele>542</ele>
        <time>2010-05-29T03:55:21Z</time>
      </trkpt>
      <trkpt lat="45.16459" lon="5.4163">
        <ele>542</ele>
        <time>2010-05-29T03:55:35Z</time>
      </trkpt>
      <trkpt lat="45.16431" lon="5.41624">
        <ele>535</ele>
        <time>2010-05-29T03:55:47Z</time>
      </trkpt>
      <trkpt lat="45.16354" lon="5.41623">
        <ele>570</ele>
        <time>2010-05-29T03:56:17Z</time>
      </trkpt>
      <trkpt lat="45.16337" lon="5.41615">
        <ele>570</ele>
        <time>2010-05-29T03:56:25Z</time>
      </trkpt>
      <trkpt lat="45.16324" lon="5.4155">
        <ele>570</ele>
        <time>2010-05-29T03:56:44Z</time>
      </trkpt>
      <trkpt lat="45.16311" lon="5.41507">
        <ele>563</ele>
        <time>2010-05-29T03:56:57Z</time>
      </trkpt>
      <trkpt lat="45.16299" lon="5.41471">
        <ele>563</ele>
        <time>2010-05-29T03:57:08Z</time>
      </trkpt>
      <trkpt lat="45.16283" lon="5.41444">
        <ele>573</ele>
        <time>2010-05-29T03:57:18Z</time>
      </trkpt>
      <trkpt lat="45.16204" lon="5.41428">
        <ele>604</ele>
        <time>2010-05-29T03:57:50Z</time>
      </trkpt>
      <trkpt lat="45.16182" lon="5.41411">
        <ele>604</ele>
        <time>2010-05-29T03:58:00Z</time>
      </trkpt>
      <trkpt lat="45.16126" lon="5.4135">
        <ele>594</ele>
        <time>2010-05-29T03:58:28Z</time>
      </trkpt>
      <trkpt lat="45.16054" lon="5.4129">
        <ele>595</ele>
        <time>2010-05-29T03:59:02Z</time>
      </trkpt>
      <trkpt lat="45.1602" lon="5.4121">
        <ele>638</ele>
        <time>2010-05-29T03:59:28Z</time>
      </trkpt>
      <trkpt lat="45.16013" lon="5.41201">
        <ele>634</ele>
        <time>2010-05-29T03:59:32Z</time>
      </trkpt>
      <trkpt lat="45.16003" lon="5.41201">
        <ele>634</ele>
        <time>2010-05-29T03:59:36Z</time>
      </trkpt>
      <trkpt lat="45.16" lon="5.41209">
        <ele>638</ele>
        <time>2010-05-29T03:59:38Z</time>
      </trkpt>
      <trkpt lat="45.16023" lon="5.41323">
        <ele>648</ele>
        <time>2010-05-29T04:00:12Z</time>
      </trkpt>
      <trkpt lat="45.16048" lon="5.41377">
        <ele>635</ele>
        <time>2010-05-29T04:00:30Z</time>
      </trkpt>
      <trkpt lat="45.16066" lon="5.41432">
        <ele>635</ele>
        <time>2010-05-29T04:00:47Z</time>
      </trkpt>
      <trkpt lat="45.16063" lon="5.41449">
        <ele>635</ele>
        <time>2010-05-29T04:00:52Z</time>
      </trkpt>
      <trkpt lat="45.16052" lon="5.41447">
        <ele>635</ele>
        <time>2010-05-29T04:00:57Z</time>
      </trkpt>
      <trkpt lat="45.16017" lon="5.41372">
        <ele>648</ele>
        <time>2010-05-29T04:01:22Z</time>
      </trkpt>
      <trkpt lat="45.15979" lon="5.41317">
        <ele>648</ele>
        <time>2010-05-29T04:01:44Z</time>
      </trkpt>
      <trkpt lat="45.15971" lon="5.41313">
        <ele>648</ele>
        <time>2010-05-29T04:01:47Z</time>
      </trkpt>
      <trkpt lat="45.15933" lon="5.41317">
        <ele>686</ele>
        <time>2010-05-29T04:02:02Z</time>
      </trkpt>
      <trkpt lat="45.15923" lon="5.41311">
        <ele>686</ele>
        <time>2010-05-29T04:02:07Z</time>
      </trkpt>
      <trkpt lat="45.15923" lon="5.41285">
        <ele>687</ele>
        <time>2010-05-29T04:02:14Z</time>
      </trkpt>
      <trkpt lat="45.15936" lon="5.41227">
        <ele>687</ele>
        <time>2010-05-29T04:02:31Z</time>
      </trkpt>
      <trkpt lat="45.15934" lon="5.4121">
        <ele>687</ele>
        <time>2010-05-29T04:02:36Z</time>
      </trkpt>
      <trkpt lat="45.15921" lon="5.4119">
        <ele>673</ele>
        <time>2010-05-29T04:02:44Z</time>
      </trkpt>
      <trkpt lat="45.15886" lon="5.41167">
        <ele>673</ele>
        <time>2010-05-29T04:02:59Z</time>
      </trkpt>
      <trkpt lat="45.15848" lon="5.4112">
        <ele>683</ele>
        <time>2010-05-29T04:03:19Z</time>
      </trkpt>
      <trkpt lat="45.15817" lon="5.41092">
        <ele>683</ele>
        <time>2010-05-29T04:03:34Z</time>
      </trkpt>
      <trkpt lat="45.15776" lon="5.41065">
        <ele>708</ele>
        <time>2010-05-29T04:03:52Z</time>
      </trkpt>
      <trkpt lat="45.15717" lon="5.41043">
        <ele>708</ele>
        <time>2010-05-29T04:04:17Z</time>
      </trkpt>
      <trkpt lat="45.15674" lon="5.41042">
        <ele>720</ele>
        <time>2010-05-29T04:04:34Z</time>
      </trkpt>
      <trkpt lat="45.15652" lon="5.41055">
        <ele>720</ele>
        <time>2010-05-29T04:04:43Z</time>
      </trkpt>
      <trkpt lat="45.15648" lon="5.41068">
        <ele>720</ele>
        <time>2010-05-29T04:04:47Z</time>
      </trkpt>
      <trkpt lat="45.15647" lon="5.41132">
        <ele>733</ele>
        <time>2010-05-29T04:05:06Z</time>
      </trkpt>
      <trkpt lat="45.15643" lon="5.41156">
        <ele>733</ele>
        <time>2010-05-29T04:05:12Z</time>
      </trkpt>
      <trkpt lat="45.15628" lon="5.41208">
        <ele>733</ele>
        <time>2010-05-29T04:05:28Z</time>
      </trkpt>
      <trkpt lat="45.15614" lon="5.41231">
        <ele>744</ele>
        <time>2010-05-29T04:05:37Z</time>
      </trkpt>
      <trkpt lat="45.15598" lon="5.41241">
        <ele>744</ele>
        <time>2010-05-29T04:05:44Z</time>
      </trkpt>
      <trkpt lat="45.15587" lon="5.41237">
        <ele>744</ele>
        <time>2010-05-29T04:05:48Z</time>
      </trkpt>
      <trkpt lat="45.15575" lon="5.41221">
        <ele>744</ele>
        <time>2010-05-29T04:05:55Z</time>
      </trkpt>
      <trkpt lat="45.15567" lon="5.41152">
        <ele>739</ele>
        <time>2010-05-29T04:06:15Z</time>
      </trkpt>
      <trkpt lat="45.15564" lon="5.41145">
        <ele>739</ele>
        <time>2010-05-29T04:06:17Z</time>
      </trkpt>
      <trkpt lat="45.15558" lon="5.41144">
        <ele>739</ele>
        <time>2010-05-29T04:06:20Z</time>
      </trkpt>
      <trkpt lat="45.15507" lon="5.4117">
        <ele>750</ele>
        <time>2010-05-29T04:06:41Z</time>
      </trkpt>
      <trkpt lat="45.15424" lon="5.41193">
        <ele>756</ele>
        <time>2010-05-29T04:07:15Z</time>
      </trkpt>
      <trkpt lat="45.15386" lon="5.41198">
        <ele>756</ele>
        <time>2010-05-29T04:07:30Z</time>
      </trkpt>
      <trkpt lat="45.15329" lon="5.41192">
        <ele>763</ele>
        <time>2010-05-29T04:07:53Z</time>
      </trkpt>
      <trkpt lat="45.15267" lon="5.41195">
        <ele>776</ele>
        <time>2010-05-29T04:08:18Z</time>
      </trkpt>
      <trkpt lat="45.1524" lon="5.41074">
        <ele>772</ele>
        <time>2010-05-29T04:08:54Z</time>
      </trkpt>
      <trkpt lat="45.1524" lon="5.41045">
        <ele>772</ele>
        <time>2010-05-29T04:09:02Z</time>
      </trkpt>
      <trkpt lat="45.15263" lon="5.4099">
        <ele>775</ele>
        <time>2010-05-29T04:09:20Z</time>
      </trkpt>
      <trkpt lat="45.15261" lon="5.40981">
        <ele>775</ele>
        <time>2010-05-29T04:09:23Z</time>
      </trkpt>
      <trkpt lat="45.15251" lon="5.40978">
        <ele>775</ele>
        <time>2010-05-29T04:09:27Z</time>
      </trkpt>
      <trkpt lat="45.15219" lon="5.40987">
        <ele>775</ele>
        <time>2010-05-29T04:09:40Z</time>
      </trkpt>
      <trkpt lat="45.15205" lon="5.41019">
        <ele>785</ele>
        <time>2010-05-29T04:09:51Z</time>
      </trkpt>
      <trkpt lat="45.15193" lon="5.41035">
        <ele>785</ele>
        <time>2010-05-29T04:09:57Z</time>
      </trkpt>
      <trkpt lat="45.15166" lon="5.41039">
        <ele>785</ele>
        <time>2010-05-29T04:10:08Z</time>
      </trkpt>
      <trkpt lat="45.15094" lon="5.41032">
        <ele>790</ele>
        <time>2010-05-29T04:10:37Z</time>
      </trkpt>
      <trkpt lat="45.15076" lon="5.41041">
        <ele>790</ele>
        <time>2010-05-29T04:10:45Z</time>
      </trkpt>
      <trkpt lat="45.15052" lon="5.41063">
        <ele>809</ele>
        <time>2010-05-29T04:10:56Z</time>
      </trkpt>
      <trkpt lat="45.14989" lon="5.411">
        <ele>804</ele>
        <time>2010-05-29T04:11:23Z</time>
      </trkpt>
      <trkpt lat="45.14928" lon="5.41129">
        <ele>826</ele>
        <time>2010-05-29T04:11:49Z</time>
      </trkpt>
      <trkpt lat="45.1489" lon="5.41135">
        <ele>826</ele>
        <time>2010-05-29T04:12:04Z</time>
      </trkpt>
      <trkpt lat="45.14869" lon="5.41128">
        <ele>843</ele>
        <time>2010-05-29T04:12:13Z</time>
      </trkpt>
      <trkpt lat="45.14864" lon="5.41119">
        <ele>839</ele>
        <time>2010-05-29T04:12:16Z</time>
      </trkpt>
      <trkpt lat="45.14861" lon="5.41086">
        <ele>839</ele>
        <time>2010-05-29T04:12:26Z</time>
      </trkpt>
      <trkpt lat="45.14875" lon="5.40931">
        <ele>834</ele>
        <time>2010-05-29T04:13:10Z</time>
      </trkpt>
      <trkpt lat="45.14874" lon="5.40898">
        <ele>834</ele>
        <time>2010-05-29T04:13:19Z</time>
      </trkpt>
      <trkpt lat="45.14872" lon="5.40875">
        <ele>834</ele>
        <time>2010-05-29T04:13:26Z</time>
      </trkpt>
      <trkpt lat="45.14858" lon="5.40828">
        <ele>822</ele>
        <time>2010-05-29T04:13:40Z</time>
      </trkpt>
      <trkpt lat="45.14837" lon="5.408">
        <ele>822</ele>
        <time>2010-05-29T04:13:52Z</time>
      </trkpt>
      <trkpt lat="45.14813" lon="5.40785">
        <ele>806</ele>
        <time>2010-05-29T04:14:02Z</time>
      </trkpt>
      <trkpt lat="45.14765" lon="5.40786">
        <ele>815</ele>
        <time>2010-05-29T04:14:21Z</time>
      </trkpt>
      <trkpt lat="45.14744" lon="5.40778">
        <ele>815</ele>
        <time>2010-05-29T04:14:30Z</time>
      </trkpt>
      <trkpt lat="45.14736" lon="5.40769">
        <ele>815</ele>
        <time>2010-05-29T04:14:34Z</time>
      </trkpt>
      <trkpt lat="45.1473" lon="5.40745">
        <ele>815</ele>
        <time>2010-05-29T04:14:41Z</time>
      </trkpt>
      <trkpt lat="45.14733" lon="5.40661">
        <ele>806</ele>
        <time>2010-05-29T04:15:05Z</time>
      </trkpt>
      <trkpt lat="45.1473" lon="5.40632">
        <ele>806</ele>
        <time>2010-05-29T04:15:13Z</time>
      </trkpt>
      <trkpt lat="45.14724" lon="5.40616">
        <ele>797</ele>
        <time>2010-05-29T04:15:18Z</time>
      </trkpt>
      <trkpt lat="45.14699" lon="5.40584">
        <ele>810</ele>
        <time>2010-05-29T04:15:32Z</time>
      </trkpt>
      <trkpt lat="45.14655" lon="5.40537">
        <ele>806</ele>
        <time>2010-05-29T04:15:54Z</time>
      </trkpt>
      <trkpt lat="45.1463" lon="5.40496">
        <ele>806</ele>
        <time>2010-05-29T04:16:09Z</time>
      </trkpt>
      <trkpt lat="45.14577" lon="5.40434">
        <ele>808</ele>
        <time>2010-05-29T04:16:37Z</time>
      </trkpt>
      <trkpt lat="45.14486" lon="5.40394">
        <ele>806</ele>
        <time>2010-05-29T04:17:15Z</time>
      </trkpt>
      <trkpt lat="45.14489" lon="5.40371">
        <ele>798</ele>
        <time>2010-05-29T04:17:21Z</time>
      </trkpt>
      <trkpt lat="45.14526" lon="5.4027">
        <ele>793</ele>
        <time>2010-05-29T04:17:54Z</time>
      </trkpt>
      <trkpt lat="45.14536" lon="5.40252">
        <ele>793</ele>
        <time>2010-05-29T04:18:00Z</time>
      </trkpt>
      <trkpt lat="45.14569" lon="5.40214">
        <ele>789</ele>
        <time>2010-05-29T04:18:17Z</time>
      </trkpt>
      <trkpt lat="45.14593" lon="5.40174">
        <ele>784</ele>
        <time>2010-05-29T04:18:32Z</time>
      </trkpt>
      <trkpt lat="45.14602" lon="5.40136">
        <ele>784</ele>
        <time>2010-05-29T04:18:43Z</time>
      </trkpt>
      <trkpt lat="45.14608" lon="5.4008">
        <ele>775</ele>
        <time>2010-05-29T04:18:59Z</time>
      </trkpt>
      <trkpt lat="45.1461" lon="5.39991">
        <ele>775</ele>
        <time>2010-05-29T04:19:24Z</time>
      </trkpt>
      <trkpt lat="45.14603" lon="5.39951">
        <ele>788</ele>
        <time>2010-05-29T04:19:36Z</time>
      </trkpt>
      <trkpt lat="45.14496" lon="5.39885">
        <ele>775</ele>
        <time>2010-05-29T04:20:23Z</time>
      </trkpt>
      <trkpt lat="45.14383" lon="5.39784">
        <ele>790</ele>
        <time>2010-05-29T04:21:16Z</time>
      </trkpt>
      <trkpt lat="45.14348" lon="5.39746">
        <ele>772</ele>
        <time>2010-05-29T04:21:34Z</time>
      </trkpt>
      <trkpt lat="45.14333" lon="5.39723">
        <ele>772</ele>
        <time>2010-05-29T04:21:43Z</time>
      </trkpt>
      <trkpt lat="45.14321" lon="5.39699">
        <ele>782</ele>
        <time>2010-05-29T04:21:51Z</time>
      </trkpt>
      <trkpt lat="45.14316" lon="5.3968">
        <ele>782</ele>
        <time>2010-05-29T04:21:57Z</time>
      </trkpt>
      <trkpt lat="45.14316" lon="5.39662">
        <ele>782</ele>
        <time>2010-05-29T04:22:02Z</time>
      </trkpt>
      <trkpt lat="45.14346" lon="5.39586">
        <ele>777</ele>
        <time>2010-05-29T04:22:26Z</time>
      </trkpt>
      <trkpt lat="45.14369" lon="5.39498">
        <ele>772</ele>
        <time>2010-05-29T04:22:53Z</time>
      </trkpt>
      <trkpt lat="45.1439" lon="5.39482">
        <ele>780</ele>
        <time>2010-05-29T04:23:02Z</time>
      </trkpt>
      <trkpt lat="45.145" lon="5.39473">
        <ele>776</ele>
        <time>2010-05-29T04:23:47Z</time>
      </trkpt>
      <trkpt lat="45.1454" lon="5.39474">
        <ele>776</ele>
        <time>2010-05-29T04:24:03Z</time>
      </trkpt>
      <trkpt lat="45.14614" lon="5.39509">
        <ele>764</ele>
        <time>2010-05-29T04:24:34Z</time>
      </trkpt>
      <trkpt lat="45.14675" lon="5.39522">
        <ele>745</ele>
        <time>2010-05-29T04:24:58Z</time>
      </trkpt>
      <trkpt lat="45.14809" lon="5.39568">
        <ele>736</ele>
        <time>2010-05-29T04:25:54Z</time>
      </trkpt>
      <trkpt lat="45.14875" lon="5.39584">
        <ele>736</ele>
        <time>2010-05-29T04:26:20Z</time>
      </trkpt>
      <trkpt lat="45.15066" lon="5.39691">
        <ele>707</ele>
        <time>2010-05-29T04:27:43Z</time>
      </trkpt>
      <trkpt lat="45.15154" lon="5.39722">
        <ele>712</ele>
        <time>2010-05-29T04:28:19Z</time>
      </trkpt>
      <trkpt lat="45.15226" lon="5.39727">
        <ele>706</ele>
        <time>2010-05-29T04:28:48Z</time>
      </trkpt>
      <trkpt lat="45.15316" lon="5.39711">
        <ele>701</ele>
        <time>2010-05-29T04:29:24Z</time>
      </trkpt>
      <trkpt lat="45.15357" lon="5.39688">
        <ele>682</ele>
        <time>2010-05-29T04:29:42Z</time>
      </trkpt>
      <trkpt lat="45.15367" lon="5.39664">
        <ele>682</ele>
        <time>2010-05-29T04:29:50Z</time>
      </trkpt>
      <trkpt lat="45.15367" lon="5.39653">
        <ele>682</ele>
        <time>2010-05-29T04:29:53Z</time>
      </trkpt>
      <trkpt lat="45.15363" lon="5.39649">
        <ele>682</ele>
        <time>2010-05-29T04:29:55Z</time>
      </trkpt>
      <trkpt lat="45.15343" lon="5.39658">
        <ele>682</ele>
        <time>2010-05-29T04:30:03Z</time>
      </trkpt>
      <trkpt lat="45.15317" lon="5.39661">
        <ele>682</ele>
        <time>2010-05-29T04:30:14Z</time>
      </trkpt>
      <trkpt lat="45.15289" lon="5.39657">
        <ele>683</ele>
        <time>2010-05-29T04:30:25Z</time>
      </trkpt>
      <trkpt lat="45.152" lon="5.39605">
        <ele>668</ele>
        <time>2010-05-29T04:31:03Z</time>
      </trkpt>
      <trkpt lat="45.15165" lon="5.39592">
        <ele>668</ele>
        <time>2010-05-29T04:31:18Z</time>
      </trkpt>
      <trkpt lat="45.15155" lon="5.39584">
        <ele>668</ele>
        <time>2010-05-29T04:31:22Z</time>
      </trkpt>
      <trkpt lat="45.15143" lon="5.39542">
        <ele>668</ele>
        <time>2010-05-29T04:31:35Z</time>
      </trkpt>
      <trkpt lat="45.15131" lon="5.39515">
        <ele>653</ele>
        <time>2010-05-29T04:31:44Z</time>
      </trkpt>
      <trkpt lat="45.15101" lon="5.39477">
        <ele>661</ele>
        <time>2010-05-29T04:32:00Z</time>
      </trkpt>
      <trkpt lat="45.1504" lon="5.39472">
        <ele>668</ele>
        <time>2010-05-29T04:32:25Z</time>
      </trkpt>
      <trkpt lat="45.14995" lon="5.39421">
        <ele>644</ele>
        <time>2010-05-29T04:32:48Z</time>
      </trkpt>
      <trkpt lat="45.14937" lon="5.39397">
        <ele>660</ele>
        <time>2010-05-29T04:33:12Z</time>
      </trkpt>
      <trkpt lat="45.14927" lon="5.39375">
        <ele>640</ele>
        <time>2010-05-29T04:33:19Z</time>
      </trkpt>
      <trkpt lat="45.14918" lon="5.39308">
        <ele>640</ele>
        <time>2010-05-29T04:33:39Z</time>
      </trkpt>
      <trkpt lat="45.14849" lon="5.3924">
        <ele>632</ele>
        <time>2010-05-29T04:34:12Z</time>
      </trkpt>
      <trkpt lat="45.14832" lon="5.39233">
        <ele>632</ele>
        <time>2010-05-29T04:34:19Z</time>
      </trkpt>
      <trkpt lat="45.14766" lon="5.39224">
        <ele>633</ele>
        <time>2010-05-29T04:34:46Z</time>
      </trkpt>
      <trkpt lat="45.14732" lon="5.39214">
        <ele>633</ele>
        <time>2010-05-29T04:35:00Z</time>
      </trkpt>
      <trkpt lat="45.14703" lon="5.39198">
        <ele>617</ele>
        <time>2010-05-29T04:35:12Z</time>
      </trkpt>
      <trkpt lat="45.14662" lon="5.39164">
        <ele>617</ele>
        <time>2010-05-29T04:35:31Z</time>
      </trkpt>
      <trkpt lat="45.14614" lon="5.39104">
        <ele>608</ele>
        <time>2010-05-29T04:35:57Z</time>
      </trkpt>
      <trkpt lat="45.14565" lon="5.39068">
        <ele>608</ele>
        <time>2010-05-29T04:36:19Z</time>
      </trkpt>
      <trkpt lat="45.14495" lon="5.39028">
        <ele>591</ele>
        <time>2010-05-29T04:36:49Z</time>
      </trkpt>
      <trkpt lat="45.14439" lon="5.39007">
        <ele>603</ele>
        <time>2010-05-29T04:37:12Z</time>
      </trkpt>
      <trkpt lat="45.14368" lon="5.38932">
        <ele>589</ele>
        <time>2010-05-29T04:37:48Z</time>
      </trkpt>
      <trkpt lat="45.14301" lon="5.38877">
        <ele>589</ele>
        <time>2010-05-29T04:38:19Z</time>
      </trkpt>
      <trkpt lat="45.14264" lon="5.38849">
        <ele>579</ele>
        <time>2010-05-29T04:38:36Z</time>
      </trkpt>
      <trkpt lat="45.14193" lon="5.38812">
        <ele>601</ele>
        <time>2010-05-29T04:39:06Z</time>
      </trkpt>
      <trkpt lat="45.14188" lon="5.38805">
        <ele>601</ele>
        <time>2010-05-29T04:39:09Z</time>
      </trkpt>
      <trkpt lat="45.14186" lon="5.38795">
        <ele>601</ele>
        <time>2010-05-29T04:39:12Z</time>
      </trkpt>
      <trkpt lat="45.14192" lon="5.38784">
        <ele>570</ele>
        <time>2010-05-29T04:39:16Z</time>
      </trkpt>
      <trkpt lat="45.14282" lon="5.38822">
        <ele>579</ele>
        <time>2010-05-29T04:39:53Z</time>
      </trkpt>
      <trkpt lat="45.14326" lon="5.38818">
        <ele>564</ele>
        <time>2010-05-29T04:40:11Z</time>
      </trkpt>
      <trkpt lat="45.14402" lon="5.38799">
        <ele>559</ele>
        <time>2010-05-29T04:40:42Z</time>
      </trkpt>
      <trkpt lat="45.14503" lon="5.38823">
        <ele>555</ele>
        <time>2010-05-29T04:41:23Z</time>
      </trkpt>
      <trkpt lat="45.14612" lon="5.38832">
        <ele>546</ele>
        <time>2010-05-29T04:42:06Z</time>
      </trkpt>
      <trkpt lat="45.14723" lon="5.38913">
        <ele>526</ele>
        <time>2010-05-29T04:42:56Z</time>
      </trkpt>
      <trkpt lat="45.14856" lon="5.38951">
        <ele>501</ele>
        <time>2010-05-29T04:43:51Z</time>
      </trkpt>
      <trkpt lat="45.14921" lon="5.3898">
        <ele>523</ele>
        <time>2010-05-29T04:44:18Z</time>
      </trkpt>
      <trkpt lat="45.15063" lon="5.39027">
        <ele>477</ele>
        <time>2010-05-29T04:45:16Z</time>
      </trkpt>
      <trkpt lat="45.151" lon="5.39056">
        <ele>519</ele>
        <time>2010-05-29T04:45:33Z</time>
      </trkpt>
      <trkpt lat="45.15165" lon="5.39063">
        <ele>501</ele>
        <time>2010-05-29T04:45:59Z</time>
      </trkpt>
      <trkpt lat="45.15211" lon="5.39084">
        <ele>480</ele>
        <time>2010-05-29T04:46:19Z</time>
      </trkpt>
      <trkpt lat="45.15227" lon="5.39078">
        <ele>480</ele>
        <time>2010-05-29T04:46:25Z</time>
      </trkpt>
      <trkpt lat="45.15225" lon="5.39057">
        <ele>480</ele>
        <time>2010-05-29T04:46:31Z</time>
      </trkpt>
      <trkpt lat="45.15216" lon="5.3905">
        <ele>480</ele>
        <time>2010-05-29T04:46:35Z</time>
      </trkpt>
      <trkpt lat="45.15176" lon="5.39028">
        <ele>461</ele>
        <time>2010-05-29T04:46:53Z</time>
      </trkpt>
      <trkpt lat="45.15139" lon="5.39019">
        <ele>461</ele>
        <time>2010-05-29T04:47:08Z</time>
      </trkpt>
      <trkpt lat="45.15113" lon="5.39006">
        <ele>477</ele>
        <time>2010-05-29T04:47:19Z</time>
      </trkpt>
      <trkpt lat="45.15069" lon="5.38961">
        <ele>477</ele>
        <time>2010-05-29T04:47:40Z</time>
      </trkpt>
      <trkpt lat="45.14995" lon="5.38909">
        <ele>457</ele>
        <time>2010-05-29T04:48:13Z</time>
      </trkpt>
      <trkpt lat="45.14842" lon="5.38807">
        <ele>460</ele>
        <time>2010-05-29T04:49:21Z</time>
      </trkpt>
      <trkpt lat="45.14745" lon="5.3875">
        <ele>439</ele>
        <time>2010-05-29T04:50:03Z</time>
      </trkpt>
      <trkpt lat="45.14717" lon="5.38725">
        <ele>439</ele>
        <time>2010-05-29T04:50:16Z</time>
      </trkpt>
      <trkpt lat="45.14586" lon="5.38573">
        <ele>423</ele>
        <time>2010-05-29T04:51:24Z</time>
      </trkpt>
      <trkpt lat="45.14568" lon="5.38559">
        <ele>423</ele>
        <time>2010-05-29T04:51:32Z</time>
      </trkpt>
      <trkpt lat="45.14516" lon="5.38539">
        <ele>404</ele>
        <time>2010-05-29T04:51:54Z</time>
      </trkpt>
      <trkpt lat="45.14499" lon="5.38525">
        <ele>404</ele>
        <time>2010-05-29T04:52:02Z</time>
      </trkpt>
      <trkpt lat="45.14427" lon="5.38435">
        <ele>392</ele>
        <time>2010-05-29T04:52:40Z</time>
      </trkpt>
      <trkpt lat="45.14349" lon="5.38384">
        <ele>403</ele>
        <time>2010-05-29T04:53:15Z</time>
      </trkpt>
      <trkpt lat="45.14321" lon="5.38334">
        <ele>378</ele>
        <time>2010-05-29T04:53:33Z</time>
      </trkpt>
      <trkpt lat="45.14306" lon="5.38315">
        <ele>378</ele>
        <time>2010-05-29T04:53:41Z</time>
      </trkpt>
      <trkpt lat="45.1429" lon="5.38303">
        <ele>392</ele>
        <time>2010-05-29T04:53:48Z</time>
      </trkpt>
      <trkpt lat="45.14196" lon="5.38268">
        <ele>372</ele>
        <time>2010-05-29T04:54:27Z</time>
      </trkpt>
      <trkpt lat="45.14146" lon="5.38263">
        <ele>372</ele>
        <time>2010-05-29T04:54:47Z</time>
      </trkpt>
      <trkpt lat="45.14143" lon="5.3825">
        <ele>372</ele>
        <time>2010-05-29T04:54:51Z</time>
      </trkpt>
      <trkpt lat="45.14148" lon="5.38242">
        <ele>372</ele>
        <time>2010-05-29T04:54:54Z</time>
      </trkpt>
      <trkpt lat="45.14173" lon="5.38234">
        <ele>372</ele>
        <time>2010-05-29T04:55:04Z</time>
      </trkpt>
      <trkpt lat="45.14275" lon="5.38253">
        <ele>368</ele>
        <time>2010-05-29T04:55:45Z</time>
      </trkpt>
      <trkpt lat="45.14371" lon="5.38248">
        <ele>361</ele>
        <time>2010-05-29T04:56:24Z</time>
      </trkpt>
      <trkpt lat="45.14416" lon="5.38269">
        <ele>340</ele>
        <time>2010-05-29T04:56:43Z</time>
      </trkpt>
      <trkpt lat="45.14464" lon="5.3831">
        <ele>347</ele>
        <time>2010-05-29T04:57:05Z</time>
      </trkpt>
      <trkpt lat="45.14494" lon="5.38314">
        <ele>347</ele>
        <time>2010-05-29T04:57:17Z</time>
      </trkpt>
      <trkpt lat="45.14518" lon="5.38297">
        <ele>347</ele>
        <time>2010-05-29T04:57:28Z</time>
      </trkpt>
      <trkpt lat="45.14561" lon="5.38228">
        <ele>332</ele>
        <time>2010-05-29T04:57:54Z</time>
      </trkpt>
      <trkpt lat="45.14572" lon="5.38199">
        <ele>324</ele>
        <time>2010-05-29T04:58:03Z</time>
      </trkpt>
      <trkpt lat="45.1459" lon="5.38122">
        <ele>320</ele>
        <time>2010-05-29T04:58:26Z</time>
      </trkpt>
      <trkpt lat="45.146" lon="5.3806">
        <ele>320</ele>
        <time>2010-05-29T04:58:44Z</time>
      </trkpt>
      <trkpt lat="45.146" lon="5.38032">
        <ele>315</ele>
        <time>2010-05-29T04:58:52Z</time>
      </trkpt>
      <trkpt lat="45.14588" lon="5.37983">
        <ele>315</ele>
        <time>2010-05-29T04:59:07Z</time>
      </trkpt>
      <trkpt lat="45.14573" lon="5.37959">
        <ele>315</ele>
        <time>2010-05-29T04:59:16Z</time>
      </trkpt>
      <trkpt lat="45.14554" lon="5.37937">
        <ele>306</ele>
        <time>2010-05-29T04:59:25Z</time>
      </trkpt>
      <trkpt lat="45.14489" lon="5.37881">
        <ele>313</ele>
        <time>2010-05-29T04:59:56Z</time>
      </trkpt>
      <trkpt lat="45.1447" lon="5.37855">
        <ele>297</ele>
        <time>2010-05-29T05:00:07Z</time>
      </trkpt>
      <trkpt lat="45.14464" lon="5.3784">
        <ele>297</ele>
        <time>2010-05-29T05:00:11Z</time>
      </trkpt>
      <trkpt lat="45.14461" lon="5.37814">
        <ele>297</ele>
        <time>2010-05-29T05:00:19Z</time>
      </trkpt>
      <trkpt lat="45.14468" lon="5.3781">
        <ele>297</ele>
        <time>2010-05-29T05:00:22Z</time>
      </trkpt>
      <trkpt lat="45.14499" lon="5.37814">
        <ele>297</ele>
        <time>2010-05-29T05:00:34Z</time>
      </trkpt>
      <trkpt lat="45.14532" lon="5.37833">
        <ele>297</ele>
        <time>2010-05-29T05:00:49Z</time>
      </trkpt>
      <trkpt lat="45.14603" lon="5.37891">
        <ele>306</ele>
        <time>2010-05-29T05:01:21Z</time>
      </trkpt>
      <trkpt lat="45.14617" lon="5.37898">
        <ele>306</ele>
        <time>2010-05-29T05:01:27Z</time>
      </trkpt>
      <trkpt lat="45.14626" lon="5.37898">
        <ele>284</ele>
        <time>2010-05-29T05:01:31Z</time>
      </trkpt>
      <trkpt lat="45.1463" lon="5.37893">
        <ele>284</ele>
        <time>2010-05-29T05:01:33Z</time>
      </trkpt>
      <trkpt lat="45.14632" lon="5.37885">
        <ele>284</ele>
        <time>2010-05-29T05:01:35Z</time>
      </trkpt>
      <trkpt lat="45.14628" lon="5.37875">
        <ele>284</ele>
        <time>2010-05-29T05:01:39Z</time>
      </trkpt>
      <trkpt lat="45.14571" lon="5.3781">
        <ele>287</ele>
        <time>2010-05-29T05:02:08Z</time>
      </trkpt>
      <trkpt lat="45.14504" lon="5.37725">
        <ele>279</ele>
        <time>2010-05-29T05:02:44Z</time>
      </trkpt>
      <trkpt lat="45.14442" lon="5.37696">
        <ele>259</ele>
        <time>2010-05-29T05:03:10Z</time>
      </trkpt>
      <trkpt lat="45.14435" lon="5.37675">
        <ele>259</ele>
        <time>2010-05-29T05:03:17Z</time>
      </trkpt>
      <trkpt lat="45.14407" lon="5.37667">
        <ele>259</ele>
        <time>2010-05-29T05:03:28Z</time>
      </trkpt>
      <trkpt lat="45.14372" lon="5.3761">
        <ele>267</ele>
        <time>2010-05-29T05:03:49Z</time>
      </trkpt>
      <trkpt lat="45.14341" lon="5.37578">
        <ele>267</ele>
        <time>2010-05-29T05:04:05Z</time>
      </trkpt>
      <trkpt lat="45.14329" lon="5.37515">
        <ele>265</ele>
        <time>2010-05-29T05:04:23Z</time>
      </trkpt>
      <trkpt lat="45.14294" lon="5.37442">
        <ele>254</ele>
        <time>2010-05-29T05:04:48Z</time>
      </trkpt>
      <trkpt lat="45.14274" lon="5.37406">
        <ele>283</ele>
        <time>2010-05-29T05:05:01Z</time>
      </trkpt>
      <trkpt lat="45.142" lon="5.37308">
        <ele>288</ele>
        <time>2010-05-29T05:05:42Z</time>
      </trkpt>
      <trkpt lat="45.14156" lon="5.37227">
        <ele>282</ele>
        <time>2010-05-29T05:06:10Z</time>
      </trkpt>
      <trkpt lat="45.14102" lon="5.37146">
        <ele>287</ele>
        <time>2010-05-29T05:06:42Z</time>
      </trkpt>
      <trkpt lat="45.14022" lon="5.37144">
        <ele>288</ele>
        <time>2010-05-29T05:07:14Z</time>
      </trkpt>
      <trkpt lat="45.13997" lon="5.37154">
        <ele>288</ele>
        <time>2010-05-29T05:07:24Z</time>
      </trkpt>
      <trkpt lat="45.13982" lon="5.37175">
        <ele>288</ele>
        <time>2010-05-29T05:07:33Z</time>
      </trkpt>
      <trkpt lat="45.13952" lon="5.37237">
        <ele>293</ele>
        <time>2010-05-29T05:07:54Z</time>
      </trkpt>
      <trkpt lat="45.13906" lon="5.37354">
        <ele>295</ele>
        <time>2010-05-29T05:08:32Z</time>
      </trkpt>
      <trkpt lat="45.13897" lon="5.37387">
        <ele>302</ele>
        <time>2010-05-29T05:08:42Z</time>
      </trkpt>
      <trkpt lat="45.13879" lon="5.37425">
        <ele>302</ele>
        <time>2010-05-29T05:08:55Z</time>
      </trkpt>
      <trkpt lat="45.13866" lon="5.37432">
        <ele>305</ele>
        <time>2010-05-29T05:09:00Z</time>
      </trkpt>
      <trkpt lat="45.13787" lon="5.37435">
        <ele>307</ele>
        <time>2010-05-29T05:09:32Z</time>
      </trkpt>
      <trkpt lat="45.13775" lon="5.37447">
        <ele>307</ele>
        <time>2010-05-29T05:09:38Z</time>
      </trkpt>
      <trkpt lat="45.13744" lon="5.37507">
        <ele>315</ele>
        <time>2010-05-29T05:09:59Z</time>
      </trkpt>
      <trkpt lat="45.1373" lon="5.37522">
        <ele>315</ele>
        <time>2010-05-29T05:10:06Z</time>
      </trkpt>
      <trkpt lat="45.13719" lon="5.37524">
        <ele>315</ele>
        <time>2010-05-29T05:10:10Z</time>
      </trkpt>
      <trkpt lat="45.13689" lon="5.37521">
        <ele>315</ele>
        <time>2010-05-29T05:10:22Z</time>
      </trkpt>
      <trkpt lat="45.13646" lon="5.37505">
        <ele>315</ele>
        <time>2010-05-29T05:10:40Z</time>
      </trkpt>
      <trkpt lat="45.13536" lon="5.37491">
        <ele>323</ele>
        <time>2010-05-29T05:11:24Z</time>
      </trkpt>
      <trkpt lat="45.13503" lon="5.37465">
        <ele>323</ele>
        <time>2010-05-29T05:11:39Z</time>
      </trkpt>
      <trkpt lat="45.13419" lon="5.37419">
        <ele>325</ele>
        <time>2010-05-29T05:12:16Z</time>
      </trkpt>
      <trkpt lat="45.13292" lon="5.37374">
        <ele>321</ele>
        <time>2010-05-29T05:13:08Z</time>
      </trkpt>
      <trkpt lat="45.13279" lon="5.37374">
        <ele>328</ele>
        <time>2010-05-29T05:13:13Z</time>
      </trkpt>
      <trkpt lat="45.13263" lon="5.37385">
        <ele>330</ele>
        <time>2010-05-29T05:13:20Z</time>
      </trkpt>
      <trkpt lat="45.13227" lon="5.37481">
        <ele>336</ele>
        <time>2010-05-29T05:13:51Z</time>
      </trkpt>
      <trkpt lat="45.13218" lon="5.3749">
        <ele>336</ele>
        <time>2010-05-29T05:13:55Z</time>
      </trkpt>
      <trkpt lat="45.13206" lon="5.37491">
        <ele>346</ele>
        <time>2010-05-29T05:14:00Z</time>
      </trkpt>
      <trkpt lat="45.13199" lon="5.37484">
        <ele>346</ele>
        <time>2010-05-29T05:14:04Z</time>
      </trkpt>
      <trkpt lat="45.13195" lon="5.37471">
        <ele>346</ele>
        <time>2010-05-29T05:14:08Z</time>
      </trkpt>
      <trkpt lat="45.13204" lon="5.37417">
        <ele>347</ele>
        <time>2010-05-29T05:14:23Z</time>
      </trkpt>
      <trkpt lat="45.13228" lon="5.37355">
        <ele>328</ele>
        <time>2010-05-29T05:14:43Z</time>
      </trkpt>
      <trkpt lat="45.13275" lon="5.37283">
        <ele>331</ele>
        <time>2010-05-29T05:15:11Z</time>
      </trkpt>
      <trkpt lat="45.1328" lon="5.37256">
        <ele>331</ele>
        <time>2010-05-29T05:15:19Z</time>
      </trkpt>
      <trkpt lat="45.13276" lon="5.37232">
        <ele>331</ele>
        <time>2010-05-29T05:15:26Z</time>
      </trkpt>
      <trkpt lat="45.13258" lon="5.37202">
        <ele>326</ele>
        <time>2010-05-29T05:15:37Z</time>
      </trkpt>
      <trkpt lat="45.1323" lon="5.37169">
        <ele>326</ele>
        <time>2010-05-29T05:15:51Z</time>
      </trkpt>
      <trkpt lat="45.13185" lon="5.37111">
        <ele>333</ele>
        <time>2010-05-29T05:16:16Z</time>
      </trkpt>
      <trkpt lat="45.13046" lon="5.36944">
        <ele>329</ele>
        <time>2010-05-29T05:17:29Z</time>
      </trkpt>
      <trkpt lat="45.13004" lon="5.36877">
        <ele>336</ele>
        <time>2010-05-29T05:17:54Z</time>
      </trkpt>
      <trkpt lat="45.12963" lon="5.36824">
        <ele>331</ele>
        <time>2010-05-29T05:18:16Z</time>
      </trkpt>
      <trkpt lat="45.12686" lon="5.36646">
        <ele>337</ele>
        <time>2010-05-29T05:20:18Z</time>
      </trkpt>
      <trkpt lat="45.12611" lon="5.3661">
        <ele>336</ele>
        <time>2010-05-29T05:20:50Z</time>
      </trkpt>
      <trkpt lat="45.1258" lon="5.36604">
        <ele>336</ele>
        <time>2010-05-29T05:21:02Z</time>
      </trkpt>
      <trkpt lat="45.12458" lon="5.36604">
        <ele>348</ele>
        <time>2010-05-29T05:21:51Z</time>
      </trkpt>
      <trkpt lat="45.12427" lon="5.36597">
        <ele>348</ele>
        <time>2010-05-29T05:22:04Z</time>
      </trkpt>
      <trkpt lat="45.12392" lon="5.36579">
        <ele>348</ele>
        <time>2010-05-29T05:22:19Z</time>
      </trkpt>
      <trkpt lat="45.12363" lon="5.36554">
        <ele>355</ele>
        <time>2010-05-29T05:22:32Z</time>
      </trkpt>
      <trkpt lat="45.1231" lon="5.36447">
        <ele>354</ele>
        <time>2010-05-29T05:23:09Z</time>
      </trkpt>
      <trkpt lat="45.12271" lon="5.36406">
        <ele>361</ele>
        <time>2010-05-29T05:23:29Z</time>
      </trkpt>
      <trkpt lat="45.12248" lon="5.36379">
        <ele>361</ele>
        <time>2010-05-29T05:23:40Z</time>
      </trkpt>
      <trkpt lat="45.12158" lon="5.36237">
        <ele>366</ele>
        <time>2010-05-29T05:24:34Z</time>
      </trkpt>
      <trkpt lat="45.12118" lon="5.36182">
        <ele>371</ele>
        <time>2010-05-29T05:24:57Z</time>
      </trkpt>
      <trkpt lat="45.12108" lon="5.36159">
        <ele>371</ele>
        <time>2010-05-29T05:25:04Z</time>
      </trkpt>
      <trkpt lat="45.12117" lon="5.36089">
        <ele>359</ele>
        <time>2010-05-29T05:25:24Z</time>
      </trkpt>
      <trkpt lat="45.12139" lon="5.36027">
        <ele>359</ele>
        <time>2010-05-29T05:25:44Z</time>
      </trkpt>
      <trkpt lat="45.12176" lon="5.35981">
        <ele>359</ele>
        <time>2010-05-29T05:26:04Z</time>
      </trkpt>
      <trkpt lat="45.12201" lon="5.35962">
        <ele>359</ele>
        <time>2010-05-29T05:26:15Z</time>
      </trkpt>
      <trkpt lat="45.12531" lon="5.35911">
        <ele>345</ele>
        <time>2010-05-29T05:28:28Z</time>
      </trkpt>
      <trkpt lat="45.12561" lon="5.35905">
        <ele>339</ele>
        <time>2010-05-29T05:28:40Z</time>
      </trkpt>
      <trkpt lat="45.12587" lon="5.35893">
        <ele>339</ele>
        <time>2010-05-29T05:28:51Z</time>
      </trkpt>
      <trkpt lat="45.12606" lon="5.35831">
        <ele>338</ele>
        <time>2010-05-29T05:29:10Z</time>
      </trkpt>
      <trkpt lat="45.12616" lon="5.35761">
        <ele>338</ele>
        <time>2010-05-29T05:29:30Z</time>
      </trkpt>
      <trkpt lat="45.1265" lon="5.35693">
        <ele>331</ele>
        <time>2010-05-29T05:29:54Z</time>
      </trkpt>
      <trkpt lat="45.127" lon="5.35625">
        <ele>331</ele>
        <time>2010-05-29T05:30:22Z</time>
      </trkpt>
      <trkpt lat="45.12701" lon="5.35614">
        <ele>326</ele>
        <time>2010-05-29T05:30:25Z</time>
      </trkpt>
      <trkpt lat="45.12688" lon="5.35578">
        <ele>326</ele>
        <time>2010-05-29T05:30:36Z</time>
      </trkpt>
      <trkpt lat="45.12686" lon="5.35511">
        <ele>319</ele>
        <time>2010-05-29T05:30:55Z</time>
      </trkpt>
      <trkpt lat="45.12682" lon="5.35493">
        <ele>319</ele>
        <time>2010-05-29T05:31:00Z</time>
      </trkpt>
      <trkpt lat="45.12654" lon="5.35435">
        <ele>306</ele>
        <time>2010-05-29T05:31:20Z</time>
      </trkpt>
      <trkpt lat="45.12638" lon="5.3539">
        <ele>306</ele>
        <time>2010-05-29T05:31:34Z</time>
      </trkpt>
      <trkpt lat="45.12631" lon="5.35379">
        <ele>306</ele>
        <time>2010-05-29T05:31:39Z</time>
      </trkpt>
      <trkpt lat="45.12605" lon="5.35361">
        <ele>316</ele>
        <time>2010-05-29T05:31:50Z</time>
      </trkpt>
      <trkpt lat="45.12601" lon="5.35351">
        <ele>316</ele>
        <time>2010-05-29T05:31:53Z</time>
      </trkpt>
      <trkpt lat="45.12601" lon="5.35274">
        <ele>301</ele>
        <time>2010-05-29T05:32:15Z</time>
      </trkpt>
      <trkpt lat="45.12597" lon="5.35252">
        <ele>301</ele>
        <time>2010-05-29T05:32:22Z</time>
      </trkpt>
      <trkpt lat="45.12582" lon="5.3523">
        <ele>301</ele>
        <time>2010-05-29T05:32:30Z</time>
      </trkpt>
      <trkpt lat="45.12547" lon="5.35201">
        <ele>283</ele>
        <time>2010-05-29T05:32:47Z</time>
      </trkpt>
      <trkpt lat="45.12544" lon="5.3519">
        <ele>283</ele>
        <time>2010-05-29T05:32:50Z</time>
      </trkpt>
      <trkpt lat="45.12544" lon="5.35175">
        <ele>283</ele>
        <time>2010-05-29T05:32:54Z</time>
      </trkpt>
      <trkpt lat="45.12559" lon="5.351">
        <ele>271</ele>
        <time>2010-05-29T05:33:16Z</time>
      </trkpt>
      <trkpt lat="45.1256" lon="5.35076">
        <ele>271</ele>
        <time>2010-05-29T05:33:23Z</time>
      </trkpt>
      <trkpt lat="45.12552" lon="5.35034">
        <ele>260</ele>
        <time>2010-05-29T05:33:35Z</time>
      </trkpt>
      <trkpt lat="45.12528" lon="5.34983">
        <ele>296</ele>
        <time>2010-05-29T05:33:53Z</time>
      </trkpt>
      <trkpt lat="45.12531" lon="5.34868">
        <ele>276</ele>
        <time>2010-05-29T05:34:25Z</time>
      </trkpt>
      <trkpt lat="45.12541" lon="5.34837">
        <ele>276</ele>
        <time>2010-05-29T05:34:35Z</time>
      </trkpt>
      <trkpt lat="45.12542" lon="5.34822">
        <ele>240</ele>
        <time>2010-05-29T05:34:39Z</time>
      </trkpt>
      <trkpt lat="45.12533" lon="5.34762">
        <ele>271</ele>
        <time>2010-05-29T05:34:56Z</time>
      </trkpt>
      <trkpt lat="45.12545" lon="5.34695">
        <ele>237</ele>
        <time>2010-05-29T05:35:16Z</time>
      </trkpt>
      <trkpt lat="45.12543" lon="5.34648">
        <ele>237</ele>
        <time>2010-05-29T05:35:29Z</time>
      </trkpt>
      <trkpt lat="45.12533" lon="5.34595">
        <ele>268</ele>
        <time>2010-05-29T05:35:45Z</time>
      </trkpt>
      <trkpt lat="45.1253" lon="5.34524">
        <ele>260</ele>
        <time>2010-05-29T05:36:05Z</time>
      </trkpt>
      <trkpt lat="45.12527" lon="5.34508">
        <ele>260</ele>
        <time>2010-05-29T05:36:09Z</time>
      </trkpt>
      <trkpt lat="45.12434" lon="5.34266">
        <ele>253</ele>
        <time>2010-05-29T05:37:27Z</time>
      </trkpt>
      <trkpt lat="45.12416" lon="5.34091">
        <ele>229</ele>
        <time>2010-05-29T05:38:17Z</time>
      </trkpt>
      <trkpt lat="45.12412" lon="5.3397">
        <ele>214</ele>
        <time>2010-05-29T05:38:51Z</time>
      </trkpt>
      <trkpt lat="45.12417" lon="5.33948">
        <ele>204</ele>
        <time>2010-05-29T05:38:58Z</time>
      </trkpt>
      <trkpt lat="45.12442" lon="5.33919">
        <ele>204</ele>
        <time>2010-05-29T05:39:11Z</time>
      </trkpt>
      <trkpt lat="45.12457" lon="5.33917">
        <ele>204</ele>
        <time>2010-05-29T05:39:17Z</time>
      </trkpt>
      <trkpt lat="45.12498" lon="5.33928">
        <ele>205</ele>
        <time>2010-05-29T05:39:33Z</time>
      </trkpt>
      <trkpt lat="45.12514" lon="5.33921">
        <ele>205</ele>
        <time>2010-05-29T05:39:40Z</time>
      </trkpt>
      <trkpt lat="45.12478" lon="5.33721">
        <ele>201</ele>
        <time>2010-05-29T05:40:38Z</time>
      </trkpt>
      <trkpt lat="45.12569" lon="5.33722">
        <ele>197</ele>
        <time>2010-05-29T05:41:15Z</time>
      </trkpt>
      <trkpt lat="45.12583" lon="5.33716">
        <ele>197</ele>
        <time>2010-05-29T05:41:21Z</time>
      </trkpt>
      <trkpt lat="45.12584" lon="5.33689">
        <ele>192</ele>
        <time>2010-05-29T05:41:28Z</time>
      </trkpt>
      <trkpt lat="45.12542" lon="5.33595">
        <ele>182</ele>
        <time>2010-05-29T05:42:00Z</time>
      </trkpt>
      <trkpt lat="45.12523" lon="5.33527">
        <ele>197</ele>
        <time>2010-05-29T05:42:20Z</time>
      </trkpt>
      <trkpt lat="45.12494" lon="5.33479">
        <ele>197</ele>
        <time>2010-05-29T05:42:38Z</time>
      </trkpt>
      <trkpt lat="45.12479" lon="5.3344">
        <ele>189</ele>
        <time>2010-05-29T05:42:51Z</time>
      </trkpt>
      <trkpt lat="45.12474" lon="5.33405">
        <ele>189</ele>
        <time>2010-05-29T05:43:01Z</time>
      </trkpt>
      <trkpt lat="45.12477" lon="5.3334">
        <ele>181</ele>
        <time>2010-05-29T05:43:19Z</time>
      </trkpt>
      <trkpt lat="45.12476" lon="5.333">
        <ele>181</ele>
        <time>2010-05-29T05:43:31Z</time>
      </trkpt>
      <trkpt lat="45.12472" lon="5.33282">
        <ele>177</ele>
        <time>2010-05-29T05:43:36Z</time>
      </trkpt>
      <trkpt lat="45.12434" lon="5.33227">
        <ele>191</ele>
        <time>2010-05-29T05:43:58Z</time>
      </trkpt>
      <trkpt lat="45.12398" lon="5.3316">
        <ele>183</ele>
        <time>2010-05-29T05:44:22Z</time>
      </trkpt>
      <trkpt lat="45.12398" lon="5.33131">
        <ele>183</ele>
        <time>2010-05-29T05:44:30Z</time>
      </trkpt>
      <trkpt lat="45.12406" lon="5.33089">
        <ele>180</ele>
        <time>2010-05-29T05:44:42Z</time>
      </trkpt>
      <trkpt lat="45.12435" lon="5.33073">
        <ele>180</ele>
        <time>2010-05-29T05:44:54Z</time>
      </trkpt>
      <trkpt lat="45.12489" lon="5.33016">
        <ele>177</ele>
        <time>2010-05-29T05:45:21Z</time>
      </trkpt>
      <trkpt lat="45.12549" lon="5.32976">
        <ele>192</ele>
        <time>2010-05-29T05:45:48Z</time>
      </trkpt>
      <trkpt lat="45.12562" lon="5.32963">
        <ele>192</ele>
        <time>2010-05-29T05:45:54Z</time>
      </trkpt>
      <trkpt lat="45.12566" lon="5.32951">
        <ele>205</ele>
        <time>2010-05-29T05:45:58Z</time>
      </trkpt>
      <trkpt lat="45.12565" lon="5.32928">
        <ele>205</ele>
        <time>2010-05-29T05:46:05Z</time>
      </trkpt>
      <trkpt lat="45.12471" lon="5.32575">
        <ele>202</ele>
        <time>2010-05-29T05:47:51Z</time>
      </trkpt>
      <trkpt lat="45.12412" lon="5.32386">
        <ele>186</ele>
        <time>2010-05-29T05:48:50Z</time>
      </trkpt>
      <trkpt lat="45.12407" lon="5.32339">
        <ele>181</ele>
        <time>2010-05-29T05:49:03Z</time>
      </trkpt>
      <trkpt lat="45.1242" lon="5.32294">
        <ele>181</ele>
        <time>2010-05-29T05:49:17Z</time>
      </trkpt>
      <trkpt lat="45.12435" lon="5.32269">
        <ele>184</ele>
        <time>2010-05-29T05:49:26Z</time>
      </trkpt>
      <trkpt lat="45.12431" lon="5.32249">
        <ele>184</ele>
        <time>2010-05-29T05:49:32Z</time>
      </trkpt>
      <trkpt lat="45.12418" lon="5.32217">
        <ele>184</ele>
        <time>2010-05-29T05:49:42Z</time>
      </trkpt>
      <trkpt lat="45.1239" lon="5.32183">
        <ele>198</ele>
        <time>2010-05-29T05:49:57Z</time>
      </trkpt>
      <trkpt lat="45.12361" lon="5.32126">
        <ele>184</ele>
        <time>2010-05-29T05:50:17Z</time>
      </trkpt>
      <trkpt lat="45.1234" lon="5.32054">
        <ele>191</ele>
        <time>2010-05-29T05:50:39Z</time>
      </trkpt>
      <trkpt lat="45.12328" lon="5.31979">
        <ele>196</ele>
        <time>2010-05-29T05:51:01Z</time>
      </trkpt>
      <trkpt lat="45.12278" lon="5.31772">
        <ele>191</ele>
        <time>2010-05-29T05:52:02Z</time>
      </trkpt>
      <trkpt lat="45.12266" lon="5.31698">
        <ele>199</ele>
        <time>2010-05-29T05:52:24Z</time>
      </trkpt>
      <trkpt lat="45.12263" lon="5.31645">
        <ele>199</ele>
        <time>2010-05-29T05:52:39Z</time>
      </trkpt>
      <trkpt lat="45.12267" lon="5.31581">
        <ele>202</ele>
        <time>2010-05-29T05:52:57Z</time>
      </trkpt>
      <trkpt lat="45.12253" lon="5.3153">
        <ele>208</ele>
        <time>2010-05-29T05:53:12Z</time>
      </trkpt>
      <trkpt lat="45.12247" lon="5.31488">
        <ele>208</ele>
        <time>2010-05-29T05:53:25Z</time>
      </trkpt>
      <trkpt lat="45.12241" lon="5.31291">
        <ele>228</ele>
        <time>2010-05-29T05:54:20Z</time>
      </trkpt>
      <trkpt lat="45.12225" lon="5.31173">
        <ele>237</ele>
        <time>2010-05-29T05:54:54Z</time>
      </trkpt>
      <trkpt lat="45.12106" lon="5.30606">
        <ele>237</ele>
        <time>2010-05-29T05:57:41Z</time>
      </trkpt>
      <trkpt lat="45.12093" lon="5.3056">
        <ele>237</ele>
        <time>2010-05-29T05:57:55Z</time>
      </trkpt>
      <trkpt lat="45.12086" lon="5.30508">
        <ele>244</ele>
        <time>2010-05-29T05:58:10Z</time>
      </trkpt>
      <trkpt lat="45.12099" lon="5.30474">
        <ele>244</ele>
        <time>2010-05-29T05:58:21Z</time>
      </trkpt>
      <trkpt lat="45.12112" lon="5.3046">
        <ele>244</ele>
        <time>2010-05-29T05:58:28Z</time>
      </trkpt>
      <trkpt lat="45.12139" lon="5.30445">
        <ele>256</ele>
        <time>2010-05-29T05:58:39Z</time>
      </trkpt>
      <trkpt lat="45.12205" lon="5.30444">
        <ele>256</ele>
        <time>2010-05-29T05:59:06Z</time>
      </trkpt>
      <trkpt lat="45.123" lon="5.3042">
        <ele>265</ele>
        <time>2010-05-29T05:59:44Z</time>
      </trkpt>
      <trkpt lat="45.12379" lon="5.30387">
        <ele>267</ele>
        <time>2010-05-29T06:00:17Z</time>
      </trkpt>
      <trkpt lat="45.12497" lon="5.30557">
        <ele>268</ele>
        <time>2010-05-29T06:01:25Z</time>
      </trkpt>
      <trkpt lat="45.12512" lon="5.30571">
        <ele>268</ele>
        <time>2010-05-29T06:01:32Z</time>
      </trkpt>
      <trkpt lat="45.12529" lon="5.30549">
        <ele>268</ele>
        <time>2010-05-29T06:01:41Z</time>
      </trkpt>
      <trkpt lat="45.12577" lon="5.30461">
        <ele>268</ele>
        <time>2010-05-29T06:02:12Z</time>
      </trkpt>
      <trkpt lat="45.1263" lon="5.30376">
        <ele>267</ele>
        <time>2010-05-29T06:02:45Z</time>
      </trkpt>
      <trkpt lat="45.12651" lon="5.30329">
        <ele>267</ele>
        <time>2010-05-29T06:03:00Z</time>
      </trkpt>
      <trkpt lat="45.12664" lon="5.30266">
        <ele>266</ele>
        <time>2010-05-29T06:03:19Z</time>
      </trkpt>
      <trkpt lat="45.12687" lon="5.30232">
        <ele>266</ele>
        <time>2010-05-29T06:03:32Z</time>
      </trkpt>
      <trkpt lat="45.12744" lon="5.30166">
        <ele>266</ele>
        <time>2010-05-29T06:04:02Z</time>
      </trkpt>
      <trkpt lat="45.12775" lon="5.30145">
        <ele>266</ele>
        <time>2010-05-29T06:04:15Z</time>
      </trkpt>
      <trkpt lat="45.12828" lon="5.30128">
        <ele>264</ele>
        <time>2010-05-29T06:04:37Z</time>
      </trkpt>
      <trkpt lat="45.12847" lon="5.30117">
        <ele>262</ele>
        <time>2010-05-29T06:04:45Z</time>
      </trkpt>
      <trkpt lat="45.12873" lon="5.30099">
        <ele>262</ele>
        <time>2010-05-29T06:04:57Z</time>
      </trkpt>
      <trkpt lat="45.12994" lon="5.29994">
        <ele>267</ele>
        <time>2010-05-29T06:05:54Z</time>
      </trkpt>
      <trkpt lat="45.13068" lon="5.29908">
        <ele>269</ele>
        <time>2010-05-29T06:06:32Z</time>
      </trkpt>
      <trkpt lat="45.13241" lon="5.29686">
        <ele>267</ele>
        <time>2010-05-29T06:08:05Z</time>
      </trkpt>
      <trkpt lat="45.13377" lon="5.29539">
        <ele>266</ele>
        <time>2010-05-29T06:09:14Z</time>
      </trkpt>
      <trkpt lat="45.13434" lon="5.29471">
        <ele>266</ele>
        <time>2010-05-29T06:09:44Z</time>
      </trkpt>
      <trkpt lat="45.13504" lon="5.29403">
        <ele>269</ele>
        <time>2010-05-29T06:10:18Z</time>
      </trkpt>
      <trkpt lat="45.13669" lon="5.29216">
        <ele>268</ele>
        <time>2010-05-29T06:11:42Z</time>
      </trkpt>
      <trkpt lat="45.13736" lon="5.29125">
        <ele>272</ele>
        <time>2010-05-29T06:12:19Z</time>
      </trkpt>
      <trkpt lat="45.13823" lon="5.29018">
        <ele>273</ele>
        <time>2010-05-29T06:13:05Z</time>
      </trkpt>
      <trkpt lat="45.14024" lon="5.2884">
        <ele>278</ele>
        <time>2010-05-29T06:14:40Z</time>
      </trkpt>
      <trkpt lat="45.14056" lon="5.28829">
        <ele>279</ele>
        <time>2010-05-29T06:14:53Z</time>
      </trkpt>
      <trkpt lat="45.14127" lon="5.28775">
        <ele>282</ele>
        <time>2010-05-29T06:15:26Z</time>
      </trkpt>
      <trkpt lat="45.14139" lon="5.28769">
        <ele>282</ele>
        <time>2010-05-29T06:15:31Z</time>
      </trkpt>
      <trkpt lat="45.14142" lon="5.28775">
        <ele>282</ele>
        <time>2010-05-29T06:15:33Z</time>
      </trkpt>
      <trkpt lat="45.14149" lon="5.28774">
        <ele>282</ele>
        <time>2010-05-29T06:15:36Z</time>
      </trkpt>
      <trkpt lat="45.14151" lon="5.28767">
        <ele>282</ele>
        <time>2010-05-29T06:15:38Z</time>
      </trkpt>
      <trkpt lat="45.14148" lon="5.2876">
        <ele>282</ele>
        <time>2010-05-29T06:15:40Z</time>
      </trkpt>
      <trkpt lat="45.14153" lon="5.28746">
        <ele>282</ele>
        <time>2010-05-29T06:15:45Z</time>
      </trkpt>
      <trkpt lat="45.14198" lon="5.28672">
        <ele>281</ele>
        <time>2010-05-29T06:16:12Z</time>
      </trkpt>
      <trkpt lat="45.14221" lon="5.28614">
        <ele>285</ele>
        <time>2010-05-29T06:16:31Z</time>
      </trkpt>
      <trkpt lat="45.14269" lon="5.28468">
        <ele>285</ele>
        <time>2010-05-29T06:17:16Z</time>
      </trkpt>
      <trkpt lat="45.14303" lon="5.28382">
        <ele>285</ele>
        <time>2010-05-29T06:17:44Z</time>
      </trkpt>
      <trkpt lat="45.1434" lon="5.28302">
        <ele>285</ele>
        <time>2010-05-29T06:18:11Z</time>
      </trkpt>
      <trkpt lat="45.14348" lon="5.28272">
        <ele>285</ele>
        <time>2010-05-29T06:18:20Z</time>
      </trkpt>
      <trkpt lat="45.14357" lon="5.28159">
        <ele>285</ele>
        <time>2010-05-29T06:18:52Z</time>
      </trkpt>
      <trkpt lat="45.14364" lon="5.28122">
        <ele>283</ele>
        <time>2010-05-29T06:19:03Z</time>
      </trkpt>
      <trkpt lat="45.14337" lon="5.28098">
        <ele>283</ele>
        <time>2010-05-29T06:19:16Z</time>
      </trkpt>
      <trkpt lat="45.14301" lon="5.28082">
        <ele>283</ele>
        <time>2010-05-29T06:19:31Z</time>
      </trkpt>
      <trkpt lat="45.14235" lon="5.28073">
        <ele>283</ele>
        <time>2010-05-29T06:19:58Z</time>
      </trkpt>
      <trkpt lat="45.14223" lon="5.28063">
        <ele>283</ele>
        <time>2010-05-29T06:20:03Z</time>
      </trkpt>
      <trkpt lat="45.14209" lon="5.28041">
        <ele>281</ele>
        <time>2010-05-29T06:20:12Z</time>
      </trkpt>
      <trkpt lat="45.14194" lon="5.28011">
        <ele>281</ele>
        <time>2010-05-29T06:20:22Z</time>
      </trkpt>
      <trkpt lat="45.14185" lon="5.27982">
        <ele>281</ele>
        <time>2010-05-29T06:20:31Z</time>
      </trkpt>
      <trkpt lat="45.14164" lon="5.27841">
        <ele>280</ele>
        <time>2010-05-29T06:21:12Z</time>
      </trkpt>
      <trkpt lat="45.14141" lon="5.27776">
        <ele>282</ele>
        <time>2010-05-29T06:21:32Z</time>
      </trkpt>
      <trkpt lat="45.14115" lon="5.27736">
        <ele>278</ele>
        <time>2010-05-29T06:21:48Z</time>
      </trkpt>
      <trkpt lat="45.13955" lon="5.27536">
        <ele>275</ele>
        <time>2010-05-29T06:23:13Z</time>
      </trkpt>
      <trkpt lat="45.13916" lon="5.27459">
        <ele>275</ele>
        <time>2010-05-29T06:23:40Z</time>
      </trkpt>
      <trkpt lat="45.13881" lon="5.27338">
        <ele>287</ele>
        <time>2010-05-29T06:24:17Z</time>
      </trkpt>
      <trkpt lat="45.13853" lon="5.27293">
        <ele>277</ele>
        <time>2010-05-29T06:24:34Z</time>
      </trkpt>
      <trkpt lat="45.13771" lon="5.27244">
        <ele>290</ele>
        <time>2010-05-29T06:25:09Z</time>
      </trkpt>
      <trkpt lat="45.13738" lon="5.27219">
        <ele>290</ele>
        <time>2010-05-29T06:25:24Z</time>
      </trkpt>
      <trkpt lat="45.13719" lon="5.27192">
        <ele>302</ele>
        <time>2010-05-29T06:25:35Z</time>
      </trkpt>
      <trkpt lat="45.13714" lon="5.27176">
        <ele>302</ele>
        <time>2010-05-29T06:25:40Z</time>
      </trkpt>
      <trkpt lat="45.13707" lon="5.27113">
        <ele>299</ele>
        <time>2010-05-29T06:25:58Z</time>
      </trkpt>
      <trkpt lat="45.13707" lon="5.2699">
        <ele>300</ele>
        <time>2010-05-29T06:26:33Z</time>
      </trkpt>
      <trkpt lat="45.13703" lon="5.26942">
        <ele>300</ele>
        <time>2010-05-29T06:26:46Z</time>
      </trkpt>
      <trkpt lat="45.13682" lon="5.26857">
        <ele>299</ele>
        <time>2010-05-29T06:27:12Z</time>
      </trkpt>
      <trkpt lat="45.13639" lon="5.26639">
        <ele>299</ele>
        <time>2010-05-29T06:28:16Z</time>
      </trkpt>
      <trkpt lat="45.13621" lon="5.2654">
        <ele>297</ele>
        <time>2010-05-29T06:28:44Z</time>
      </trkpt>
      <trkpt lat="45.13606" lon="5.26423">
        <ele>296</ele>
        <time>2010-05-29T06:29:18Z</time>
      </trkpt>
      <trkpt lat="45.136" lon="5.26401">
        <ele>296</ele>
        <time>2010-05-29T06:29:25Z</time>
      </trkpt>
      <trkpt lat="45.13579" lon="5.26368">
        <ele>291</ele>
        <time>2010-05-29T06:29:37Z</time>
      </trkpt>
      <trkpt lat="45.13439" lon="5.26204">
        <ele>294</ele>
        <time>2010-05-29T06:30:50Z</time>
      </trkpt>
      <trkpt lat="45.13398" lon="5.26169">
        <ele>294</ele>
        <time>2010-05-29T06:31:09Z</time>
      </trkpt>
      <trkpt lat="45.13314" lon="5.2612">
        <ele>296</ele>
        <time>2010-05-29T06:31:45Z</time>
      </trkpt>
      <trkpt lat="45.13301" lon="5.26097">
        <ele>296</ele>
        <time>2010-05-29T06:31:54Z</time>
      </trkpt>
      <trkpt lat="45.1329" lon="5.26062">
        <ele>292</ele>
        <time>2010-05-29T06:32:05Z</time>
      </trkpt>
      <trkpt lat="45.1327" lon="5.25978">
        <ele>297</ele>
        <time>2010-05-29T06:32:30Z</time>
      </trkpt>
      <trkpt lat="45.13273" lon="5.25941">
        <ele>297</ele>
        <time>2010-05-29T06:32:40Z</time>
      </trkpt>
      <trkpt lat="45.13319" lon="5.25861">
        <ele>303</ele>
        <time>2010-05-29T06:33:09Z</time>
      </trkpt>
      <trkpt lat="45.1333" lon="5.25816">
        <ele>303</ele>
        <time>2010-05-29T06:33:23Z</time>
      </trkpt>
      <trkpt lat="45.13323" lon="5.25776">
        <ele>305</ele>
        <time>2010-05-29T06:33:34Z</time>
      </trkpt>
      <trkpt lat="45.13299" lon="5.25734">
        <ele>305</ele>
        <time>2010-05-29T06:33:50Z</time>
      </trkpt>
      <trkpt lat="45.13286" lon="5.2569">
        <ele>309</ele>
        <time>2010-05-29T06:34:03Z</time>
      </trkpt>
      <trkpt lat="45.13287" lon="5.25653">
        <ele>309</ele>
        <time>2010-05-29T06:34:14Z</time>
      </trkpt>
      <trkpt lat="45.1331" lon="5.25589">
        <ele>306</ele>
        <time>2010-05-29T06:34:34Z</time>
      </trkpt>
      <trkpt lat="45.13312" lon="5.25559">
        <ele>306</ele>
        <time>2010-05-29T06:34:42Z</time>
      </trkpt>
      <trkpt lat="45.13306" lon="5.25529">
        <ele>305</ele>
        <time>2010-05-29T06:34:51Z</time>
      </trkpt>
      <trkpt lat="45.13273" lon="5.25421">
        <ele>288</ele>
        <time>2010-05-29T06:35:24Z</time>
      </trkpt>
      <trkpt lat="45.13208" lon="5.25307">
        <ele>278</ele>
        <time>2010-05-29T06:36:06Z</time>
      </trkpt>
      <trkpt lat="45.13199" lon="5.25262">
        <ele>278</ele>
        <time>2010-05-29T06:36:19Z</time>
      </trkpt>
      <trkpt lat="45.13202" lon="5.25214">
        <ele>278</ele>
        <time>2010-05-29T06:36:33Z</time>
      </trkpt>
      <trkpt lat="45.13206" lon="5.25193">
        <ele>272</ele>
        <time>2010-05-29T06:36:39Z</time>
      </trkpt>
      <trkpt lat="45.13216" lon="5.25174">
        <ele>278</ele>
        <time>2010-05-29T06:36:45Z</time>
      </trkpt>
      <trkpt lat="45.13242" lon="5.25168">
        <ele>278</ele>
        <time>2010-05-29T06:36:56Z</time>
      </trkpt>
      <trkpt lat="45.13257" lon="5.25154">
        <ele>278</ele>
        <time>2010-05-29T06:37:03Z</time>
      </trkpt>
      <trkpt lat="45.13259" lon="5.25139">
        <ele>278</ele>
        <time>2010-05-29T06:37:08Z</time>
      </trkpt>
      <trkpt lat="45.13256" lon="5.25124">
        <ele>271</ele>
        <time>2010-05-29T06:37:12Z</time>
      </trkpt>
      <trkpt lat="45.13242" lon="5.25103">
        <ele>271</ele>
        <time>2010-05-29T06:37:20Z</time>
      </trkpt>
      <trkpt lat="45.13238" lon="5.25089">
        <ele>271</ele>
        <time>2010-05-29T06:37:24Z</time>
      </trkpt>
      <trkpt lat="45.13247" lon="5.25062">
        <ele>271</ele>
        <time>2010-05-29T06:37:33Z</time>
      </trkpt>
      <trkpt lat="45.1338" lon="5.24919">
        <ele>270</ele>
        <time>2010-05-29T06:38:40Z</time>
      </trkpt>
      <trkpt lat="45.13429" lon="5.24904">
        <ele>270</ele>
        <time>2010-05-29T06:39:00Z</time>
      </trkpt>
      <trkpt lat="45.13444" lon="5.24888">
        <ele>270</ele>
        <time>2010-05-29T06:39:07Z</time>
      </trkpt>
      <trkpt lat="45.13448" lon="5.2487">
        <ele>257</ele>
        <time>2010-05-29T06:39:13Z</time>
      </trkpt>
      <trkpt lat="45.13447" lon="5.24844">
        <ele>257</ele>
        <time>2010-05-29T06:39:20Z</time>
      </trkpt>
      <trkpt lat="45.13434" lon="5.24817">
        <ele>257</ele>
        <time>2010-05-29T06:39:29Z</time>
      </trkpt>
      <trkpt lat="45.13416" lon="5.24802">
        <ele>257</ele>
        <time>2010-05-29T06:39:37Z</time>
      </trkpt>
      <trkpt lat="45.1337" lon="5.2479">
        <ele>261</ele>
        <time>2010-05-29T06:39:56Z</time>
      </trkpt>
      <trkpt lat="45.13342" lon="5.24796">
        <ele>254</ele>
        <time>2010-05-29T06:40:08Z</time>
      </trkpt>
      <trkpt lat="45.13304" lon="5.24815">
        <ele>254</ele>
        <time>2010-05-29T06:40:24Z</time>
      </trkpt>
      <trkpt lat="45.13271" lon="5.24825">
        <ele>259</ele>
        <time>2010-05-29T06:40:37Z</time>
      </trkpt>
      <trkpt lat="45.1325" lon="5.2482">
        <ele>259</ele>
        <time>2010-05-29T06:40:46Z</time>
      </trkpt>
      <trkpt lat="45.13246" lon="5.24805">
        <ele>259</ele>
        <time>2010-05-29T06:40:50Z</time>
      </trkpt>
      <trkpt lat="45.13255" lon="5.24789">
        <ele>269</ele>
        <time>2010-05-29T06:40:56Z</time>
      </trkpt>
      <trkpt lat="45.13287" lon="5.24763">
        <ele>269</ele>
        <time>2010-05-29T06:41:11Z</time>
      </trkpt>
      <trkpt lat="45.13308" lon="5.24732">
        <ele>261</ele>
        <time>2010-05-29T06:41:23Z</time>
      </trkpt>
      <trkpt lat="45.13344" lon="5.24669">
        <ele>268</ele>
        <time>2010-05-29T06:41:46Z</time>
      </trkpt>
      <trkpt lat="45.13361" lon="5.24625">
        <ele>272</ele>
        <time>2010-05-29T06:42:00Z</time>
      </trkpt>
      <trkpt lat="45.13363" lon="5.24608">
        <ele>272</ele>
        <time>2010-05-29T06:42:05Z</time>
      </trkpt>
      <trkpt lat="45.13359" lon="5.24577">
        <ele>272</ele>
        <time>2010-05-29T06:42:14Z</time>
      </trkpt>
      <trkpt lat="45.13332" lon="5.24506">
        <ele>274</ele>
        <time>2010-05-29T06:42:37Z</time>
      </trkpt>
      <trkpt lat="45.13321" lon="5.24442">
        <ele>278</ele>
        <time>2010-05-29T06:42:55Z</time>
      </trkpt>
      <trkpt lat="45.13305" lon="5.24314">
        <ele>281</ele>
        <time>2010-05-29T06:43:32Z</time>
      </trkpt>
      <trkpt lat="45.13296" lon="5.24157">
        <ele>287</ele>
        <time>2010-05-29T06:44:16Z</time>
      </trkpt>
      <trkpt lat="45.13297" lon="5.2408">
        <ele>287</ele>
        <time>2010-05-29T06:44:38Z</time>
      </trkpt>
      <trkpt lat="45.1334" lon="5.23752">
        <ele>288</ele>
        <time>2010-05-29T06:46:12Z</time>
      </trkpt>
      <trkpt lat="45.13382" lon="5.23694">
        <ele>292</ele>
        <time>2010-05-29T06:46:36Z</time>
      </trkpt>
      <trkpt lat="45.13386" lon="5.23681">
        <ele>292</ele>
        <time>2010-05-29T06:46:40Z</time>
      </trkpt>
      <trkpt lat="45.13509" lon="5.23498">
        <ele>297</ele>
        <time>2010-05-29T06:47:51Z</time>
      </trkpt>
      <trkpt lat="45.13551" lon="5.23446">
        <ele>299</ele>
        <time>2010-05-29T06:48:13Z</time>
      </trkpt>
      <trkpt lat="45.13598" lon="5.23402">
        <ele>299</ele>
        <time>2010-05-29T06:48:36Z</time>
      </trkpt>
      <trkpt lat="45.1392" lon="5.23169">
        <ele>301</ele>
        <time>2010-05-29T06:51:01Z</time>
      </trkpt>
      <trkpt lat="45.1399" lon="5.2311">
        <ele>301</ele>
        <time>2010-05-29T06:51:33Z</time>
      </trkpt>
      <trkpt lat="45.14066" lon="5.22999">
        <ele>306</ele>
        <time>2010-05-29T06:52:17Z</time>
      </trkpt>
      <trkpt lat="45.141" lon="5.22938">
        <ele>311</ele>
        <time>2010-05-29T06:52:39Z</time>
      </trkpt>
      <trkpt lat="45.1413" lon="5.22897">
        <ele>310</ele>
        <time>2010-05-29T06:52:56Z</time>
      </trkpt>
      <trkpt lat="45.14171" lon="5.2286">
        <ele>312</ele>
        <time>2010-05-29T06:53:15Z</time>
      </trkpt>
      <trkpt lat="45.14192" lon="5.22846">
        <ele>312</ele>
        <time>2010-05-29T06:53:24Z</time>
      </trkpt>
      <trkpt lat="45.14244" lon="5.22836">
        <ele>314</ele>
        <time>2010-05-29T06:53:45Z</time>
      </trkpt>
      <trkpt lat="45.14274" lon="5.22832">
        <ele>314</ele>
        <time>2010-05-29T06:53:57Z</time>
      </trkpt>
      <trkpt lat="45.14404" lon="5.22836">
        <ele>318</ele>
        <time>2010-05-29T06:54:49Z</time>
      </trkpt>
      <trkpt lat="45.14419" lon="5.22833">
        <ele>318</ele>
        <time>2010-05-29T06:54:56Z</time>
      </trkpt>
      <trkpt lat="45.14429" lon="5.22825">
        <ele>318</ele>
        <time>2010-05-29T06:55:00Z</time>
      </trkpt>
      <trkpt lat="45.14441" lon="5.2281">
        <ele>318</ele>
        <time>2010-05-29T06:55:07Z</time>
      </trkpt>
      <trkpt lat="45.14498" lon="5.22698">
        <ele>315</ele>
        <time>2010-05-29T06:55:46Z</time>
      </trkpt>
      <trkpt lat="45.14511" lon="5.2268">
        <ele>315</ele>
        <time>2010-05-29T06:55:53Z</time>
      </trkpt>
      <trkpt lat="45.14691" lon="5.22488">
        <ele>327</ele>
        <time>2010-05-29T06:57:23Z</time>
      </trkpt>
      <trkpt lat="45.14716" lon="5.22456">
        <ele>335</ele>
        <time>2010-05-29T06:57:36Z</time>
      </trkpt>
      <trkpt lat="45.14728" lon="5.22428">
        <ele>335</ele>
        <time>2010-05-29T06:57:46Z</time>
      </trkpt>
      <trkpt lat="45.14757" lon="5.22314">
        <ele>338</ele>
        <time>2010-05-29T06:58:20Z</time>
      </trkpt>
      <trkpt lat="45.14763" lon="5.22305">
        <ele>338</ele>
        <time>2010-05-29T06:58:23Z</time>
      </trkpt>
      <trkpt lat="45.14777" lon="5.22296">
        <ele>338</ele>
        <time>2010-05-29T06:58:30Z</time>
      </trkpt>
      <trkpt lat="45.14957" lon="5.22232">
        <ele>344</ele>
        <time>2010-05-29T06:59:44Z</time>
      </trkpt>
      <trkpt lat="45.14994" lon="5.2221">
        <ele>344</ele>
        <time>2010-05-29T07:00:00Z</time>
      </trkpt>
      <trkpt lat="45.15017" lon="5.22175">
        <ele>345</ele>
        <time>2010-05-29T07:00:13Z</time>
      </trkpt>
      <trkpt lat="45.15044" lon="5.22046">
        <ele>345</ele>
        <time>2010-05-29T07:00:51Z</time>
      </trkpt>
      <trkpt lat="45.15055" lon="5.22019">
        <ele>347</ele>
        <time>2010-05-29T07:01:00Z</time>
      </trkpt>
      <trkpt lat="45.1509" lon="5.2196">
        <ele>347</ele>
        <time>2010-05-29T07:01:22Z</time>
      </trkpt>
      <trkpt lat="45.15093" lon="5.21931">
        <ele>351</ele>
        <time>2010-05-29T07:01:30Z</time>
      </trkpt>
      <trkpt lat="45.15086" lon="5.21899">
        <ele>351</ele>
        <time>2010-05-29T07:01:40Z</time>
      </trkpt>
      <trkpt lat="45.15028" lon="5.218">
        <ele>356</ele>
        <time>2010-05-29T07:02:16Z</time>
      </trkpt>
      <trkpt lat="45.15024" lon="5.21786">
        <ele>351</ele>
        <time>2010-05-29T07:02:20Z</time>
      </trkpt>
      <trkpt lat="45.15028" lon="5.21744">
        <ele>351</ele>
        <time>2010-05-29T07:02:32Z</time>
      </trkpt>
      <trkpt lat="45.15035" lon="5.21722">
        <ele>351</ele>
        <time>2010-05-29T07:02:39Z</time>
      </trkpt>
      <trkpt lat="45.15051" lon="5.21692">
        <ele>364</ele>
        <time>2010-05-29T07:02:50Z</time>
      </trkpt>
      <trkpt lat="45.15073" lon="5.21693">
        <ele>364</ele>
        <time>2010-05-29T07:02:59Z</time>
      </trkpt>
      <trkpt lat="45.15104" lon="5.2171">
        <ele>361</ele>
        <time>2010-05-29T07:03:12Z</time>
      </trkpt>
      <trkpt lat="45.15123" lon="5.21713">
        <ele>361</ele>
        <time>2010-05-29T07:03:19Z</time>
      </trkpt>
      <trkpt lat="45.15138" lon="5.21698">
        <ele>367</ele>
        <time>2010-05-29T07:03:27Z</time>
      </trkpt>
      <trkpt lat="45.15144" lon="5.21684">
        <ele>367</ele>
        <time>2010-05-29T07:03:31Z</time>
      </trkpt>
      <trkpt lat="45.15147" lon="5.21658">
        <ele>367</ele>
        <time>2010-05-29T07:03:39Z</time>
      </trkpt>
      <trkpt lat="45.15148" lon="5.21601">
        <ele>371</ele>
        <time>2010-05-29T07:03:55Z</time>
      </trkpt>
      <trkpt lat="45.15156" lon="5.2158">
        <ele>371</ele>
        <time>2010-05-29T07:04:02Z</time>
      </trkpt>
      <trkpt lat="45.1523" lon="5.21477">
        <ele>376</ele>
        <time>2010-05-29T07:04:43Z</time>
      </trkpt>
      <trkpt lat="45.15235" lon="5.21463">
        <ele>376</ele>
        <time>2010-05-29T07:04:48Z</time>
      </trkpt>
      <trkpt lat="45.15231" lon="5.21372">
        <ele>384</ele>
        <time>2010-05-29T07:05:13Z</time>
      </trkpt>
      <trkpt lat="45.15233" lon="5.21331">
        <ele>384</ele>
        <time>2010-05-29T07:05:25Z</time>
      </trkpt>
      <trkpt lat="45.15241" lon="5.21311">
        <ele>384</ele>
        <time>2010-05-29T07:05:31Z</time>
      </trkpt>
      <trkpt lat="45.15293" lon="5.21229">
        <ele>383</ele>
        <time>2010-05-29T07:06:03Z</time>
      </trkpt>
      <trkpt lat="45.15298" lon="5.21217">
        <ele>383</ele>
        <time>2010-05-29T07:06:07Z</time>
      </trkpt>
      <trkpt lat="45.15298" lon="5.21205">
        <ele>391</ele>
        <time>2010-05-29T07:06:10Z</time>
      </trkpt>
      <trkpt lat="45.15286" lon="5.21187">
        <ele>407</ele>
        <time>2010-05-29T07:06:17Z</time>
      </trkpt>
      <trkpt lat="45.15275" lon="5.21188">
        <ele>407</ele>
        <time>2010-05-29T07:06:21Z</time>
      </trkpt>
      <trkpt lat="45.1524" lon="5.21211">
        <ele>398</ele>
        <time>2010-05-29T07:06:37Z</time>
      </trkpt>
      <trkpt lat="45.15222" lon="5.21213">
        <ele>398</ele>
        <time>2010-05-29T07:06:44Z</time>
      </trkpt>
      <trkpt lat="45.15146" lon="5.21207">
        <ele>410</ele>
        <time>2010-05-29T07:07:14Z</time>
      </trkpt>
      <trkpt lat="45.15052" lon="5.21207">
        <ele>415</ele>
        <time>2010-05-29T07:07:52Z</time>
      </trkpt>
      <trkpt lat="45.15027" lon="5.21197">
        <ele>402</ele>
        <time>2010-05-29T07:08:03Z</time>
      </trkpt>
      <trkpt lat="45.14999" lon="5.21158">
        <ele>402</ele>
        <time>2010-05-29T07:08:18Z</time>
      </trkpt>
      <trkpt lat="45.14993" lon="5.2114">
        <ele>402</ele>
        <time>2010-05-29T07:08:24Z</time>
      </trkpt>
      <trkpt lat="45.14991" lon="5.21105">
        <ele>405</ele>
        <time>2010-05-29T07:08:34Z</time>
      </trkpt>
      <trkpt lat="45.14996" lon="5.21091">
        <ele>405</ele>
        <time>2010-05-29T07:08:38Z</time>
      </trkpt>
      <trkpt lat="45.15035" lon="5.21031">
        <ele>404</ele>
        <time>2010-05-29T07:09:01Z</time>
      </trkpt>
      <trkpt lat="45.15046" lon="5.20992">
        <ele>419</ele>
        <time>2010-05-29T07:09:13Z</time>
      </trkpt>
      <trkpt lat="45.15031" lon="5.20916">
        <ele>407</ele>
        <time>2010-05-29T07:09:35Z</time>
      </trkpt>
      <trkpt lat="45.15032" lon="5.2089">
        <ele>407</ele>
        <time>2010-05-29T07:09:43Z</time>
      </trkpt>
      <trkpt lat="45.15038" lon="5.20868">
        <ele>413</ele>
        <time>2010-05-29T07:09:49Z</time>
      </trkpt>
      <trkpt lat="45.15073" lon="5.20788">
        <ele>426</ele>
        <time>2010-05-29T07:10:16Z</time>
      </trkpt>
      <trkpt lat="45.15079" lon="5.20741">
        <ele>426</ele>
        <time>2010-05-29T07:10:29Z</time>
      </trkpt>
      <trkpt lat="45.15101" lon="5.2069">
        <ele>431</ele>
        <time>2010-05-29T07:10:46Z</time>
      </trkpt>
      <trkpt lat="45.15103" lon="5.20671">
        <ele>431</ele>
        <time>2010-05-29T07:10:52Z</time>
      </trkpt>
      <trkpt lat="45.15096" lon="5.20652">
        <ele>431</ele>
        <time>2010-05-29T07:10:58Z</time>
      </trkpt>
      <trkpt lat="45.15082" lon="5.20641">
        <ele>431</ele>
        <time>2010-05-29T07:11:04Z</time>
      </trkpt>
      <trkpt lat="45.1501" lon="5.20619">
        <ele>433</ele>
        <time>2010-05-29T07:11:34Z</time>
      </trkpt>
      <trkpt lat="45.15001" lon="5.20608">
        <ele>433</ele>
        <time>2010-05-29T07:11:38Z</time>
      </trkpt>
      <trkpt lat="45.14998" lon="5.20591">
        <ele>433</ele>
        <time>2010-05-29T07:11:43Z</time>
      </trkpt>
      <trkpt lat="45.15" lon="5.20581">
        <ele>433</ele>
        <time>2010-05-29T07:11:46Z</time>
      </trkpt>
      <trkpt lat="45.15035" lon="5.20507">
        <ele>425</ele>
        <time>2010-05-29T07:12:11Z</time>
      </trkpt>
      <trkpt lat="45.15073" lon="5.20411">
        <ele>440</ele>
        <time>2010-05-29T07:12:43Z</time>
      </trkpt>
      <trkpt lat="45.15071" lon="5.20377">
        <ele>440</ele>
        <time>2010-05-29T07:12:52Z</time>
      </trkpt>
      <trkpt lat="45.15041" lon="5.20272">
        <ele>437</ele>
        <time>2010-05-29T07:13:24Z</time>
      </trkpt>
      <trkpt lat="45.15039" lon="5.2026">
        <ele>437</ele>
        <time>2010-05-29T07:13:28Z</time>
      </trkpt>
      <trkpt lat="45.15042" lon="5.20245">
        <ele>435</ele>
        <time>2010-05-29T07:13:32Z</time>
      </trkpt>
      <trkpt lat="45.14943" lon="5.20151">
        <ele>444</ele>
        <time>2010-05-29T07:14:20Z</time>
      </trkpt>
      <trkpt lat="45.14863" lon="5.19965">
        <ele>443</ele>
        <time>2010-05-29T07:15:21Z</time>
      </trkpt>
      <trkpt lat="45.14825" lon="5.19908">
        <ele>439</ele>
        <time>2010-05-29T07:15:43Z</time>
      </trkpt>
      <trkpt lat="45.14783" lon="5.19871">
        <ele>443</ele>
        <time>2010-05-29T07:16:03Z</time>
      </trkpt>
      <trkpt lat="45.14728" lon="5.19843">
        <ele>443</ele>
        <time>2010-05-29T07:16:27Z</time>
      </trkpt>
      <trkpt lat="45.14691" lon="5.19833">
        <ele>443</ele>
        <time>2010-05-29T07:16:42Z</time>
      </trkpt>
      <trkpt lat="45.14671" lon="5.19839">
        <ele>443</ele>
        <time>2010-05-29T07:16:50Z</time>
      </trkpt>
      <trkpt lat="45.14612" lon="5.1989">
        <ele>443</ele>
        <time>2010-05-29T07:17:18Z</time>
      </trkpt>
      <trkpt lat="45.14539" lon="5.19936">
        <ele>441</ele>
        <time>2010-05-29T07:17:49Z</time>
      </trkpt>
      <trkpt lat="45.14517" lon="5.19933">
        <ele>441</ele>
        <time>2010-05-29T07:17:58Z</time>
      </trkpt>
      <trkpt lat="45.14345" lon="5.19862">
        <ele>445</ele>
        <time>2010-05-29T07:19:10Z</time>
      </trkpt>
      <trkpt lat="45.14301" lon="5.19843">
        <ele>445</ele>
        <time>2010-05-29T07:19:28Z</time>
      </trkpt>
      <trkpt lat="45.14287" lon="5.1983">
        <ele>445</ele>
        <time>2010-05-29T07:19:35Z</time>
      </trkpt>
      <trkpt lat="45.14278" lon="5.19809">
        <ele>445</ele>
        <time>2010-05-29T07:19:42Z</time>
      </trkpt>
      <trkpt lat="45.14277" lon="5.19788">
        <ele>441</ele>
        <time>2010-05-29T07:19:48Z</time>
      </trkpt>
      <trkpt lat="45.14285" lon="5.19712">
        <ele>441</ele>
        <time>2010-05-29T07:20:10Z</time>
      </trkpt>
      <trkpt lat="45.14271" lon="5.19599">
        <ele>441</ele>
        <time>2010-05-29T07:20:42Z</time>
      </trkpt>
      <trkpt lat="45.14265" lon="5.19582">
        <ele>441</ele>
        <time>2010-05-29T07:20:47Z</time>
      </trkpt>
      <trkpt lat="45.14179" lon="5.19435">
        <ele>443</ele>
        <time>2010-05-29T07:21:41Z</time>
      </trkpt>
      <trkpt lat="45.14131" lon="5.19233">
        <ele>447</ele>
        <time>2010-05-29T07:22:42Z</time>
      </trkpt>
      <trkpt lat="45.14124" lon="5.19219">
        <ele>446</ele>
        <time>2010-05-29T07:22:46Z</time>
      </trkpt>
      <trkpt lat="45.14058" lon="5.1915">
        <ele>448</ele>
        <time>2010-05-29T07:23:19Z</time>
      </trkpt>
      <trkpt lat="45.13987" lon="5.19086">
        <ele>451</ele>
        <time>2010-05-29T07:23:53Z</time>
      </trkpt>
      <trkpt lat="45.13959" lon="5.1907">
        <ele>451</ele>
        <time>2010-05-29T07:24:05Z</time>
      </trkpt>
      <trkpt lat="45.13856" lon="5.19091">
        <ele>439</ele>
        <time>2010-05-29T07:24:47Z</time>
      </trkpt>
      <trkpt lat="45.13827" lon="5.19089">
        <ele>439</ele>
        <time>2010-05-29T07:24:58Z</time>
      </trkpt>
      <trkpt lat="45.13815" lon="5.19083">
        <ele>439</ele>
        <time>2010-05-29T07:25:03Z</time>
      </trkpt>
      <trkpt lat="45.13789" lon="5.19062">
        <ele>430</ele>
        <time>2010-05-29T07:25:15Z</time>
      </trkpt>
      <trkpt lat="45.13727" lon="5.1898">
        <ele>434</ele>
        <time>2010-05-29T07:25:49Z</time>
      </trkpt>
      <trkpt lat="45.13676" lon="5.18921">
        <ele>428</ele>
        <time>2010-05-29T07:26:16Z</time>
      </trkpt>
      <trkpt lat="45.13499" lon="5.18815">
        <ele>418</ele>
        <time>2010-05-29T07:27:33Z</time>
      </trkpt>
      <trkpt lat="45.13466" lon="5.18806">
        <ele>418</ele>
        <time>2010-05-29T07:27:46Z</time>
      </trkpt>
      <trkpt lat="45.13429" lon="5.18813">
        <ele>415</ele>
        <time>2010-05-29T07:28:01Z</time>
      </trkpt>
      <trkpt lat="45.13372" lon="5.18866">
        <ele>413</ele>
        <time>2010-05-29T07:28:28Z</time>
      </trkpt>
      <trkpt lat="45.13343" lon="5.18879">
        <ele>400</ele>
        <time>2010-05-29T07:28:40Z</time>
      </trkpt>
      <trkpt lat="45.13234" lon="5.18884">
        <ele>396</ele>
        <time>2010-05-29T07:29:24Z</time>
      </trkpt>
      <trkpt lat="45.13178" lon="5.18851">
        <ele>409</ele>
        <time>2010-05-29T07:29:48Z</time>
      </trkpt>
      <trkpt lat="45.1316" lon="5.18845">
        <ele>409</ele>
        <time>2010-05-29T07:29:56Z</time>
      </trkpt>
      <trkpt lat="45.13072" lon="5.18855">
        <ele>404</ele>
        <time>2010-05-29T07:30:31Z</time>
      </trkpt>
      <trkpt lat="45.13052" lon="5.18853">
        <ele>404</ele>
        <time>2010-05-29T07:30:39Z</time>
      </trkpt>
      <trkpt lat="45.13003" lon="5.18827">
        <ele>388</ele>
        <time>2010-05-29T07:31:00Z</time>
      </trkpt>
      <trkpt lat="45.12937" lon="5.18742">
        <ele>382</ele>
        <time>2010-05-29T07:31:36Z</time>
      </trkpt>
      <trkpt lat="45.12913" lon="5.18695">
        <ele>389</ele>
        <time>2010-05-29T07:31:52Z</time>
      </trkpt>
      <trkpt lat="45.12904" lon="5.18666">
        <ele>389</ele>
        <time>2010-05-29T07:32:01Z</time>
      </trkpt>
      <trkpt lat="45.12901" lon="5.1864">
        <ele>389</ele>
        <time>2010-05-29T07:32:09Z</time>
      </trkpt>
      <trkpt lat="45.12906" lon="5.18619">
        <ele>383</ele>
        <time>2010-05-29T07:32:15Z</time>
      </trkpt>
      <trkpt lat="45.12918" lon="5.18599">
        <ele>383</ele>
        <time>2010-05-29T07:32:22Z</time>
      </trkpt>
      <trkpt lat="45.12958" lon="5.18551">
        <ele>383</ele>
        <time>2010-05-29T07:32:43Z</time>
      </trkpt>
      <trkpt lat="45.12999" lon="5.18495">
        <ele>388</ele>
        <time>2010-05-29T07:33:06Z</time>
      </trkpt>
      <trkpt lat="45.13003" lon="5.18413">
        <ele>379</ele>
        <time>2010-05-29T07:33:29Z</time>
      </trkpt>
      <trkpt lat="45.13011" lon="5.18368">
        <ele>370</ele>
        <time>2010-05-29T07:33:42Z</time>
      </trkpt>
      <trkpt lat="45.13104" lon="5.18227">
        <ele>380</ele>
        <time>2010-05-29T07:34:37Z</time>
      </trkpt>
      <trkpt lat="45.13111" lon="5.18197">
        <ele>369</ele>
        <time>2010-05-29T07:34:46Z</time>
      </trkpt>
      <trkpt lat="45.13131" lon="5.18052">
        <ele>379</ele>
        <time>2010-05-29T07:35:27Z</time>
      </trkpt>
      <trkpt lat="45.13037" lon="5.17887">
        <ele>354</ele>
        <time>2010-05-29T07:36:27Z</time>
      </trkpt>
      <trkpt lat="45.13034" lon="5.17856">
        <ele>352</ele>
        <time>2010-05-29T07:36:36Z</time>
      </trkpt>
      <trkpt lat="45.1305" lon="5.17789">
        <ele>352</ele>
        <time>2010-05-29T07:36:56Z</time>
      </trkpt>
      <trkpt lat="45.13051" lon="5.17757">
        <ele>352</ele>
        <time>2010-05-29T07:37:05Z</time>
      </trkpt>
      <trkpt lat="45.13047" lon="5.17739">
        <ele>352</ele>
        <time>2010-05-29T07:37:11Z</time>
      </trkpt>
      <trkpt lat="45.12956" lon="5.17554">
        <ele>342</ele>
        <time>2010-05-29T07:38:14Z</time>
      </trkpt>
      <trkpt lat="45.12874" lon="5.17398">
        <ele>336</ele>
        <time>2010-05-29T07:39:09Z</time>
      </trkpt>
      <trkpt lat="45.12869" lon="5.17366">
        <ele>333</ele>
        <time>2010-05-29T07:39:18Z</time>
      </trkpt>
      <trkpt lat="45.12872" lon="5.17317">
        <ele>333</ele>
        <time>2010-05-29T07:39:32Z</time>
      </trkpt>
      <trkpt lat="45.12908" lon="5.1713">
        <ele>327</ele>
        <time>2010-05-29T07:40:27Z</time>
      </trkpt>
      <trkpt lat="45.12909" lon="5.17085">
        <ele>325</ele>
        <time>2010-05-29T07:40:40Z</time>
      </trkpt>
      <trkpt lat="45.12902" lon="5.17055">
        <ele>325</ele>
        <time>2010-05-29T07:40:49Z</time>
      </trkpt>
      <trkpt lat="45.1288" lon="5.17021">
        <ele>326</ele>
        <time>2010-05-29T07:41:02Z</time>
      </trkpt>
      <trkpt lat="45.12796" lon="5.16946">
        <ele>328</ele>
        <time>2010-05-29T07:41:42Z</time>
      </trkpt>
      <trkpt lat="45.12713" lon="5.16883">
        <ele>317</ele>
        <time>2010-05-29T07:42:19Z</time>
      </trkpt>
      <trkpt lat="45.12647" lon="5.16852">
        <ele>295</ele>
        <time>2010-05-29T07:42:47Z</time>
      </trkpt>
      <trkpt lat="45.1265" lon="5.16838">
        <ele>295</ele>
        <time>2010-05-29T07:42:51Z</time>
      </trkpt>
      <trkpt lat="45.12709" lon="5.16813">
        <ele>317</ele>
        <time>2010-05-29T07:43:16Z</time>
      </trkpt>
      <trkpt lat="45.12745" lon="5.16781">
        <ele>307</ele>
        <time>2010-05-29T07:43:33Z</time>
      </trkpt>
      <trkpt lat="45.12753" lon="5.16766">
        <ele>307</ele>
        <time>2010-05-29T07:43:38Z</time>
      </trkpt>
      <trkpt lat="45.12756" lon="5.16737">
        <ele>307</ele>
        <time>2010-05-29T07:43:46Z</time>
      </trkpt>
      <trkpt lat="45.12753" lon="5.16698">
        <ele>309</ele>
        <time>2010-05-29T07:43:57Z</time>
      </trkpt>
      <trkpt lat="45.12742" lon="5.16691">
        <ele>309</ele>
        <time>2010-05-29T07:44:02Z</time>
      </trkpt>
      <trkpt lat="45.12705" lon="5.16702">
        <ele>297</ele>
        <time>2010-05-29T07:44:17Z</time>
      </trkpt>
      <trkpt lat="45.12701" lon="5.16699">
        <ele>297</ele>
        <time>2010-05-29T07:44:19Z</time>
      </trkpt>
      <trkpt lat="45.12675" lon="5.16639">
        <ele>297</ele>
        <time>2010-05-29T07:44:39Z</time>
      </trkpt>
      <trkpt lat="45.12664" lon="5.16631">
        <ele>297</ele>
        <time>2010-05-29T07:44:44Z</time>
      </trkpt>
      <trkpt lat="45.12653" lon="5.16633">
        <ele>297</ele>
        <time>2010-05-29T07:44:49Z</time>
      </trkpt>
      <trkpt lat="45.1262" lon="5.16687">
        <ele>295</ele>
        <time>2010-05-29T07:45:09Z</time>
      </trkpt>
      <trkpt lat="45.126" lon="5.16712">
        <ele>281</ele>
        <time>2010-05-29T07:45:19Z</time>
      </trkpt>
      <trkpt lat="45.12578" lon="5.16716">
        <ele>281</ele>
        <time>2010-05-29T07:45:28Z</time>
      </trkpt>
      <trkpt lat="45.12464" lon="5.16684">
        <ele>285</ele>
        <time>2010-05-29T07:46:15Z</time>
      </trkpt>
      <trkpt lat="45.12393" lon="5.16653">
        <ele>275</ele>
        <time>2010-05-29T07:46:45Z</time>
      </trkpt>
      <trkpt lat="45.12331" lon="5.1662">
        <ele>269</ele>
        <time>2010-05-29T07:47:11Z</time>
      </trkpt>
      <trkpt lat="45.12301" lon="5.16597">
        <ele>269</ele>
        <time>2010-05-29T07:47:25Z</time>
      </trkpt>
      <trkpt lat="45.1211" lon="5.16381">
        <ele>255</ele>
        <time>2010-05-29T07:49:03Z</time>
      </trkpt>
      <trkpt lat="45.12081" lon="5.16337">
        <ele>262</ele>
        <time>2010-05-29T07:49:20Z</time>
      </trkpt>
      <trkpt lat="45.12055" lon="5.16278">
        <ele>270</ele>
        <time>2010-05-29T07:49:39Z</time>
      </trkpt>
      <trkpt lat="45.11807" lon="5.15652">
        <ele>245</ele>
        <time>2010-05-29T07:53:02Z</time>
      </trkpt>
      <trkpt lat="45.117" lon="5.15409">
        <ele>241</ele>
        <time>2010-05-29T07:54:23Z</time>
      </trkpt>
      <trkpt lat="45.11671" lon="5.15368">
        <ele>240</ele>
        <time>2010-05-29T07:54:39Z</time>
      </trkpt>
      <trkpt lat="45.11391" lon="5.15088">
        <ele>233</ele>
        <time>2010-05-29T07:56:56Z</time>
      </trkpt>
      <trkpt lat="45.11268" lon="5.14946">
        <ele>231</ele>
        <time>2010-05-29T07:58:00Z</time>
      </trkpt>
      <trkpt lat="45.11169" lon="5.14792">
        <ele>232</ele>
        <time>2010-05-29T07:58:59Z</time>
      </trkpt>
      <trkpt lat="45.11079" lon="5.14674">
        <ele>239</ele>
        <time>2010-05-29T07:59:48Z</time>
      </trkpt>
      <trkpt lat="45.10997" lon="5.14603">
        <ele>238</ele>
        <time>2010-05-29T08:00:26Z</time>
      </trkpt>
      <trkpt lat="45.10924" lon="5.14519">
        <ele>230</ele>
        <time>2010-05-29T08:01:04Z</time>
      </trkpt>
      <trkpt lat="45.10847" lon="5.14445">
        <ele>228</ele>
        <time>2010-05-29T08:01:41Z</time>
      </trkpt>
      <trkpt lat="45.10169" lon="5.13875">
        <ele>231</ele>
        <time>2010-05-29T08:06:57Z</time>
      </trkpt>
      <trkpt lat="45.09892" lon="5.1354">
        <ele>232</ele>
        <time>2010-05-29T08:09:23Z</time>
      </trkpt>
      <trkpt lat="45.09852" lon="5.13505">
        <ele>222</ele>
        <time>2010-05-29T08:09:41Z</time>
      </trkpt>
      <trkpt lat="45.09806" lon="5.13473">
        <ele>222</ele>
        <time>2010-05-29T08:10:02Z</time>
      </trkpt>
      <trkpt lat="45.09598" lon="5.13326">
        <ele>210</ele>
        <time>2010-05-29T08:11:35Z</time>
      </trkpt>
      <trkpt lat="45.09459" lon="5.13237">
        <ele>211</ele>
        <time>2010-05-29T08:12:36Z</time>
      </trkpt>
      <trkpt lat="45.09424" lon="5.13239">
        <ele>209</ele>
        <time>2010-05-29T08:12:50Z</time>
      </trkpt>
      <trkpt lat="45.09255" lon="5.13274">
        <ele>205</ele>
        <time>2010-05-29T08:13:58Z</time>
      </trkpt>
      <trkpt lat="45.09208" lon="5.13278">
        <ele>208</ele>
        <time>2010-05-29T08:14:17Z</time>
      </trkpt>
      <trkpt lat="45.09118" lon="5.13259">
        <ele>207</ele>
        <time>2010-05-29T08:14:54Z</time>
      </trkpt>
      <trkpt lat="45.09096" lon="5.13261">
        <ele>207</ele>
        <time>2010-05-29T08:15:03Z</time>
      </trkpt>
      <trkpt lat="45.09088" lon="5.13244">
        <ele>207</ele>
        <time>2010-05-29T08:15:08Z</time>
      </trkpt>
      <trkpt lat="45.08958" lon="5.1318">
        <ele>211</ele>
        <time>2010-05-29T08:16:03Z</time>
      </trkpt>
      <trkpt lat="45.08897" lon="5.13139">
        <ele>211</ele>
        <time>2010-05-29T08:16:30Z</time>
      </trkpt>
      <trkpt lat="45.0884" lon="5.13156">
        <ele>203</ele>
        <time>2010-05-29T08:16:54Z</time>
      </trkpt>
      <trkpt lat="45.08774" lon="5.13151">
        <ele>201</ele>
        <time>2010-05-29T08:17:20Z</time>
      </trkpt>
      <trkpt lat="45.08786" lon="5.13114">
        <ele>201</ele>
        <time>2010-05-29T08:17:32Z</time>
      </trkpt>
      <trkpt lat="45.08802" lon="5.13017">
        <ele>202</ele>
        <time>2010-05-29T08:18:00Z</time>
      </trkpt>
      <trkpt lat="45.08805" lon="5.12914">
        <ele>205</ele>
        <time>2010-05-29T08:18:29Z</time>
      </trkpt>
      <trkpt lat="45.0883" lon="5.12776">
        <ele>203</ele>
        <time>2010-05-29T08:19:09Z</time>
      </trkpt>
      <trkpt lat="45.0885" lon="5.12698">
        <ele>202</ele>
        <time>2010-05-29T08:19:33Z</time>
      </trkpt>
      <trkpt lat="45.08912" lon="5.12546">
        <ele>204</ele>
        <time>2010-05-29T08:20:22Z</time>
      </trkpt>
      <trkpt lat="45.08923" lon="5.12478">
        <ele>203</ele>
        <time>2010-05-29T08:20:42Z</time>
      </trkpt>
      <trkpt lat="45.08916" lon="5.12291">
        <ele>198</ele>
        <time>2010-05-29T08:21:35Z</time>
      </trkpt>
      <trkpt lat="45.08912" lon="5.12284">
        <ele>198</ele>
        <time>2010-05-29T08:21:38Z</time>
      </trkpt>
      <trkpt lat="45.08883" lon="5.11807">
        <ele>193</ele>
        <time>2010-05-29T08:23:53Z</time>
      </trkpt>
      <trkpt lat="45.08845" lon="5.11324">
        <ele>192</ele>
        <time>2010-05-29T08:26:10Z</time>
      </trkpt>
      <trkpt lat="45.08827" lon="5.11142">
        <ele>192</ele>
        <time>2010-05-29T08:27:02Z</time>
      </trkpt>
      <trkpt lat="45.0879" lon="5.10929">
        <ele>190</ele>
        <time>2010-05-29T08:28:04Z</time>
      </trkpt>
      <trkpt lat="45.0878" lon="5.10692">
        <ele>191</ele>
        <time>2010-05-29T08:29:11Z</time>
      </trkpt>
      <trkpt lat="45.08743" lon="5.10538">
        <ele>192</ele>
        <time>2010-05-29T08:29:57Z</time>
      </trkpt>
      <trkpt lat="45.08657" lon="5.1025">
        <ele>191</ele>
        <time>2010-05-29T08:31:26Z</time>
      </trkpt>
      <trkpt lat="45.0862" lon="5.1005">
        <ele>191</ele>
        <time>2010-05-29T08:32:24Z</time>
      </trkpt>
      <trkpt lat="45.08587" lon="5.09928">
        <ele>192</ele>
        <time>2010-05-29T08:33:01Z</time>
      </trkpt>
      <trkpt lat="45.08549" lon="5.09795">
        <ele>196</ele>
        <time>2010-05-29T08:33:41Z</time>
      </trkpt>
      <trkpt lat="45.08475" lon="5.0958">
        <ele>192</ele>
        <time>2010-05-29T08:34:49Z</time>
      </trkpt>
      <trkpt lat="45.08467" lon="5.09524">
        <ele>194</ele>
        <time>2010-05-29T08:35:05Z</time>
      </trkpt>
      <trkpt lat="45.08472" lon="5.09453">
        <ele>192</ele>
        <time>2010-05-29T08:35:25Z</time>
      </trkpt>
      <trkpt lat="45.08493" lon="5.09302">
        <ele>190</ele>
        <time>2010-05-29T08:36:09Z</time>
      </trkpt>
      <trkpt lat="45.08502" lon="5.09282">
        <ele>191</ele>
        <time>2010-05-29T08:36:16Z</time>
      </trkpt>
      <trkpt lat="45.08551" lon="5.09212">
        <ele>192</ele>
        <time>2010-05-29T08:36:43Z</time>
      </trkpt>
      <trkpt lat="45.08563" lon="5.09186">
        <ele>191</ele>
        <time>2010-05-29T08:36:52Z</time>
      </trkpt>
      <trkpt lat="45.08576" lon="5.09143">
        <ele>191</ele>
        <time>2010-05-29T08:37:05Z</time>
      </trkpt>
      <trkpt lat="45.08585" lon="5.09079">
        <ele>191</ele>
        <time>2010-05-29T08:37:24Z</time>
      </trkpt>
      <trkpt lat="45.08592" lon="5.09053">
        <ele>191</ele>
        <time>2010-05-29T08:37:32Z</time>
      </trkpt>
      <trkpt lat="45.08643" lon="5.08954">
        <ele>196</ele>
        <time>2010-05-29T08:38:06Z</time>
      </trkpt>
      <trkpt lat="45.08669" lon="5.08886">
        <ele>196</ele>
        <time>2010-05-29T08:38:28Z</time>
      </trkpt>
      <trkpt lat="45.08691" lon="5.08812">
        <ele>195</ele>
        <time>2010-05-29T08:38:51Z</time>
      </trkpt>
      <trkpt lat="45.08727" lon="5.08636">
        <ele>198</ele>
        <time>2010-05-29T08:39:43Z</time>
      </trkpt>
      <trkpt lat="45.0879" lon="5.08195">
        <ele>213</ele>
        <time>2010-05-29T08:41:50Z</time>
      </trkpt>
      <trkpt lat="45.08817" lon="5.08031">
        <ele>223</ele>
        <time>2010-05-29T08:42:38Z</time>
      </trkpt>
      <trkpt lat="45.08845" lon="5.07916">
        <ele>229</ele>
        <time>2010-05-29T08:43:12Z</time>
      </trkpt>
      <trkpt lat="45.08878" lon="5.07861">
        <ele>235</ele>
        <time>2010-05-29T08:43:32Z</time>
      </trkpt>
      <trkpt lat="45.08987" lon="5.07781">
        <ele>234</ele>
        <time>2010-05-29T08:44:21Z</time>
      </trkpt>
      <trkpt lat="45.09076" lon="5.07698">
        <ele>233</ele>
        <time>2010-05-29T08:45:04Z</time>
      </trkpt>
      <trkpt lat="45.09123" lon="5.07645">
        <ele>233</ele>
        <time>2010-05-29T08:45:28Z</time>
      </trkpt>
      <trkpt lat="45.09316" lon="5.07256">
        <ele>224</ele>
        <time>2010-05-29T08:47:42Z</time>
      </trkpt>
      <trkpt lat="45.09353" lon="5.07198">
        <ele>232</ele>
        <time>2010-05-29T08:48:05Z</time>
      </trkpt>
      <trkpt lat="45.09393" lon="5.07147">
        <ele>219</ele>
        <time>2010-05-29T08:48:26Z</time>
      </trkpt>
      <trkpt lat="45.09393" lon="5.07032">
        <ele>216</ele>
        <time>2010-05-29T08:48:59Z</time>
      </trkpt>
      <trkpt lat="45.09386" lon="5.06915">
        <ele>215</ele>
        <time>2010-05-29T08:49:32Z</time>
      </trkpt>
      <trkpt lat="45.09372" lon="5.06713">
        <ele>214</ele>
        <time>2010-05-29T08:50:29Z</time>
      </trkpt>
      <trkpt lat="45.09373" lon="5.06683">
        <ele>213</ele>
        <time>2010-05-29T08:50:38Z</time>
      </trkpt>
      <trkpt lat="45.09385" lon="5.06601">
        <ele>213</ele>
        <time>2010-05-29T08:51:01Z</time>
      </trkpt>
      <trkpt lat="45.09386" lon="5.06537">
        <ele>212</ele>
        <time>2010-05-29T08:51:19Z</time>
      </trkpt>
      <trkpt lat="45.09372" lon="5.06238">
        <ele>211</ele>
        <time>2010-05-29T08:52:44Z</time>
      </trkpt>
      <trkpt lat="45.09374" lon="5.05971">
        <ele>208</ele>
        <time>2010-05-29T08:54:00Z</time>
      </trkpt>
      <trkpt lat="45.09383" lon="5.05882">
        <ele>212</ele>
        <time>2010-05-29T08:54:25Z</time>
      </trkpt>
      <trkpt lat="45.0943" lon="5.05698">
        <ele>210</ele>
        <time>2010-05-29T08:55:20Z</time>
      </trkpt>
      <trkpt lat="45.09442" lon="5.05608">
        <ele>208</ele>
        <time>2010-05-29T08:55:46Z</time>
      </trkpt>
      <trkpt lat="45.0943" lon="5.05436">
        <ele>210</ele>
        <time>2010-05-29T08:56:35Z</time>
      </trkpt>
      <trkpt lat="45.09422" lon="5.05383">
        <ele>210</ele>
        <time>2010-05-29T08:56:50Z</time>
      </trkpt>
      <trkpt lat="45.094" lon="5.05333">
        <ele>214</ele>
        <time>2010-05-29T08:57:07Z</time>
      </trkpt>
      <trkpt lat="45.09269" lon="5.05088">
        <ele>212</ele>
        <time>2010-05-29T08:58:34Z</time>
      </trkpt>
      <trkpt lat="45.09247" lon="5.05034">
        <ele>212</ele>
        <time>2010-05-29T08:58:51Z</time>
      </trkpt>
      <trkpt lat="45.09244" lon="5.05002">
        <ele>212</ele>
        <time>2010-05-29T08:59:01Z</time>
      </trkpt>
      <trkpt lat="45.09248" lon="5.04981">
        <ele>212</ele>
        <time>2010-05-29T08:59:07Z</time>
      </trkpt>
      <trkpt lat="45.09287" lon="5.04923">
        <ele>205</ele>
        <time>2010-05-29T08:59:29Z</time>
      </trkpt>
      <trkpt lat="45.09302" lon="5.04876">
        <ele>206</ele>
        <time>2010-05-29T08:59:44Z</time>
      </trkpt>
      <trkpt lat="45.09314" lon="5.04748">
        <ele>207</ele>
        <time>2010-05-29T09:00:20Z</time>
      </trkpt>
      <trkpt lat="45.09383" lon="5.04697">
        <ele>211</ele>
        <time>2010-05-29T09:00:52Z</time>
      </trkpt>
      <trkpt lat="45.0947" lon="5.04653">
        <ele>207</ele>
        <time>2010-05-29T09:01:29Z</time>
      </trkpt>
      <trkpt lat="45.09554" lon="5.0461">
        <ele>210</ele>
        <time>2010-05-29T09:02:04Z</time>
      </trkpt>
      <trkpt lat="45.09583" lon="5.04582">
        <ele>210</ele>
        <time>2010-05-29T09:02:18Z</time>
      </trkpt>
      <trkpt lat="45.09605" lon="5.04548">
        <ele>210</ele>
        <time>2010-05-29T09:02:31Z</time>
      </trkpt>
      <trkpt lat="45.09628" lon="5.04532">
        <ele>213</ele>
        <time>2010-05-29T09:02:42Z</time>
      </trkpt>
      <trkpt lat="45.09626" lon="5.04482">
        <ele>213</ele>
        <time>2010-05-29T09:02:56Z</time>
      </trkpt>
      <trkpt lat="45.09686" lon="5.04323">
        <ele>215</ele>
        <time>2010-05-29T09:03:47Z</time>
      </trkpt>
      <trkpt lat="45.09729" lon="5.04261">
        <ele>211</ele>
        <time>2010-05-29T09:04:11Z</time>
      </trkpt>
      <trkpt lat="45.0978" lon="5.0422">
        <ele>211</ele>
        <time>2010-05-29T09:04:35Z</time>
      </trkpt>
      <trkpt lat="45.09842" lon="5.04153">
        <ele>209</ele>
        <time>2010-05-29T09:05:06Z</time>
      </trkpt>
      <trkpt lat="45.09871" lon="5.04097">
        <ele>209</ele>
        <time>2010-05-29T09:05:26Z</time>
      </trkpt>
      <trkpt lat="45.09882" lon="5.04052">
        <ele>213</ele>
        <time>2010-05-29T09:05:39Z</time>
      </trkpt>
      <trkpt lat="45.09888" lon="5.04008">
        <ele>214</ele>
        <time>2010-05-29T09:05:52Z</time>
      </trkpt>
      <trkpt lat="45.09888" lon="5.03979">
        <ele>214</ele>
        <time>2010-05-29T09:06:00Z</time>
      </trkpt>
      <trkpt lat="45.09879" lon="5.03945">
        <ele>214</ele>
        <time>2010-05-29T09:06:10Z</time>
      </trkpt>
      <trkpt lat="45.09824" lon="5.03806">
        <ele>211</ele>
        <time>2010-05-29T09:06:55Z</time>
      </trkpt>
      <trkpt lat="45.09799" lon="5.03701">
        <ele>217</ele>
        <time>2010-05-29T09:07:26Z</time>
      </trkpt>
      <trkpt lat="45.09791" lon="5.03652">
        <ele>214</ele>
        <time>2010-05-29T09:07:41Z</time>
      </trkpt>
      <trkpt lat="45.09794" lon="5.0359">
        <ele>218</ele>
        <time>2010-05-29T09:07:58Z</time>
      </trkpt>
      <trkpt lat="45.09814" lon="5.0354">
        <ele>212</ele>
        <time>2010-05-29T09:08:15Z</time>
      </trkpt>
      <trkpt lat="45.09898" lon="5.03394">
        <ele>215</ele>
        <time>2010-05-29T09:09:08Z</time>
      </trkpt>
      <trkpt lat="45.10055" lon="5.02832">
        <ele>231</ele>
        <time>2010-05-29T09:11:59Z</time>
      </trkpt>
      <trkpt lat="45.1006" lon="5.0276">
        <ele>237</ele>
        <time>2010-05-29T09:12:19Z</time>
      </trkpt>
      <trkpt lat="45.10058" lon="5.02744">
        <ele>237</ele>
        <time>2010-05-29T09:12:24Z</time>
      </trkpt>
      <trkpt lat="45.09984" lon="5.02608">
        <ele>263</ele>
        <time>2010-05-29T09:13:12Z</time>
      </trkpt>
      <trkpt lat="45.09963" lon="5.02553">
        <ele>263</ele>
        <time>2010-05-29T09:13:30Z</time>
      </trkpt>
      <trkpt lat="45.09923" lon="5.02493">
        <ele>269</ele>
        <time>2010-05-29T09:13:53Z</time>
      </trkpt>
      <trkpt lat="45.09859" lon="5.02325">
        <ele>267</ele>
        <time>2010-05-29T09:14:47Z</time>
      </trkpt>
      <trkpt lat="45.09854" lon="5.02255">
        <ele>258</ele>
        <time>2010-05-29T09:15:07Z</time>
      </trkpt>
      <trkpt lat="45.09857" lon="5.02214">
        <ele>258</ele>
        <time>2010-05-29T09:15:19Z</time>
      </trkpt>
      <trkpt lat="45.09876" lon="5.02146">
        <ele>261</ele>
        <time>2010-05-29T09:15:39Z</time>
      </trkpt>
      <trkpt lat="45.10044" lon="5.01673">
        <ele>240</ele>
        <time>2010-05-29T09:18:09Z</time>
      </trkpt>
      <trkpt lat="45.10054" lon="5.0162">
        <ele>242</ele>
        <time>2010-05-29T09:18:24Z</time>
      </trkpt>
      <trkpt lat="45.10069" lon="5.01491">
        <ele>242</ele>
        <time>2010-05-29T09:19:01Z</time>
      </trkpt>
      <trkpt lat="45.10084" lon="5.01275">
        <ele>241</ele>
        <time>2010-05-29T09:20:03Z</time>
      </trkpt>
      <trkpt lat="45.10097" lon="5.01191">
        <ele>238</ele>
        <time>2010-05-29T09:20:27Z</time>
      </trkpt>
      <trkpt lat="45.1011" lon="5.01138">
        <ele>238</ele>
        <time>2010-05-29T09:20:43Z</time>
      </trkpt>
      <trkpt lat="45.10122" lon="5.01107">
        <ele>233</ele>
        <time>2010-05-29T09:20:53Z</time>
      </trkpt>
      <trkpt lat="45.10182" lon="5.00989">
        <ele>236</ele>
        <time>2010-05-29T09:21:34Z</time>
      </trkpt>
      <trkpt lat="45.10243" lon="5.00917">
        <ele>237</ele>
        <time>2010-05-29T09:22:06Z</time>
      </trkpt>
      <trkpt lat="45.10429" lon="5.00765">
        <ele>226</ele>
        <time>2010-05-29T09:23:32Z</time>
      </trkpt>
      <trkpt lat="45.10627" lon="5.00619">
        <ele>250</ele>
        <time>2010-05-29T09:25:01Z</time>
      </trkpt>
      <trkpt lat="45.1073" lon="5.00582">
        <ele>252</ele>
        <time>2010-05-29T09:25:43Z</time>
      </trkpt>
      <trkpt lat="45.10877" lon="5.00554">
        <ele>264</ele>
        <time>2010-05-29T09:26:43Z</time>
      </trkpt>
      <trkpt lat="45.1094" lon="5.00532">
        <ele>266</ele>
        <time>2010-05-29T09:27:09Z</time>
      </trkpt>
      <trkpt lat="45.11021" lon="5.0047">
        <ele>259</ele>
        <time>2010-05-29T09:27:46Z</time>
      </trkpt>
      <trkpt lat="45.11088" lon="5.00426">
        <ele>245</ele>
        <time>2010-05-29T09:28:15Z</time>
      </trkpt>
      <trkpt lat="45.11193" lon="5.00368">
        <ele>239</ele>
        <time>2010-05-29T09:29:00Z</time>
      </trkpt>
      <trkpt lat="45.11278" lon="5.00329">
        <ele>237</ele>
        <time>2010-05-29T09:29:36Z</time>
      </trkpt>
      <trkpt lat="45.11283" lon="5.00318">
        <ele>237</ele>
        <time>2010-05-29T09:29:40Z</time>
      </trkpt>
      <trkpt lat="45.11523" lon="5.00108">
        <ele>235</ele>
        <time>2010-05-29T09:31:33Z</time>
      </trkpt>
      <trkpt lat="45.11587" lon="5.00047">
        <ele>234</ele>
        <time>2010-05-29T09:32:04Z</time>
      </trkpt>
      <trkpt lat="45.11601" lon="5.0003">
        <ele>236</ele>
        <time>2010-05-29T09:32:11Z</time>
      </trkpt>
      <trkpt lat="45.11651" lon="4.99942">
        <ele>236</ele>
        <time>2010-05-29T09:32:43Z</time>
      </trkpt>
      <trkpt lat="45.11674" lon="4.9992">
        <ele>236</ele>
        <time>2010-05-29T09:32:54Z</time>
      </trkpt>
      <trkpt lat="45.11873" lon="4.99834">
        <ele>225</ele>
        <time>2010-05-29T09:34:17Z</time>
      </trkpt>
      <trkpt lat="45.11905" lon="4.99811">
        <ele>213</ele>
        <time>2010-05-29T09:34:32Z</time>
      </trkpt>
      <trkpt lat="45.11972" lon="4.99708">
        <ele>208</ele>
        <time>2010-05-29T09:35:11Z</time>
      </trkpt>
      <trkpt lat="45.12075" lon="4.99532">
        <ele>207</ele>
        <time>2010-05-29T09:36:16Z</time>
      </trkpt>
      <trkpt lat="45.12127" lon="4.99425">
        <ele>210</ele>
        <time>2010-05-29T09:36:52Z</time>
      </trkpt>
      <trkpt lat="45.1215" lon="4.9936">
        <ele>209</ele>
        <time>2010-05-29T09:37:13Z</time>
      </trkpt>
      <trkpt lat="45.12196" lon="4.99199">
        <ele>208</ele>
        <time>2010-05-29T09:38:02Z</time>
      </trkpt>
      <trkpt lat="45.12227" lon="4.99065">
        <ele>216</ele>
        <time>2010-05-29T09:38:42Z</time>
      </trkpt>
      <trkpt lat="45.12233" lon="4.99065">
        <ele>216</ele>
        <time>2010-05-29T09:38:44Z</time>
      </trkpt>
      <trkpt lat="45.12242" lon="4.99055">
        <ele>216</ele>
        <time>2010-05-29T09:38:49Z</time>
      </trkpt>
      <trkpt lat="45.12244" lon="4.99043">
        <ele>216</ele>
        <time>2010-05-29T09:38:52Z</time>
      </trkpt>
      <trkpt lat="45.12238" lon="4.99023">
        <ele>220</ele>
        <time>2010-05-29T09:38:58Z</time>
      </trkpt>
      <trkpt lat="45.12226" lon="4.99019">
        <ele>220</ele>
        <time>2010-05-29T09:39:03Z</time>
      </trkpt>
      <trkpt lat="45.12215" lon="4.99027">
        <ele>220</ele>
        <time>2010-05-29T09:39:08Z</time>
      </trkpt>
      <trkpt lat="45.12161" lon="4.98968">
        <ele>207</ele>
        <time>2010-05-29T09:39:36Z</time>
      </trkpt>
      <trkpt lat="45.12103" lon="4.98886">
        <ele>203</ele>
        <time>2010-05-29T09:40:08Z</time>
      </trkpt>
      <trkpt lat="45.12065" lon="4.98815">
        <ele>204</ele>
        <time>2010-05-29T09:40:34Z</time>
      </trkpt>
      <trkpt lat="45.12048" lon="4.98766">
        <ele>205</ele>
        <time>2010-05-29T09:40:49Z</time>
      </trkpt>
      <trkpt lat="45.12036" lon="4.98715">
        <ele>202</ele>
        <time>2010-05-29T09:41:04Z</time>
      </trkpt>
      <trkpt lat="45.12024" lon="4.9864">
        <ele>203</ele>
        <time>2010-05-29T09:41:26Z</time>
      </trkpt>
    </trkseg>
  </trk>
</gpx>